<?xml version="1.0" encoding="UTF-8" standalone="no" ?>
<gpx xmlns="http://www.topografix.com/GPX/1/1" xmlns:xsi="http://www.w3.org/2001/XMLSchema-instance" xsi:schemaLocation="http://www.topografix.com/GPX/1/1 http://www.topografix.com/GPX/1/1/gpx.xsd" version="1.1" creator="VisuGPX - https://www.visugpx.com">
  <metadata>
    <name>testAncenis</name>
    <desc><![CDATA[test mode invité]]></desc>
  </metadata>
  <trk>
    <name><![CDATA[track]]></name>
    <trkseg>
      <trkpt lat="47.35918" lon="-1.17826">
        <ele>24</ele>
        <time>2014-07-06T10:32:25Z</time>
      </trkpt>
      <trkpt lat="47.35919" lon="-1.17829">
        <ele>24</ele>
        <time>2014-07-06T10:32:35Z</time>
      </trkpt>
      <trkpt lat="47.35908" lon="-1.17858">
        <ele>24</ele>
        <time>2014-07-06T10:32:50Z</time>
      </trkpt>
      <trkpt lat="47.35903" lon="-1.1787">
        <ele>24</ele>
        <time>2014-07-06T10:32:56Z</time>
      </trkpt>
      <trkpt lat="47.35897" lon="-1.1789">
        <ele>24</ele>
        <time>2014-07-06T10:33:05Z</time>
      </trkpt>
      <trkpt lat="47.35895" lon="-1.17893">
        <ele>24</ele>
        <time>2014-07-06T10:33:07Z</time>
      </trkpt>
      <trkpt lat="47.35887" lon="-1.17917">
        <ele>24</ele>
        <time>2014-07-06T10:33:18Z</time>
      </trkpt>
      <trkpt lat="47.35884" lon="-1.17928">
        <ele>24</ele>
        <time>2014-07-06T10:33:24Z</time>
      </trkpt>
      <trkpt lat="47.35877" lon="-1.17949">
        <ele>24</ele>
        <time>2014-07-06T10:33:36Z</time>
      </trkpt>
      <trkpt lat="47.35876" lon="-1.17954">
        <ele>22</ele>
        <time>2014-07-06T10:33:39Z</time>
      </trkpt>
      <trkpt lat="47.35863" lon="-1.17981">
        <ele>22</ele>
        <time>2014-07-06T10:33:51Z</time>
      </trkpt>
      <trkpt lat="47.35849" lon="-1.18003">
        <ele>22</ele>
        <time>2014-07-06T10:34:02Z</time>
      </trkpt>
      <trkpt lat="47.35833" lon="-1.1803">
        <ele>22</ele>
        <time>2014-07-06T10:34:17Z</time>
      </trkpt>
      <trkpt lat="47.35825" lon="-1.18056">
        <ele>22</ele>
        <time>2014-07-06T10:34:29Z</time>
      </trkpt>
      <trkpt lat="47.35809" lon="-1.18096">
        <ele>22</ele>
        <time>2014-07-06T10:34:49Z</time>
      </trkpt>
      <trkpt lat="47.358" lon="-1.18121">
        <ele>23</ele>
        <time>2014-07-06T10:35:00Z</time>
      </trkpt>
      <trkpt lat="47.3579" lon="-1.18145">
        <ele>23</ele>
        <time>2014-07-06T10:35:11Z</time>
      </trkpt>
      <trkpt lat="47.3578" lon="-1.18169">
        <ele>22</ele>
        <time>2014-07-06T10:35:22Z</time>
      </trkpt>
      <trkpt lat="47.35771" lon="-1.18195">
        <ele>22</ele>
        <time>2014-07-06T10:35:33Z</time>
      </trkpt>
      <trkpt lat="47.35755" lon="-1.18234">
        <ele>21</ele>
        <time>2014-07-06T10:35:51Z</time>
      </trkpt>
      <trkpt lat="47.35737" lon="-1.18287">
        <ele>20</ele>
        <time>2014-07-06T10:36:15Z</time>
      </trkpt>
      <trkpt lat="47.35735" lon="-1.18296">
        <ele>20</ele>
        <time>2014-07-06T10:36:19Z</time>
      </trkpt>
      <trkpt lat="47.35736" lon="-1.18303">
        <ele>20</ele>
        <time>2014-07-06T10:36:22Z</time>
      </trkpt>
      <trkpt lat="47.35744" lon="-1.18322">
        <ele>20</ele>
        <time>2014-07-06T10:36:31Z</time>
      </trkpt>
      <trkpt lat="47.35748" lon="-1.1833">
        <ele>19</ele>
        <time>2014-07-06T10:36:35Z</time>
      </trkpt>
      <trkpt lat="47.35753" lon="-1.18354">
        <ele>19</ele>
        <time>2014-07-06T10:36:45Z</time>
      </trkpt>
      <trkpt lat="47.35749" lon="-1.18379">
        <ele>19</ele>
        <time>2014-07-06T10:36:56Z</time>
      </trkpt>
      <trkpt lat="47.35742" lon="-1.18396">
        <ele>19</ele>
        <time>2014-07-06T10:37:03Z</time>
      </trkpt>
      <trkpt lat="47.3574" lon="-1.18406">
        <ele>18</ele>
        <time>2014-07-06T10:37:07Z</time>
      </trkpt>
      <trkpt lat="47.35732" lon="-1.18431">
        <ele>18</ele>
        <time>2014-07-06T10:37:19Z</time>
      </trkpt>
      <trkpt lat="47.35726" lon="-1.18449">
        <ele>18</ele>
        <time>2014-07-06T10:37:28Z</time>
      </trkpt>
      <trkpt lat="47.35716" lon="-1.18473">
        <ele>18</ele>
        <time>2014-07-06T10:37:39Z</time>
      </trkpt>
      <trkpt lat="47.35711" lon="-1.18485">
        <ele>18</ele>
        <time>2014-07-06T10:37:45Z</time>
      </trkpt>
      <trkpt lat="47.3571" lon="-1.18487">
        <ele>18</ele>
        <time>2014-07-06T10:37:46Z</time>
      </trkpt>
      <trkpt lat="47.35709" lon="-1.18489">
        <ele>18</ele>
        <time>2014-07-06T10:37:47Z</time>
      </trkpt>
      <trkpt lat="47.35707" lon="-1.18497">
        <ele>18</ele>
        <time>2014-07-06T10:37:50Z</time>
      </trkpt>
      <trkpt lat="47.35698" lon="-1.18519">
        <ele>18</ele>
        <time>2014-07-06T10:38:00Z</time>
      </trkpt>
      <trkpt lat="47.35698" lon="-1.18521">
        <ele>18</ele>
        <time>2014-07-06T10:38:01Z</time>
      </trkpt>
      <trkpt lat="47.35692" lon="-1.18532">
        <ele>18</ele>
        <time>2014-07-06T10:38:07Z</time>
      </trkpt>
      <trkpt lat="47.35688" lon="-1.1854">
        <ele>18</ele>
        <time>2014-07-06T10:38:11Z</time>
      </trkpt>
      <trkpt lat="47.35688" lon="-1.18545">
        <ele>18</ele>
        <time>2014-07-06T10:38:20Z</time>
      </trkpt>
      <trkpt lat="47.35684" lon="-1.18549">
        <ele>18</ele>
        <time>2014-07-06T10:38:38Z</time>
      </trkpt>
      <trkpt lat="47.35682" lon="-1.18551">
        <ele>19</ele>
        <time>2014-07-06T10:38:40Z</time>
      </trkpt>
      <trkpt lat="47.35681" lon="-1.18554">
        <ele>20</ele>
        <time>2014-07-06T10:38:42Z</time>
      </trkpt>
      <trkpt lat="47.3568" lon="-1.18556">
        <ele>20</ele>
        <time>2014-07-06T10:38:43Z</time>
      </trkpt>
      <trkpt lat="47.35677" lon="-1.18558">
        <ele>20</ele>
        <time>2014-07-06T10:38:45Z</time>
      </trkpt>
      <trkpt lat="47.3567" lon="-1.18567">
        <ele>19</ele>
        <time>2014-07-06T10:38:52Z</time>
      </trkpt>
      <trkpt lat="47.35667" lon="-1.18571">
        <ele>18</ele>
        <time>2014-07-06T10:38:55Z</time>
      </trkpt>
      <trkpt lat="47.35662" lon="-1.18584">
        <ele>18</ele>
        <time>2014-07-06T10:39:03Z</time>
      </trkpt>
      <trkpt lat="47.35656" lon="-1.18613">
        <ele>18</ele>
        <time>2014-07-06T10:39:14Z</time>
      </trkpt>
      <trkpt lat="47.35647" lon="-1.18634">
        <ele>18</ele>
        <time>2014-07-06T10:39:24Z</time>
      </trkpt>
      <trkpt lat="47.35641" lon="-1.18659">
        <ele>18</ele>
        <time>2014-07-06T10:39:36Z</time>
      </trkpt>
      <trkpt lat="47.35633" lon="-1.18679">
        <ele>18</ele>
        <time>2014-07-06T10:39:46Z</time>
      </trkpt>
      <trkpt lat="47.35627" lon="-1.18696">
        <ele>18</ele>
        <time>2014-07-06T10:39:55Z</time>
      </trkpt>
      <trkpt lat="47.35622" lon="-1.18709">
        <ele>18</ele>
        <time>2014-07-06T10:40:01Z</time>
      </trkpt>
      <trkpt lat="47.35621" lon="-1.18711">
        <ele>18</ele>
        <time>2014-07-06T10:40:02Z</time>
      </trkpt>
      <trkpt lat="47.35613" lon="-1.18731">
        <ele>18</ele>
        <time>2014-07-06T10:40:12Z</time>
      </trkpt>
      <trkpt lat="47.35608" lon="-1.18748">
        <ele>18</ele>
        <time>2014-07-06T10:40:21Z</time>
      </trkpt>
      <trkpt lat="47.35608" lon="-1.18752">
        <ele>18</ele>
        <time>2014-07-06T10:40:23Z</time>
      </trkpt>
      <trkpt lat="47.35607" lon="-1.18763">
        <ele>18</ele>
        <time>2014-07-06T10:40:34Z</time>
      </trkpt>
      <trkpt lat="47.35602" lon="-1.1877">
        <ele>18</ele>
        <time>2014-07-06T10:40:38Z</time>
      </trkpt>
      <trkpt lat="47.35598" lon="-1.18776">
        <ele>18</ele>
        <time>2014-07-06T10:40:41Z</time>
      </trkpt>
      <trkpt lat="47.35593" lon="-1.18784">
        <ele>18</ele>
        <time>2014-07-06T10:40:45Z</time>
      </trkpt>
      <trkpt lat="47.35592" lon="-1.18786">
        <ele>18</ele>
        <time>2014-07-06T10:40:46Z</time>
      </trkpt>
      <trkpt lat="47.3559" lon="-1.18789">
        <ele>18</ele>
        <time>2014-07-06T10:40:48Z</time>
      </trkpt>
      <trkpt lat="47.35585" lon="-1.18804">
        <ele>18</ele>
        <time>2014-07-06T10:40:56Z</time>
      </trkpt>
      <trkpt lat="47.35578" lon="-1.18814">
        <ele>18</ele>
        <time>2014-07-06T10:41:02Z</time>
      </trkpt>
      <trkpt lat="47.35573" lon="-1.1883">
        <ele>18</ele>
        <time>2014-07-06T10:41:10Z</time>
      </trkpt>
      <trkpt lat="47.35561" lon="-1.18856">
        <ele>18</ele>
        <time>2014-07-06T10:41:22Z</time>
      </trkpt>
      <trkpt lat="47.35558" lon="-1.1887">
        <ele>18</ele>
        <time>2014-07-06T10:41:32Z</time>
      </trkpt>
      <trkpt lat="47.35557" lon="-1.18874">
        <ele>18</ele>
        <time>2014-07-06T10:41:38Z</time>
      </trkpt>
      <trkpt lat="47.35549" lon="-1.18887">
        <ele>18</ele>
        <time>2014-07-06T10:41:47Z</time>
      </trkpt>
      <trkpt lat="47.35543" lon="-1.189">
        <ele>18</ele>
        <time>2014-07-06T10:41:56Z</time>
      </trkpt>
      <trkpt lat="47.35535" lon="-1.18918">
        <ele>17</ele>
        <time>2014-07-06T10:42:07Z</time>
      </trkpt>
      <trkpt lat="47.35525" lon="-1.18936">
        <ele>17</ele>
        <time>2014-07-06T10:42:16Z</time>
      </trkpt>
      <trkpt lat="47.35515" lon="-1.18953">
        <ele>17</ele>
        <time>2014-07-06T10:42:25Z</time>
      </trkpt>
      <trkpt lat="47.35509" lon="-1.18966">
        <ele>17</ele>
        <time>2014-07-06T10:42:32Z</time>
      </trkpt>
      <trkpt lat="47.355" lon="-1.18981">
        <ele>17</ele>
        <time>2014-07-06T10:42:40Z</time>
      </trkpt>
      <trkpt lat="47.355" lon="-1.18983">
        <ele>17</ele>
        <time>2014-07-06T10:42:41Z</time>
      </trkpt>
      <trkpt lat="47.35498" lon="-1.18989">
        <ele>17</ele>
        <time>2014-07-06T10:42:45Z</time>
      </trkpt>
      <trkpt lat="47.35492" lon="-1.18998">
        <ele>17</ele>
        <time>2014-07-06T10:42:50Z</time>
      </trkpt>
      <trkpt lat="47.3549" lon="-1.19">
        <ele>17</ele>
        <time>2014-07-06T10:42:51Z</time>
      </trkpt>
      <trkpt lat="47.35489" lon="-1.19002">
        <ele>17</ele>
        <time>2014-07-06T10:42:52Z</time>
      </trkpt>
      <trkpt lat="47.35476" lon="-1.19026">
        <ele>17</ele>
        <time>2014-07-06T10:43:04Z</time>
      </trkpt>
      <trkpt lat="47.35466" lon="-1.19046">
        <ele>17</ele>
        <time>2014-07-06T10:43:15Z</time>
      </trkpt>
      <trkpt lat="47.35457" lon="-1.19067">
        <ele>16</ele>
        <time>2014-07-06T10:43:25Z</time>
      </trkpt>
      <trkpt lat="47.35451" lon="-1.19077">
        <ele>16</ele>
        <time>2014-07-06T10:43:30Z</time>
      </trkpt>
      <trkpt lat="47.35448" lon="-1.19084">
        <ele>16</ele>
        <time>2014-07-06T10:43:33Z</time>
      </trkpt>
      <trkpt lat="47.35437" lon="-1.19102">
        <ele>17</ele>
        <time>2014-07-06T10:43:43Z</time>
      </trkpt>
      <trkpt lat="47.35426" lon="-1.19119">
        <ele>17</ele>
        <time>2014-07-06T10:43:52Z</time>
      </trkpt>
      <trkpt lat="47.35417" lon="-1.19137">
        <ele>17</ele>
        <time>2014-07-06T10:44:02Z</time>
      </trkpt>
      <trkpt lat="47.35407" lon="-1.1915">
        <ele>17</ele>
        <time>2014-07-06T10:44:09Z</time>
      </trkpt>
      <trkpt lat="47.35407" lon="-1.19152">
        <ele>17</ele>
        <time>2014-07-06T10:44:10Z</time>
      </trkpt>
      <trkpt lat="47.35404" lon="-1.19156">
        <ele>17</ele>
        <time>2014-07-06T10:44:12Z</time>
      </trkpt>
      <trkpt lat="47.35393" lon="-1.19184">
        <ele>17</ele>
        <time>2014-07-06T10:44:27Z</time>
      </trkpt>
      <trkpt lat="47.35389" lon="-1.19192">
        <ele>17</ele>
        <time>2014-07-06T10:44:35Z</time>
      </trkpt>
      <trkpt lat="47.3539" lon="-1.19192">
        <ele>17</ele>
        <time>2014-07-06T10:44:37Z</time>
      </trkpt>
      <trkpt lat="47.35389" lon="-1.19195">
        <ele>17</ele>
        <time>2014-07-06T10:44:39Z</time>
      </trkpt>
      <trkpt lat="47.3538" lon="-1.19211">
        <ele>17</ele>
        <time>2014-07-06T10:44:48Z</time>
      </trkpt>
      <trkpt lat="47.35369" lon="-1.19226">
        <ele>17</ele>
        <time>2014-07-06T10:44:58Z</time>
      </trkpt>
      <trkpt lat="47.35357" lon="-1.19243">
        <ele>17</ele>
        <time>2014-07-06T10:45:08Z</time>
      </trkpt>
      <trkpt lat="47.35354" lon="-1.19249">
        <ele>17</ele>
        <time>2014-07-06T10:45:11Z</time>
      </trkpt>
      <trkpt lat="47.35352" lon="-1.19253">
        <ele>17</ele>
        <time>2014-07-06T10:45:13Z</time>
      </trkpt>
      <trkpt lat="47.35347" lon="-1.19261">
        <ele>17</ele>
        <time>2014-07-06T10:45:18Z</time>
      </trkpt>
      <trkpt lat="47.35346" lon="-1.19263">
        <ele>17</ele>
        <time>2014-07-06T10:45:19Z</time>
      </trkpt>
      <trkpt lat="47.35345" lon="-1.19265">
        <ele>17</ele>
        <time>2014-07-06T10:45:20Z</time>
      </trkpt>
      <trkpt lat="47.35344" lon="-1.19266">
        <ele>17</ele>
        <time>2014-07-06T10:45:21Z</time>
      </trkpt>
      <trkpt lat="47.35341" lon="-1.1927">
        <ele>17</ele>
        <time>2014-07-06T10:45:23Z</time>
      </trkpt>
      <trkpt lat="47.35339" lon="-1.19274">
        <ele>17</ele>
        <time>2014-07-06T10:45:25Z</time>
      </trkpt>
      <trkpt lat="47.35309" lon="-1.19329">
        <ele>17</ele>
        <time>2014-07-06T10:45:54Z</time>
      </trkpt>
      <trkpt lat="47.35304" lon="-1.19341">
        <ele>16</ele>
        <time>2014-07-06T10:46:00Z</time>
      </trkpt>
      <trkpt lat="47.35293" lon="-1.19361">
        <ele>16</ele>
        <time>2014-07-06T10:46:10Z</time>
      </trkpt>
      <trkpt lat="47.35278" lon="-1.19386">
        <ele>16</ele>
        <time>2014-07-06T10:46:22Z</time>
      </trkpt>
      <trkpt lat="47.35276" lon="-1.1939">
        <ele>16</ele>
        <time>2014-07-06T10:46:24Z</time>
      </trkpt>
      <trkpt lat="47.35266" lon="-1.19408">
        <ele>16</ele>
        <time>2014-07-06T10:46:33Z</time>
      </trkpt>
      <trkpt lat="47.35255" lon="-1.19426">
        <ele>16</ele>
        <time>2014-07-06T10:46:43Z</time>
      </trkpt>
      <trkpt lat="47.35247" lon="-1.19442">
        <ele>16</ele>
        <time>2014-07-06T10:46:51Z</time>
      </trkpt>
      <trkpt lat="47.35237" lon="-1.19464">
        <ele>16</ele>
        <time>2014-07-06T10:47:01Z</time>
      </trkpt>
      <trkpt lat="47.35227" lon="-1.19486">
        <ele>16</ele>
        <time>2014-07-06T10:47:12Z</time>
      </trkpt>
      <trkpt lat="47.35216" lon="-1.19501">
        <ele>16</ele>
        <time>2014-07-06T10:47:20Z</time>
      </trkpt>
      <trkpt lat="47.35205" lon="-1.19517">
        <ele>16</ele>
        <time>2014-07-06T10:47:29Z</time>
      </trkpt>
      <trkpt lat="47.35193" lon="-1.19534">
        <ele>16</ele>
        <time>2014-07-06T10:47:39Z</time>
      </trkpt>
      <trkpt lat="47.3518" lon="-1.19549">
        <ele>16</ele>
        <time>2014-07-06T10:47:48Z</time>
      </trkpt>
      <trkpt lat="47.35179" lon="-1.1955">
        <ele>16</ele>
        <time>2014-07-06T10:47:49Z</time>
      </trkpt>
      <trkpt lat="47.35177" lon="-1.19554">
        <ele>16</ele>
        <time>2014-07-06T10:47:51Z</time>
      </trkpt>
      <trkpt lat="47.35174" lon="-1.19558">
        <ele>16</ele>
        <time>2014-07-06T10:47:53Z</time>
      </trkpt>
      <trkpt lat="47.35173" lon="-1.1956">
        <ele>16</ele>
        <time>2014-07-06T10:47:54Z</time>
      </trkpt>
      <trkpt lat="47.35158" lon="-1.19578">
        <ele>15</ele>
        <time>2014-07-06T10:48:06Z</time>
      </trkpt>
      <trkpt lat="47.35146" lon="-1.19594">
        <ele>15</ele>
        <time>2014-07-06T10:48:15Z</time>
      </trkpt>
      <trkpt lat="47.35134" lon="-1.19608">
        <ele>15</ele>
        <time>2014-07-06T10:48:25Z</time>
      </trkpt>
      <trkpt lat="47.35122" lon="-1.19623">
        <ele>14</ele>
        <time>2014-07-06T10:48:35Z</time>
      </trkpt>
      <trkpt lat="47.3512" lon="-1.19627">
        <ele>14</ele>
        <time>2014-07-06T10:48:37Z</time>
      </trkpt>
      <trkpt lat="47.35114" lon="-1.19639">
        <ele>14</ele>
        <time>2014-07-06T10:48:45Z</time>
      </trkpt>
      <trkpt lat="47.35111" lon="-1.19652">
        <ele>13</ele>
        <time>2014-07-06T10:48:54Z</time>
      </trkpt>
      <trkpt lat="47.3511" lon="-1.19652">
        <ele>13</ele>
        <time>2014-07-06T10:48:56Z</time>
      </trkpt>
      <trkpt lat="47.35109" lon="-1.19653">
        <ele>13</ele>
        <time>2014-07-06T10:48:57Z</time>
      </trkpt>
      <trkpt lat="47.35108" lon="-1.19654">
        <ele>13</ele>
        <time>2014-07-06T10:48:58Z</time>
      </trkpt>
      <trkpt lat="47.35104" lon="-1.19661">
        <ele>13</ele>
        <time>2014-07-06T10:49:02Z</time>
      </trkpt>
      <trkpt lat="47.35103" lon="-1.19663">
        <ele>13</ele>
        <time>2014-07-06T10:49:03Z</time>
      </trkpt>
      <trkpt lat="47.35103" lon="-1.19664">
        <ele>13</ele>
        <time>2014-07-06T10:49:04Z</time>
      </trkpt>
      <trkpt lat="47.3509" lon="-1.19685">
        <ele>13</ele>
        <time>2014-07-06T10:49:15Z</time>
      </trkpt>
      <trkpt lat="47.35076" lon="-1.197">
        <ele>12</ele>
        <time>2014-07-06T10:49:25Z</time>
      </trkpt>
      <trkpt lat="47.3506" lon="-1.19709">
        <ele>12</ele>
        <time>2014-07-06T10:49:35Z</time>
      </trkpt>
      <trkpt lat="47.35052" lon="-1.1971">
        <ele>12</ele>
        <time>2014-07-06T10:49:41Z</time>
      </trkpt>
      <trkpt lat="47.35051" lon="-1.1971">
        <ele>12</ele>
        <time>2014-07-06T10:49:42Z</time>
      </trkpt>
      <trkpt lat="47.35048" lon="-1.1971">
        <ele>12</ele>
        <time>2014-07-06T10:49:44Z</time>
      </trkpt>
      <trkpt lat="47.35043" lon="-1.19709">
        <ele>13</ele>
        <time>2014-07-06T10:49:48Z</time>
      </trkpt>
      <trkpt lat="47.35026" lon="-1.1971">
        <ele>15</ele>
        <time>2014-07-06T10:49:59Z</time>
      </trkpt>
      <trkpt lat="47.35006" lon="-1.19705">
        <ele>15</ele>
        <time>2014-07-06T10:50:11Z</time>
      </trkpt>
      <trkpt lat="47.34994" lon="-1.19702">
        <ele>15</ele>
        <time>2014-07-06T10:50:19Z</time>
      </trkpt>
      <trkpt lat="47.34985" lon="-1.19692">
        <ele>13</ele>
        <time>2014-07-06T10:50:29Z</time>
      </trkpt>
      <trkpt lat="47.34976" lon="-1.19654">
        <ele>15</ele>
        <time>2014-07-06T10:50:43Z</time>
      </trkpt>
      <trkpt lat="47.34976" lon="-1.19651">
        <ele>15</ele>
        <time>2014-07-06T10:50:44Z</time>
      </trkpt>
      <trkpt lat="47.34969" lon="-1.1963">
        <ele>15</ele>
        <time>2014-07-06T10:50:53Z</time>
      </trkpt>
      <trkpt lat="47.34959" lon="-1.19612">
        <ele>15</ele>
        <time>2014-07-06T10:51:01Z</time>
      </trkpt>
      <trkpt lat="47.34945" lon="-1.1959">
        <ele>14</ele>
        <time>2014-07-06T10:51:12Z</time>
      </trkpt>
      <trkpt lat="47.34944" lon="-1.19588">
        <ele>14</ele>
        <time>2014-07-06T10:51:13Z</time>
      </trkpt>
      <trkpt lat="47.34926" lon="-1.19554">
        <ele>13</ele>
        <time>2014-07-06T10:51:30Z</time>
      </trkpt>
      <trkpt lat="47.34925" lon="-1.19553">
        <ele>13</ele>
        <time>2014-07-06T10:51:31Z</time>
      </trkpt>
      <trkpt lat="47.34914" lon="-1.1953">
        <ele>13</ele>
        <time>2014-07-06T10:51:42Z</time>
      </trkpt>
      <trkpt lat="47.34911" lon="-1.19526">
        <ele>13</ele>
        <time>2014-07-06T10:51:45Z</time>
      </trkpt>
      <trkpt lat="47.3491" lon="-1.19524">
        <ele>13</ele>
        <time>2014-07-06T10:51:46Z</time>
      </trkpt>
      <trkpt lat="47.34908" lon="-1.1952">
        <ele>13</ele>
        <time>2014-07-06T10:51:48Z</time>
      </trkpt>
      <trkpt lat="47.34907" lon="-1.19518">
        <ele>13</ele>
        <time>2014-07-06T10:51:49Z</time>
      </trkpt>
      <trkpt lat="47.34904" lon="-1.19513">
        <ele>13</ele>
        <time>2014-07-06T10:51:51Z</time>
      </trkpt>
      <trkpt lat="47.34893" lon="-1.19492">
        <ele>13</ele>
        <time>2014-07-06T10:52:01Z</time>
      </trkpt>
      <trkpt lat="47.34888" lon="-1.19479">
        <ele>13</ele>
        <time>2014-07-06T10:52:07Z</time>
      </trkpt>
      <trkpt lat="47.34879" lon="-1.19458">
        <ele>12</ele>
        <time>2014-07-06T10:52:17Z</time>
      </trkpt>
      <trkpt lat="47.34869" lon="-1.19436">
        <ele>12</ele>
        <time>2014-07-06T10:52:26Z</time>
      </trkpt>
      <trkpt lat="47.34866" lon="-1.19432">
        <ele>12</ele>
        <time>2014-07-06T10:52:28Z</time>
      </trkpt>
      <trkpt lat="47.34865" lon="-1.1943">
        <ele>12</ele>
        <time>2014-07-06T10:52:29Z</time>
      </trkpt>
      <trkpt lat="47.34859" lon="-1.19423">
        <ele>12</ele>
        <time>2014-07-06T10:52:33Z</time>
      </trkpt>
      <trkpt lat="47.34858" lon="-1.19421">
        <ele>12</ele>
        <time>2014-07-06T10:52:34Z</time>
      </trkpt>
      <trkpt lat="47.34856" lon="-1.19419">
        <ele>12</ele>
        <time>2014-07-06T10:52:35Z</time>
      </trkpt>
      <trkpt lat="47.34853" lon="-1.19415">
        <ele>12</ele>
        <time>2014-07-06T10:52:37Z</time>
      </trkpt>
      <trkpt lat="47.34851" lon="-1.19412">
        <ele>12</ele>
        <time>2014-07-06T10:52:39Z</time>
      </trkpt>
      <trkpt lat="47.3485" lon="-1.1941">
        <ele>12</ele>
        <time>2014-07-06T10:52:40Z</time>
      </trkpt>
      <trkpt lat="47.34836" lon="-1.19405">
        <ele>12</ele>
        <time>2014-07-06T10:52:49Z</time>
      </trkpt>
      <trkpt lat="47.34819" lon="-1.19407">
        <ele>12</ele>
        <time>2014-07-06T10:52:58Z</time>
      </trkpt>
      <trkpt lat="47.34812" lon="-1.19416">
        <ele>12</ele>
        <time>2014-07-06T10:53:06Z</time>
      </trkpt>
      <trkpt lat="47.34811" lon="-1.1942">
        <ele>12</ele>
        <time>2014-07-06T10:53:08Z</time>
      </trkpt>
      <trkpt lat="47.34806" lon="-1.19442">
        <ele>12</ele>
        <time>2014-07-06T10:53:17Z</time>
      </trkpt>
      <trkpt lat="47.34802" lon="-1.19463">
        <ele>12</ele>
        <time>2014-07-06T10:53:27Z</time>
      </trkpt>
      <trkpt lat="47.34799" lon="-1.19487">
        <ele>12</ele>
        <time>2014-07-06T10:53:36Z</time>
      </trkpt>
      <trkpt lat="47.34796" lon="-1.19506">
        <ele>12</ele>
        <time>2014-07-06T10:53:43Z</time>
      </trkpt>
      <trkpt lat="47.34795" lon="-1.19508">
        <ele>12</ele>
        <time>2014-07-06T10:53:44Z</time>
      </trkpt>
      <trkpt lat="47.34794" lon="-1.19512">
        <ele>12</ele>
        <time>2014-07-06T10:53:45Z</time>
      </trkpt>
      <trkpt lat="47.34786" lon="-1.19551">
        <ele>12</ele>
        <time>2014-07-06T10:54:01Z</time>
      </trkpt>
      <trkpt lat="47.3478" lon="-1.19574">
        <ele>11</ele>
        <time>2014-07-06T10:54:11Z</time>
      </trkpt>
      <trkpt lat="47.34774" lon="-1.19599">
        <ele>11</ele>
        <time>2014-07-06T10:54:20Z</time>
      </trkpt>
      <trkpt lat="47.34772" lon="-1.19614">
        <ele>11</ele>
        <time>2014-07-06T10:54:25Z</time>
      </trkpt>
      <trkpt lat="47.34769" lon="-1.19641">
        <ele>11</ele>
        <time>2014-07-06T10:54:36Z</time>
      </trkpt>
      <trkpt lat="47.34766" lon="-1.19664">
        <ele>11</ele>
        <time>2014-07-06T10:54:45Z</time>
      </trkpt>
      <trkpt lat="47.34761" lon="-1.19688">
        <ele>11</ele>
        <time>2014-07-06T10:54:56Z</time>
      </trkpt>
      <trkpt lat="47.3476" lon="-1.1969">
        <ele>11</ele>
        <time>2014-07-06T10:54:57Z</time>
      </trkpt>
      <trkpt lat="47.34757" lon="-1.19705">
        <ele>11</ele>
        <time>2014-07-06T10:55:03Z</time>
      </trkpt>
      <trkpt lat="47.34757" lon="-1.19707">
        <ele>11</ele>
        <time>2014-07-06T10:55:04Z</time>
      </trkpt>
      <trkpt lat="47.34756" lon="-1.19712">
        <ele>11</ele>
        <time>2014-07-06T10:55:06Z</time>
      </trkpt>
      <trkpt lat="47.34746" lon="-1.19761">
        <ele>11</ele>
        <time>2014-07-06T10:55:24Z</time>
      </trkpt>
      <trkpt lat="47.34744" lon="-1.19771">
        <ele>11</ele>
        <time>2014-07-06T10:55:28Z</time>
      </trkpt>
      <trkpt lat="47.34743" lon="-1.19773">
        <ele>11</ele>
        <time>2014-07-06T10:55:29Z</time>
      </trkpt>
      <trkpt lat="47.3474" lon="-1.19781">
        <ele>11</ele>
        <time>2014-07-06T10:55:32Z</time>
      </trkpt>
      <trkpt lat="47.34733" lon="-1.19825">
        <ele>11</ele>
        <time>2014-07-06T10:55:50Z</time>
      </trkpt>
      <trkpt lat="47.3473" lon="-1.19848">
        <ele>11</ele>
        <time>2014-07-06T10:56:00Z</time>
      </trkpt>
      <trkpt lat="47.34728" lon="-1.19856">
        <ele>11</ele>
        <time>2014-07-06T10:56:03Z</time>
      </trkpt>
      <trkpt lat="47.34725" lon="-1.19878">
        <ele>11</ele>
        <time>2014-07-06T10:56:12Z</time>
      </trkpt>
      <trkpt lat="47.34723" lon="-1.19898">
        <ele>11</ele>
        <time>2014-07-06T10:56:21Z</time>
      </trkpt>
      <trkpt lat="47.34721" lon="-1.19925">
        <ele>11</ele>
        <time>2014-07-06T10:56:30Z</time>
      </trkpt>
      <trkpt lat="47.34719" lon="-1.1994">
        <ele>11</ele>
        <time>2014-07-06T10:56:39Z</time>
      </trkpt>
      <trkpt lat="47.34719" lon="-1.19945">
        <ele>11</ele>
        <time>2014-07-06T10:56:41Z</time>
      </trkpt>
      <trkpt lat="47.34716" lon="-1.19966">
        <ele>11</ele>
        <time>2014-07-06T10:56:48Z</time>
      </trkpt>
      <trkpt lat="47.34715" lon="-1.19976">
        <ele>11</ele>
        <time>2014-07-06T10:56:52Z</time>
      </trkpt>
      <trkpt lat="47.34714" lon="-1.19978">
        <ele>11</ele>
        <time>2014-07-06T10:56:53Z</time>
      </trkpt>
      <trkpt lat="47.34713" lon="-1.19988">
        <ele>11</ele>
        <time>2014-07-06T10:56:57Z</time>
      </trkpt>
      <trkpt lat="47.34709" lon="-1.20001">
        <ele>11</ele>
        <time>2014-07-06T10:57:06Z</time>
      </trkpt>
      <trkpt lat="47.34705" lon="-1.20021">
        <ele>11</ele>
        <time>2014-07-06T10:57:17Z</time>
      </trkpt>
      <trkpt lat="47.34702" lon="-1.20043">
        <ele>11</ele>
        <time>2014-07-06T10:57:26Z</time>
      </trkpt>
      <trkpt lat="47.347" lon="-1.20067">
        <ele>11</ele>
        <time>2014-07-06T10:57:36Z</time>
      </trkpt>
      <trkpt lat="47.34699" lon="-1.20075">
        <ele>11</ele>
        <time>2014-07-06T10:57:39Z</time>
      </trkpt>
      <trkpt lat="47.34697" lon="-1.20094">
        <ele>11</ele>
        <time>2014-07-06T10:57:47Z</time>
      </trkpt>
      <trkpt lat="47.34688" lon="-1.20145">
        <ele>11</ele>
        <time>2014-07-06T10:58:07Z</time>
      </trkpt>
      <trkpt lat="47.34685" lon="-1.20168">
        <ele>11</ele>
        <time>2014-07-06T10:58:17Z</time>
      </trkpt>
      <trkpt lat="47.34683" lon="-1.20177">
        <ele>11</ele>
        <time>2014-07-06T10:58:21Z</time>
      </trkpt>
      <trkpt lat="47.3468" lon="-1.20202">
        <ele>10</ele>
        <time>2014-07-06T10:58:31Z</time>
      </trkpt>
      <trkpt lat="47.3468" lon="-1.20205">
        <ele>10</ele>
        <time>2014-07-06T10:58:32Z</time>
      </trkpt>
      <trkpt lat="47.34679" lon="-1.20208">
        <ele>10</ele>
        <time>2014-07-06T10:58:33Z</time>
      </trkpt>
      <trkpt lat="47.34678" lon="-1.2021">
        <ele>10</ele>
        <time>2014-07-06T10:58:34Z</time>
      </trkpt>
      <trkpt lat="47.3467" lon="-1.20251">
        <ele>10</ele>
        <time>2014-07-06T10:58:51Z</time>
      </trkpt>
      <trkpt lat="47.34668" lon="-1.20262">
        <ele>10</ele>
        <time>2014-07-06T10:58:56Z</time>
      </trkpt>
      <trkpt lat="47.34665" lon="-1.20285">
        <ele>10</ele>
        <time>2014-07-06T10:59:05Z</time>
      </trkpt>
      <trkpt lat="47.34664" lon="-1.20288">
        <ele>10</ele>
        <time>2014-07-06T10:59:06Z</time>
      </trkpt>
      <trkpt lat="47.34662" lon="-1.20296">
        <ele>10</ele>
        <time>2014-07-06T10:59:09Z</time>
      </trkpt>
      <trkpt lat="47.34663" lon="-1.20308">
        <ele>10</ele>
        <time>2014-07-06T10:59:14Z</time>
      </trkpt>
      <trkpt lat="47.34663" lon="-1.20316">
        <ele>12</ele>
        <time>2014-07-06T10:59:17Z</time>
      </trkpt>
      <trkpt lat="47.34662" lon="-1.20319">
        <ele>12</ele>
        <time>2014-07-06T10:59:18Z</time>
      </trkpt>
      <trkpt lat="47.34661" lon="-1.20324">
        <ele>12</ele>
        <time>2014-07-06T10:59:20Z</time>
      </trkpt>
      <trkpt lat="47.34652" lon="-1.2034">
        <ele>12</ele>
        <time>2014-07-06T10:59:30Z</time>
      </trkpt>
      <trkpt lat="47.34644" lon="-1.20354">
        <ele>12</ele>
        <time>2014-07-06T10:59:39Z</time>
      </trkpt>
      <trkpt lat="47.34632" lon="-1.20368">
        <ele>12</ele>
        <time>2014-07-06T10:59:49Z</time>
      </trkpt>
      <trkpt lat="47.3463" lon="-1.20371">
        <ele>12</ele>
        <time>2014-07-06T10:59:50Z</time>
      </trkpt>
      <trkpt lat="47.3462" lon="-1.20383">
        <ele>12</ele>
        <time>2014-07-06T10:59:57Z</time>
      </trkpt>
      <trkpt lat="47.34603" lon="-1.20402">
        <ele>12</ele>
        <time>2014-07-06T11:00:06Z</time>
      </trkpt>
      <trkpt lat="47.3459" lon="-1.20416">
        <ele>12</ele>
        <time>2014-07-06T11:00:15Z</time>
      </trkpt>
      <trkpt lat="47.3458" lon="-1.20424">
        <ele>12</ele>
        <time>2014-07-06T11:00:22Z</time>
      </trkpt>
      <trkpt lat="47.34557" lon="-1.20438">
        <ele>12</ele>
        <time>2014-07-06T11:00:33Z</time>
      </trkpt>
      <trkpt lat="47.3454" lon="-1.20442">
        <ele>12</ele>
        <time>2014-07-06T11:00:43Z</time>
      </trkpt>
      <trkpt lat="47.34527" lon="-1.20441">
        <ele>12</ele>
        <time>2014-07-06T11:00:52Z</time>
      </trkpt>
      <trkpt lat="47.34517" lon="-1.20439">
        <ele>12</ele>
        <time>2014-07-06T11:00:58Z</time>
      </trkpt>
      <trkpt lat="47.34515" lon="-1.20439">
        <ele>12</ele>
        <time>2014-07-06T11:00:59Z</time>
      </trkpt>
      <trkpt lat="47.34511" lon="-1.20436">
        <ele>12</ele>
        <time>2014-07-06T11:01:02Z</time>
      </trkpt>
      <trkpt lat="47.34508" lon="-1.20435">
        <ele>12</ele>
        <time>2014-07-06T11:01:04Z</time>
      </trkpt>
      <trkpt lat="47.34505" lon="-1.20435">
        <ele>12</ele>
        <time>2014-07-06T11:01:06Z</time>
      </trkpt>
      <trkpt lat="47.34486" lon="-1.20428">
        <ele>11</ele>
        <time>2014-07-06T11:01:18Z</time>
      </trkpt>
      <trkpt lat="47.34469" lon="-1.20423">
        <ele>11</ele>
        <time>2014-07-06T11:01:29Z</time>
      </trkpt>
      <trkpt lat="47.34462" lon="-1.20424">
        <ele>11</ele>
        <time>2014-07-06T11:01:32Z</time>
      </trkpt>
      <trkpt lat="47.34461" lon="-1.20425">
        <ele>11</ele>
        <time>2014-07-06T11:01:33Z</time>
      </trkpt>
      <trkpt lat="47.34454" lon="-1.20433">
        <ele>11</ele>
        <time>2014-07-06T11:01:38Z</time>
      </trkpt>
      <trkpt lat="47.34451" lon="-1.20452">
        <ele>11</ele>
        <time>2014-07-06T11:01:47Z</time>
      </trkpt>
      <trkpt lat="47.34451" lon="-1.20455">
        <ele>11</ele>
        <time>2014-07-06T11:01:48Z</time>
      </trkpt>
      <trkpt lat="47.3445" lon="-1.20463">
        <ele>10</ele>
        <time>2014-07-06T11:01:52Z</time>
      </trkpt>
      <trkpt lat="47.34449" lon="-1.20482">
        <ele>10</ele>
        <time>2014-07-06T11:02:00Z</time>
      </trkpt>
      <trkpt lat="47.34449" lon="-1.20484">
        <ele>10</ele>
        <time>2014-07-06T11:02:01Z</time>
      </trkpt>
      <trkpt lat="47.34448" lon="-1.20499">
        <ele>10</ele>
        <time>2014-07-06T11:02:07Z</time>
      </trkpt>
      <trkpt lat="47.34447" lon="-1.20502">
        <ele>10</ele>
        <time>2014-07-06T11:02:08Z</time>
      </trkpt>
      <trkpt lat="47.34445" lon="-1.20539">
        <ele>11</ele>
        <time>2014-07-06T11:02:22Z</time>
      </trkpt>
      <trkpt lat="47.34444" lon="-1.20541">
        <ele>11</ele>
        <time>2014-07-06T11:02:23Z</time>
      </trkpt>
      <trkpt lat="47.34444" lon="-1.20544">
        <ele>11</ele>
        <time>2014-07-06T11:02:24Z</time>
      </trkpt>
      <trkpt lat="47.34442" lon="-1.20568">
        <ele>12</ele>
        <time>2014-07-06T11:02:34Z</time>
      </trkpt>
      <trkpt lat="47.34441" lon="-1.20572">
        <ele>12</ele>
        <time>2014-07-06T11:02:43Z</time>
      </trkpt>
      <trkpt lat="47.34439" lon="-1.20587">
        <ele>12</ele>
        <time>2014-07-06T11:02:52Z</time>
      </trkpt>
      <trkpt lat="47.34437" lon="-1.20594">
        <ele>12</ele>
        <time>2014-07-06T11:02:55Z</time>
      </trkpt>
      <trkpt lat="47.34436" lon="-1.20602">
        <ele>12</ele>
        <time>2014-07-06T11:02:58Z</time>
      </trkpt>
      <trkpt lat="47.34436" lon="-1.20604">
        <ele>12</ele>
        <time>2014-07-06T11:02:59Z</time>
      </trkpt>
      <trkpt lat="47.34434" lon="-1.20628">
        <ele>13</ele>
        <time>2014-07-06T11:03:09Z</time>
      </trkpt>
      <trkpt lat="47.3443" lon="-1.2066">
        <ele>13</ele>
        <time>2014-07-06T11:03:20Z</time>
      </trkpt>
      <trkpt lat="47.3443" lon="-1.20664">
        <ele>13</ele>
        <time>2014-07-06T11:03:22Z</time>
      </trkpt>
      <trkpt lat="47.34432" lon="-1.20669">
        <ele>13</ele>
        <time>2014-07-06T11:03:32Z</time>
      </trkpt>
      <trkpt lat="47.34435" lon="-1.20679">
        <ele>13</ele>
        <time>2014-07-06T11:03:47Z</time>
      </trkpt>
      <trkpt lat="47.34436" lon="-1.20686">
        <ele>13</ele>
        <time>2014-07-06T11:03:57Z</time>
      </trkpt>
      <trkpt lat="47.34435" lon="-1.20688">
        <ele>13</ele>
        <time>2014-07-06T11:03:58Z</time>
      </trkpt>
      <trkpt lat="47.34435" lon="-1.2069">
        <ele>13</ele>
        <time>2014-07-06T11:03:59Z</time>
      </trkpt>
      <trkpt lat="47.34434" lon="-1.20707">
        <ele>13</ele>
        <time>2014-07-06T11:04:07Z</time>
      </trkpt>
      <trkpt lat="47.34431" lon="-1.20708">
        <ele>13</ele>
        <time>2014-07-06T11:04:16Z</time>
      </trkpt>
      <trkpt lat="47.34432" lon="-1.20709">
        <ele>13</ele>
        <time>2014-07-06T11:04:35Z</time>
      </trkpt>
      <trkpt lat="47.34432" lon="-1.20711">
        <ele>13</ele>
        <time>2014-07-06T11:04:45Z</time>
      </trkpt>
      <trkpt lat="47.3443" lon="-1.20724">
        <ele>13</ele>
        <time>2014-07-06T11:04:54Z</time>
      </trkpt>
      <trkpt lat="47.34431" lon="-1.20724">
        <ele>13</ele>
        <time>2014-07-06T11:05:05Z</time>
      </trkpt>
      <trkpt lat="47.34428" lon="-1.20726">
        <ele>13</ele>
        <time>2014-07-06T11:05:16Z</time>
      </trkpt>
      <trkpt lat="47.34427" lon="-1.20731">
        <ele>13</ele>
        <time>2014-07-06T11:05:25Z</time>
      </trkpt>
      <trkpt lat="47.34428" lon="-1.2073">
        <ele>13</ele>
        <time>2014-07-06T11:05:42Z</time>
      </trkpt>
      <trkpt lat="47.34432" lon="-1.20734">
        <ele>12</ele>
        <time>2014-07-06T11:05:51Z</time>
      </trkpt>
      <trkpt lat="47.34434" lon="-1.2073">
        <ele>12</ele>
        <time>2014-07-06T11:06:11Z</time>
      </trkpt>
      <trkpt lat="47.34433" lon="-1.20727">
        <ele>11</ele>
        <time>2014-07-06T11:06:19Z</time>
      </trkpt>
      <trkpt lat="47.34428" lon="-1.20728">
        <ele>11</ele>
        <time>2014-07-06T11:06:29Z</time>
      </trkpt>
      <trkpt lat="47.34427" lon="-1.20732">
        <ele>11</ele>
        <time>2014-07-06T11:06:32Z</time>
      </trkpt>
      <trkpt lat="47.34427" lon="-1.20734">
        <ele>11</ele>
        <time>2014-07-06T11:06:33Z</time>
      </trkpt>
      <trkpt lat="47.34426" lon="-1.20736">
        <ele>11</ele>
        <time>2014-07-06T11:06:34Z</time>
      </trkpt>
      <trkpt lat="47.34425" lon="-1.2074">
        <ele>11</ele>
        <time>2014-07-06T11:06:36Z</time>
      </trkpt>
      <trkpt lat="47.34423" lon="-1.20749">
        <ele>11</ele>
        <time>2014-07-06T11:06:40Z</time>
      </trkpt>
      <trkpt lat="47.34419" lon="-1.20775">
        <ele>10</ele>
        <time>2014-07-06T11:06:54Z</time>
      </trkpt>
      <trkpt lat="47.34418" lon="-1.20791">
        <ele>10</ele>
        <time>2014-07-06T11:07:02Z</time>
      </trkpt>
      <trkpt lat="47.34416" lon="-1.20816">
        <ele>9</ele>
        <time>2014-07-06T11:07:12Z</time>
      </trkpt>
      <trkpt lat="47.34416" lon="-1.20834">
        <ele>9</ele>
        <time>2014-07-06T11:07:21Z</time>
      </trkpt>
      <trkpt lat="47.34417" lon="-1.20851">
        <ele>8</ele>
        <time>2014-07-06T11:07:31Z</time>
      </trkpt>
      <trkpt lat="47.34415" lon="-1.20907">
        <ele>8</ele>
        <time>2014-07-06T11:07:50Z</time>
      </trkpt>
      <trkpt lat="47.34414" lon="-1.20953">
        <ele>8</ele>
        <time>2014-07-06T11:08:08Z</time>
      </trkpt>
      <trkpt lat="47.34411" lon="-1.20978">
        <ele>8</ele>
        <time>2014-07-06T11:08:17Z</time>
      </trkpt>
      <trkpt lat="47.34408" lon="-1.21009">
        <ele>8</ele>
        <time>2014-07-06T11:08:27Z</time>
      </trkpt>
      <trkpt lat="47.34403" lon="-1.2104">
        <ele>8</ele>
        <time>2014-07-06T11:08:38Z</time>
      </trkpt>
      <trkpt lat="47.344" lon="-1.21068">
        <ele>8</ele>
        <time>2014-07-06T11:08:47Z</time>
      </trkpt>
      <trkpt lat="47.34399" lon="-1.21082">
        <ele>8</ele>
        <time>2014-07-06T11:08:52Z</time>
      </trkpt>
      <trkpt lat="47.34399" lon="-1.21085">
        <ele>8</ele>
        <time>2014-07-06T11:08:53Z</time>
      </trkpt>
      <trkpt lat="47.34395" lon="-1.21124">
        <ele>7</ele>
        <time>2014-07-06T11:09:04Z</time>
      </trkpt>
      <trkpt lat="47.34391" lon="-1.21167">
        <ele>7</ele>
        <time>2014-07-06T11:09:18Z</time>
      </trkpt>
      <trkpt lat="47.34389" lon="-1.21185">
        <ele>7</ele>
        <time>2014-07-06T11:09:25Z</time>
      </trkpt>
      <trkpt lat="47.34386" lon="-1.2121">
        <ele>7</ele>
        <time>2014-07-06T11:09:35Z</time>
      </trkpt>
      <trkpt lat="47.34382" lon="-1.21229">
        <ele>7</ele>
        <time>2014-07-06T11:09:42Z</time>
      </trkpt>
      <trkpt lat="47.34379" lon="-1.21256">
        <ele>7</ele>
        <time>2014-07-06T11:09:51Z</time>
      </trkpt>
      <trkpt lat="47.34378" lon="-1.21258">
        <ele>7</ele>
        <time>2014-07-06T11:09:52Z</time>
      </trkpt>
      <trkpt lat="47.34375" lon="-1.21286">
        <ele>7</ele>
        <time>2014-07-06T11:10:03Z</time>
      </trkpt>
      <trkpt lat="47.34372" lon="-1.21311">
        <ele>7</ele>
        <time>2014-07-06T11:10:13Z</time>
      </trkpt>
      <trkpt lat="47.34369" lon="-1.21332">
        <ele>7</ele>
        <time>2014-07-06T11:10:21Z</time>
      </trkpt>
      <trkpt lat="47.34366" lon="-1.21345">
        <ele>7</ele>
        <time>2014-07-06T11:10:25Z</time>
      </trkpt>
      <trkpt lat="47.34362" lon="-1.21362">
        <ele>6</ele>
        <time>2014-07-06T11:10:31Z</time>
      </trkpt>
      <trkpt lat="47.34362" lon="-1.21364">
        <ele>6</ele>
        <time>2014-07-06T11:10:32Z</time>
      </trkpt>
      <trkpt lat="47.34359" lon="-1.21383">
        <ele>6</ele>
        <time>2014-07-06T11:10:40Z</time>
      </trkpt>
      <trkpt lat="47.34355" lon="-1.21406">
        <ele>6</ele>
        <time>2014-07-06T11:10:48Z</time>
      </trkpt>
      <trkpt lat="47.34355" lon="-1.21411">
        <ele>6</ele>
        <time>2014-07-06T11:10:50Z</time>
      </trkpt>
      <trkpt lat="47.34354" lon="-1.21414">
        <ele>6</ele>
        <time>2014-07-06T11:10:51Z</time>
      </trkpt>
      <trkpt lat="47.34351" lon="-1.21427">
        <ele>6</ele>
        <time>2014-07-06T11:10:56Z</time>
      </trkpt>
      <trkpt lat="47.3435" lon="-1.21432">
        <ele>6</ele>
        <time>2014-07-06T11:10:58Z</time>
      </trkpt>
      <trkpt lat="47.34349" lon="-1.21438">
        <ele>6</ele>
        <time>2014-07-06T11:11:00Z</time>
      </trkpt>
      <trkpt lat="47.34341" lon="-1.21489">
        <ele>7</ele>
        <time>2014-07-06T11:11:19Z</time>
      </trkpt>
      <trkpt lat="47.34338" lon="-1.21514">
        <ele>7</ele>
        <time>2014-07-06T11:11:29Z</time>
      </trkpt>
      <trkpt lat="47.34337" lon="-1.21537">
        <ele>7</ele>
        <time>2014-07-06T11:11:38Z</time>
      </trkpt>
      <trkpt lat="47.34335" lon="-1.21562">
        <ele>7</ele>
        <time>2014-07-06T11:11:48Z</time>
      </trkpt>
      <trkpt lat="47.34333" lon="-1.21577">
        <ele>7</ele>
        <time>2014-07-06T11:11:54Z</time>
      </trkpt>
      <trkpt lat="47.34332" lon="-1.2158">
        <ele>7</ele>
        <time>2014-07-06T11:11:55Z</time>
      </trkpt>
      <trkpt lat="47.34333" lon="-1.21585">
        <ele>7</ele>
        <time>2014-07-06T11:11:57Z</time>
      </trkpt>
      <trkpt lat="47.34332" lon="-1.21587">
        <ele>7</ele>
        <time>2014-07-06T11:11:58Z</time>
      </trkpt>
      <trkpt lat="47.3433" lon="-1.21612">
        <ele>7</ele>
        <time>2014-07-06T11:12:08Z</time>
      </trkpt>
      <trkpt lat="47.3433" lon="-1.21615">
        <ele>7</ele>
        <time>2014-07-06T11:12:09Z</time>
      </trkpt>
      <trkpt lat="47.34325" lon="-1.21663">
        <ele>7</ele>
        <time>2014-07-06T11:12:28Z</time>
      </trkpt>
      <trkpt lat="47.34323" lon="-1.21679">
        <ele>7</ele>
        <time>2014-07-06T11:12:35Z</time>
      </trkpt>
      <trkpt lat="47.34319" lon="-1.21708">
        <ele>7</ele>
        <time>2014-07-06T11:12:45Z</time>
      </trkpt>
      <trkpt lat="47.34318" lon="-1.21731">
        <ele>7</ele>
        <time>2014-07-06T11:12:53Z</time>
      </trkpt>
      <trkpt lat="47.34318" lon="-1.21734">
        <ele>7</ele>
        <time>2014-07-06T11:12:54Z</time>
      </trkpt>
      <trkpt lat="47.34316" lon="-1.21754">
        <ele>7</ele>
        <time>2014-07-06T11:13:03Z</time>
      </trkpt>
      <trkpt lat="47.34317" lon="-1.21758">
        <ele>7</ele>
        <time>2014-07-06T11:13:07Z</time>
      </trkpt>
      <trkpt lat="47.34318" lon="-1.21763">
        <ele>7</ele>
        <time>2014-07-06T11:13:09Z</time>
      </trkpt>
      <trkpt lat="47.34318" lon="-1.2177">
        <ele>7</ele>
        <time>2014-07-06T11:13:11Z</time>
      </trkpt>
      <trkpt lat="47.34315" lon="-1.21795">
        <ele>7</ele>
        <time>2014-07-06T11:13:18Z</time>
      </trkpt>
      <trkpt lat="47.34315" lon="-1.21818">
        <ele>7</ele>
        <time>2014-07-06T11:13:27Z</time>
      </trkpt>
      <trkpt lat="47.34316" lon="-1.21829">
        <ele>7</ele>
        <time>2014-07-06T11:13:30Z</time>
      </trkpt>
      <trkpt lat="47.34317" lon="-1.21837">
        <ele>7</ele>
        <time>2014-07-06T11:13:33Z</time>
      </trkpt>
      <trkpt lat="47.34314" lon="-1.21858">
        <ele>7</ele>
        <time>2014-07-06T11:13:41Z</time>
      </trkpt>
      <trkpt lat="47.34311" lon="-1.21884">
        <ele>7</ele>
        <time>2014-07-06T11:13:51Z</time>
      </trkpt>
      <trkpt lat="47.3431" lon="-1.21895">
        <ele>7</ele>
        <time>2014-07-06T11:13:55Z</time>
      </trkpt>
      <trkpt lat="47.3431" lon="-1.21897">
        <ele>7</ele>
        <time>2014-07-06T11:13:56Z</time>
      </trkpt>
      <trkpt lat="47.34307" lon="-1.21919">
        <ele>7</ele>
        <time>2014-07-06T11:14:04Z</time>
      </trkpt>
      <trkpt lat="47.34306" lon="-1.21929">
        <ele>7</ele>
        <time>2014-07-06T11:14:08Z</time>
      </trkpt>
      <trkpt lat="47.34305" lon="-1.21957">
        <ele>7</ele>
        <time>2014-07-06T11:14:18Z</time>
      </trkpt>
      <trkpt lat="47.34303" lon="-1.21986">
        <ele>7</ele>
        <time>2014-07-06T11:14:29Z</time>
      </trkpt>
      <trkpt lat="47.34302" lon="-1.21989">
        <ele>7</ele>
        <time>2014-07-06T11:14:30Z</time>
      </trkpt>
      <trkpt lat="47.34302" lon="-1.21993">
        <ele>7</ele>
        <time>2014-07-06T11:14:31Z</time>
      </trkpt>
      <trkpt lat="47.343" lon="-1.22005">
        <ele>7</ele>
        <time>2014-07-06T11:14:36Z</time>
      </trkpt>
      <trkpt lat="47.343" lon="-1.22008">
        <ele>7</ele>
        <time>2014-07-06T11:14:37Z</time>
      </trkpt>
      <trkpt lat="47.34294" lon="-1.22033">
        <ele>7</ele>
        <time>2014-07-06T11:14:47Z</time>
      </trkpt>
      <trkpt lat="47.34282" lon="-1.22052">
        <ele>7</ele>
        <time>2014-07-06T11:14:57Z</time>
      </trkpt>
      <trkpt lat="47.34281" lon="-1.22053">
        <ele>7</ele>
        <time>2014-07-06T11:14:58Z</time>
      </trkpt>
      <trkpt lat="47.34274" lon="-1.22088">
        <ele>7</ele>
        <time>2014-07-06T11:15:12Z</time>
      </trkpt>
      <trkpt lat="47.34274" lon="-1.22101">
        <ele>7</ele>
        <time>2014-07-06T11:15:17Z</time>
      </trkpt>
      <trkpt lat="47.34271" lon="-1.22133">
        <ele>7</ele>
        <time>2014-07-06T11:15:30Z</time>
      </trkpt>
      <trkpt lat="47.34267" lon="-1.2216">
        <ele>7</ele>
        <time>2014-07-06T11:15:39Z</time>
      </trkpt>
      <trkpt lat="47.34266" lon="-1.22165">
        <ele>7</ele>
        <time>2014-07-06T11:15:41Z</time>
      </trkpt>
      <trkpt lat="47.34259" lon="-1.2221">
        <ele>6</ele>
        <time>2014-07-06T11:15:58Z</time>
      </trkpt>
      <trkpt lat="47.34257" lon="-1.22231">
        <ele>6</ele>
        <time>2014-07-06T11:16:06Z</time>
      </trkpt>
      <trkpt lat="47.34255" lon="-1.22254">
        <ele>6</ele>
        <time>2014-07-06T11:16:15Z</time>
      </trkpt>
      <trkpt lat="47.34251" lon="-1.22279">
        <ele>6</ele>
        <time>2014-07-06T11:16:24Z</time>
      </trkpt>
      <trkpt lat="47.34249" lon="-1.22302">
        <ele>6</ele>
        <time>2014-07-06T11:16:32Z</time>
      </trkpt>
      <trkpt lat="47.34247" lon="-1.22311">
        <ele>6</ele>
        <time>2014-07-06T11:16:36Z</time>
      </trkpt>
      <trkpt lat="47.34247" lon="-1.22314">
        <ele>6</ele>
        <time>2014-07-06T11:16:37Z</time>
      </trkpt>
      <trkpt lat="47.34246" lon="-1.22319">
        <ele>6</ele>
        <time>2014-07-06T11:16:39Z</time>
      </trkpt>
      <trkpt lat="47.34245" lon="-1.22327">
        <ele>6</ele>
        <time>2014-07-06T11:16:42Z</time>
      </trkpt>
      <trkpt lat="47.34243" lon="-1.2234">
        <ele>6</ele>
        <time>2014-07-06T11:16:47Z</time>
      </trkpt>
      <trkpt lat="47.34233" lon="-1.22418">
        <ele>6</ele>
        <time>2014-07-06T11:17:16Z</time>
      </trkpt>
      <trkpt lat="47.34232" lon="-1.22445">
        <ele>6</ele>
        <time>2014-07-06T11:17:26Z</time>
      </trkpt>
      <trkpt lat="47.34228" lon="-1.22484">
        <ele>4</ele>
        <time>2014-07-06T11:17:41Z</time>
      </trkpt>
      <trkpt lat="47.34224" lon="-1.22529">
        <ele>6</ele>
        <time>2014-07-06T11:18:00Z</time>
      </trkpt>
      <trkpt lat="47.34224" lon="-1.22545">
        <ele>6</ele>
        <time>2014-07-06T11:18:07Z</time>
      </trkpt>
      <trkpt lat="47.34224" lon="-1.22547">
        <ele>6</ele>
        <time>2014-07-06T11:18:08Z</time>
      </trkpt>
      <trkpt lat="47.34224" lon="-1.22569">
        <ele>6</ele>
        <time>2014-07-06T11:18:16Z</time>
      </trkpt>
      <trkpt lat="47.34223" lon="-1.22589">
        <ele>6</ele>
        <time>2014-07-06T11:18:24Z</time>
      </trkpt>
      <trkpt lat="47.34223" lon="-1.22611">
        <ele>5</ele>
        <time>2014-07-06T11:18:33Z</time>
      </trkpt>
      <trkpt lat="47.34223" lon="-1.22635">
        <ele>5</ele>
        <time>2014-07-06T11:18:42Z</time>
      </trkpt>
      <trkpt lat="47.34223" lon="-1.22641">
        <ele>5</ele>
        <time>2014-07-06T11:18:44Z</time>
      </trkpt>
      <trkpt lat="47.34223" lon="-1.2265">
        <ele>5</ele>
        <time>2014-07-06T11:18:47Z</time>
      </trkpt>
      <trkpt lat="47.34224" lon="-1.22654">
        <ele>5</ele>
        <time>2014-07-06T11:18:49Z</time>
      </trkpt>
      <trkpt lat="47.34227" lon="-1.22661">
        <ele>5</ele>
        <time>2014-07-06T11:18:52Z</time>
      </trkpt>
      <trkpt lat="47.34228" lon="-1.22663">
        <ele>5</ele>
        <time>2014-07-06T11:18:53Z</time>
      </trkpt>
      <trkpt lat="47.3423" lon="-1.22665">
        <ele>5</ele>
        <time>2014-07-06T11:18:56Z</time>
      </trkpt>
      <trkpt lat="47.34231" lon="-1.22666">
        <ele>5</ele>
        <time>2014-07-06T11:18:57Z</time>
      </trkpt>
      <trkpt lat="47.34243" lon="-1.22659">
        <ele>4</ele>
        <time>2014-07-06T11:19:07Z</time>
      </trkpt>
      <trkpt lat="47.34254" lon="-1.22648">
        <ele>4</ele>
        <time>2014-07-06T11:19:16Z</time>
      </trkpt>
      <trkpt lat="47.34273" lon="-1.22637">
        <ele>4</ele>
        <time>2014-07-06T11:19:27Z</time>
      </trkpt>
      <trkpt lat="47.34289" lon="-1.22636">
        <ele>4</ele>
        <time>2014-07-06T11:19:36Z</time>
      </trkpt>
      <trkpt lat="47.34295" lon="-1.22638">
        <ele>4</ele>
        <time>2014-07-06T11:19:39Z</time>
      </trkpt>
      <trkpt lat="47.3431" lon="-1.22647">
        <ele>4</ele>
        <time>2014-07-06T11:19:48Z</time>
      </trkpt>
      <trkpt lat="47.34317" lon="-1.22653">
        <ele>4</ele>
        <time>2014-07-06T11:19:51Z</time>
      </trkpt>
      <trkpt lat="47.34326" lon="-1.22658">
        <ele>4</ele>
        <time>2014-07-06T11:19:54Z</time>
      </trkpt>
      <trkpt lat="47.3433" lon="-1.22664">
        <ele>4</ele>
        <time>2014-07-06T11:19:57Z</time>
      </trkpt>
      <trkpt lat="47.34333" lon="-1.22667">
        <ele>4</ele>
        <time>2014-07-06T11:19:59Z</time>
      </trkpt>
      <trkpt lat="47.34339" lon="-1.2268">
        <ele>4</ele>
        <time>2014-07-06T11:20:09Z</time>
      </trkpt>
      <trkpt lat="47.34353" lon="-1.22694">
        <ele>4</ele>
        <time>2014-07-06T11:20:18Z</time>
      </trkpt>
      <trkpt lat="47.34372" lon="-1.22713">
        <ele>4</ele>
        <time>2014-07-06T11:20:29Z</time>
      </trkpt>
      <trkpt lat="47.34383" lon="-1.22725">
        <ele>4</ele>
        <time>2014-07-06T11:20:37Z</time>
      </trkpt>
      <trkpt lat="47.34385" lon="-1.22726">
        <ele>4</ele>
        <time>2014-07-06T11:20:38Z</time>
      </trkpt>
      <trkpt lat="47.34391" lon="-1.22739">
        <ele>4</ele>
        <time>2014-07-06T11:20:46Z</time>
      </trkpt>
      <trkpt lat="47.34412" lon="-1.22757">
        <ele>4</ele>
        <time>2014-07-06T11:20:55Z</time>
      </trkpt>
      <trkpt lat="47.34431" lon="-1.22776">
        <ele>4</ele>
        <time>2014-07-06T11:21:08Z</time>
      </trkpt>
      <trkpt lat="47.3444" lon="-1.22787">
        <ele>4</ele>
        <time>2014-07-06T11:21:16Z</time>
      </trkpt>
      <trkpt lat="47.34456" lon="-1.228">
        <ele>4</ele>
        <time>2014-07-06T11:21:26Z</time>
      </trkpt>
      <trkpt lat="47.34466" lon="-1.22813">
        <ele>4</ele>
        <time>2014-07-06T11:21:35Z</time>
      </trkpt>
      <trkpt lat="47.34476" lon="-1.22824">
        <ele>4</ele>
        <time>2014-07-06T11:21:42Z</time>
      </trkpt>
      <trkpt lat="47.34491" lon="-1.22841">
        <ele>4</ele>
        <time>2014-07-06T11:21:52Z</time>
      </trkpt>
      <trkpt lat="47.34501" lon="-1.22851">
        <ele>4</ele>
        <time>2014-07-06T11:21:59Z</time>
      </trkpt>
      <trkpt lat="47.34513" lon="-1.22865">
        <ele>4</ele>
        <time>2014-07-06T11:22:07Z</time>
      </trkpt>
      <trkpt lat="47.34527" lon="-1.2288">
        <ele>4</ele>
        <time>2014-07-06T11:22:17Z</time>
      </trkpt>
      <trkpt lat="47.34562" lon="-1.2292">
        <ele>4</ele>
        <time>2014-07-06T11:22:38Z</time>
      </trkpt>
      <trkpt lat="47.34565" lon="-1.22922">
        <ele>4</ele>
        <time>2014-07-06T11:22:39Z</time>
      </trkpt>
      <trkpt lat="47.34566" lon="-1.22924">
        <ele>4</ele>
        <time>2014-07-06T11:22:40Z</time>
      </trkpt>
      <trkpt lat="47.34607" lon="-1.22971">
        <ele>4</ele>
        <time>2014-07-06T11:23:10Z</time>
      </trkpt>
      <trkpt lat="47.34608" lon="-1.22974">
        <ele>4</ele>
        <time>2014-07-06T11:23:11Z</time>
      </trkpt>
      <trkpt lat="47.34609" lon="-1.22979">
        <ele>4</ele>
        <time>2014-07-06T11:23:13Z</time>
      </trkpt>
      <trkpt lat="47.3461" lon="-1.22985">
        <ele>4</ele>
        <time>2014-07-06T11:23:15Z</time>
      </trkpt>
      <trkpt lat="47.34611" lon="-1.23">
        <ele>4</ele>
        <time>2014-07-06T11:23:21Z</time>
      </trkpt>
      <trkpt lat="47.34611" lon="-1.23002">
        <ele>4</ele>
        <time>2014-07-06T11:23:22Z</time>
      </trkpt>
      <trkpt lat="47.34613" lon="-1.23035">
        <ele>5</ele>
        <time>2014-07-06T11:23:33Z</time>
      </trkpt>
      <trkpt lat="47.34614" lon="-1.23039">
        <ele>5</ele>
        <time>2014-07-06T11:23:35Z</time>
      </trkpt>
      <trkpt lat="47.34615" lon="-1.23041">
        <ele>5</ele>
        <time>2014-07-06T11:23:36Z</time>
      </trkpt>
      <trkpt lat="47.34616" lon="-1.23043">
        <ele>5</ele>
        <time>2014-07-06T11:23:37Z</time>
      </trkpt>
      <trkpt lat="47.34617" lon="-1.23055">
        <ele>5</ele>
        <time>2014-07-06T11:23:44Z</time>
      </trkpt>
      <trkpt lat="47.34617" lon="-1.23062">
        <ele>5</ele>
        <time>2014-07-06T11:23:47Z</time>
      </trkpt>
      <trkpt lat="47.34616" lon="-1.23066">
        <ele>5</ele>
        <time>2014-07-06T11:23:49Z</time>
      </trkpt>
      <trkpt lat="47.34615" lon="-1.2307">
        <ele>5</ele>
        <time>2014-07-06T11:23:51Z</time>
      </trkpt>
      <trkpt lat="47.34612" lon="-1.23087">
        <ele>5</ele>
        <time>2014-07-06T11:23:58Z</time>
      </trkpt>
      <trkpt lat="47.34606" lon="-1.23112">
        <ele>5</ele>
        <time>2014-07-06T11:24:09Z</time>
      </trkpt>
      <trkpt lat="47.3459" lon="-1.23157">
        <ele>5</ele>
        <time>2014-07-06T11:24:27Z</time>
      </trkpt>
      <trkpt lat="47.34585" lon="-1.23175">
        <ele>4</ele>
        <time>2014-07-06T11:24:34Z</time>
      </trkpt>
      <trkpt lat="47.34579" lon="-1.23194">
        <ele>4</ele>
        <time>2014-07-06T11:24:43Z</time>
      </trkpt>
      <trkpt lat="47.34567" lon="-1.23226">
        <ele>4</ele>
        <time>2014-07-06T11:24:56Z</time>
      </trkpt>
      <trkpt lat="47.34553" lon="-1.23251">
        <ele>4</ele>
        <time>2014-07-06T11:25:07Z</time>
      </trkpt>
      <trkpt lat="47.34549" lon="-1.23253">
        <ele>4</ele>
        <time>2014-07-06T11:25:09Z</time>
      </trkpt>
      <trkpt lat="47.34548" lon="-1.23253">
        <ele>4</ele>
        <time>2014-07-06T11:25:10Z</time>
      </trkpt>
      <trkpt lat="47.34546" lon="-1.23254">
        <ele>4</ele>
        <time>2014-07-06T11:25:11Z</time>
      </trkpt>
      <trkpt lat="47.34539" lon="-1.23269">
        <ele>3</ele>
        <time>2014-07-06T11:25:22Z</time>
      </trkpt>
      <trkpt lat="47.34536" lon="-1.2328">
        <ele>3</ele>
        <time>2014-07-06T11:25:26Z</time>
      </trkpt>
      <trkpt lat="47.34536" lon="-1.23282">
        <ele>3</ele>
        <time>2014-07-06T11:25:27Z</time>
      </trkpt>
      <trkpt lat="47.34535" lon="-1.23287">
        <ele>3</ele>
        <time>2014-07-06T11:25:29Z</time>
      </trkpt>
      <trkpt lat="47.34535" lon="-1.2329">
        <ele>3</ele>
        <time>2014-07-06T11:25:30Z</time>
      </trkpt>
      <trkpt lat="47.34535" lon="-1.23292">
        <ele>3</ele>
        <time>2014-07-06T11:25:31Z</time>
      </trkpt>
      <trkpt lat="47.34534" lon="-1.23294">
        <ele>3</ele>
        <time>2014-07-06T11:25:32Z</time>
      </trkpt>
      <trkpt lat="47.34535" lon="-1.23302">
        <ele>3</ele>
        <time>2014-07-06T11:25:36Z</time>
      </trkpt>
      <trkpt lat="47.34547" lon="-1.23329">
        <ele>3</ele>
        <time>2014-07-06T11:25:49Z</time>
      </trkpt>
      <trkpt lat="47.34555" lon="-1.23353">
        <ele>3</ele>
        <time>2014-07-06T11:25:59Z</time>
      </trkpt>
      <trkpt lat="47.34555" lon="-1.23356">
        <ele>3</ele>
        <time>2014-07-06T11:26:00Z</time>
      </trkpt>
      <trkpt lat="47.34561" lon="-1.23376">
        <ele>3</ele>
        <time>2014-07-06T11:26:08Z</time>
      </trkpt>
      <trkpt lat="47.34565" lon="-1.23392">
        <ele>3</ele>
        <time>2014-07-06T11:26:14Z</time>
      </trkpt>
      <trkpt lat="47.34565" lon="-1.23395">
        <ele>3</ele>
        <time>2014-07-06T11:26:15Z</time>
      </trkpt>
      <trkpt lat="47.34564" lon="-1.23401">
        <ele>3</ele>
        <time>2014-07-06T11:26:17Z</time>
      </trkpt>
      <trkpt lat="47.34564" lon="-1.23404">
        <ele>3</ele>
        <time>2014-07-06T11:26:18Z</time>
      </trkpt>
      <trkpt lat="47.34565" lon="-1.23419">
        <ele>3</ele>
        <time>2014-07-06T11:26:23Z</time>
      </trkpt>
      <trkpt lat="47.34565" lon="-1.23421">
        <ele>3</ele>
        <time>2014-07-06T11:26:24Z</time>
      </trkpt>
      <trkpt lat="47.34565" lon="-1.23423">
        <ele>3</ele>
        <time>2014-07-06T11:26:25Z</time>
      </trkpt>
      <trkpt lat="47.34565" lon="-1.23426">
        <ele>3</ele>
        <time>2014-07-06T11:26:26Z</time>
      </trkpt>
      <trkpt lat="47.34565" lon="-1.2343">
        <ele>3</ele>
        <time>2014-07-06T11:26:27Z</time>
      </trkpt>
      <trkpt lat="47.34566" lon="-1.23435">
        <ele>3</ele>
        <time>2014-07-06T11:26:29Z</time>
      </trkpt>
      <trkpt lat="47.34565" lon="-1.23456">
        <ele>3</ele>
        <time>2014-07-06T11:26:38Z</time>
      </trkpt>
      <trkpt lat="47.34565" lon="-1.23458">
        <ele>3</ele>
        <time>2014-07-06T11:26:39Z</time>
      </trkpt>
      <trkpt lat="47.34565" lon="-1.23463">
        <ele>3</ele>
        <time>2014-07-06T11:26:48Z</time>
      </trkpt>
      <trkpt lat="47.34567" lon="-1.23459">
        <ele>3</ele>
        <time>2014-07-06T11:26:54Z</time>
      </trkpt>
      <trkpt lat="47.3457" lon="-1.23458">
        <ele>1</ele>
        <time>2014-07-06T11:27:04Z</time>
      </trkpt>
      <trkpt lat="47.34573" lon="-1.23455">
        <ele>-1</ele>
        <time>2014-07-06T11:27:16Z</time>
      </trkpt>
      <trkpt lat="47.34575" lon="-1.23451">
        <ele>-2</ele>
        <time>2014-07-06T11:27:28Z</time>
      </trkpt>
      <trkpt lat="47.34573" lon="-1.23454">
        <ele>-2</ele>
        <time>2014-07-06T11:27:50Z</time>
      </trkpt>
      <trkpt lat="47.3457" lon="-1.23455">
        <ele>-1</ele>
        <time>2014-07-06T11:27:58Z</time>
      </trkpt>
      <trkpt lat="47.34565" lon="-1.23459">
        <ele>3</ele>
        <time>2014-07-06T11:28:08Z</time>
      </trkpt>
      <trkpt lat="47.34562" lon="-1.2346">
        <ele>3</ele>
        <time>2014-07-06T11:28:13Z</time>
      </trkpt>
      <trkpt lat="47.34551" lon="-1.23514">
        <ele>4</ele>
        <time>2014-07-06T11:28:35Z</time>
      </trkpt>
      <trkpt lat="47.34544" lon="-1.23538">
        <ele>4</ele>
        <time>2014-07-06T11:28:45Z</time>
      </trkpt>
      <trkpt lat="47.34541" lon="-1.23562">
        <ele>4</ele>
        <time>2014-07-06T11:28:55Z</time>
      </trkpt>
      <trkpt lat="47.34535" lon="-1.23588">
        <ele>4</ele>
        <time>2014-07-06T11:29:06Z</time>
      </trkpt>
      <trkpt lat="47.34523" lon="-1.23639">
        <ele>4</ele>
        <time>2014-07-06T11:29:26Z</time>
      </trkpt>
      <trkpt lat="47.34515" lon="-1.23675">
        <ele>4</ele>
        <time>2014-07-06T11:29:41Z</time>
      </trkpt>
      <trkpt lat="47.34513" lon="-1.23684">
        <ele>4</ele>
        <time>2014-07-06T11:29:45Z</time>
      </trkpt>
      <trkpt lat="47.34513" lon="-1.23689">
        <ele>4</ele>
        <time>2014-07-06T11:29:47Z</time>
      </trkpt>
      <trkpt lat="47.34512" lon="-1.23692">
        <ele>4</ele>
        <time>2014-07-06T11:29:48Z</time>
      </trkpt>
      <trkpt lat="47.34511" lon="-1.23695">
        <ele>4</ele>
        <time>2014-07-06T11:29:49Z</time>
      </trkpt>
      <trkpt lat="47.3451" lon="-1.237">
        <ele>4</ele>
        <time>2014-07-06T11:29:51Z</time>
      </trkpt>
      <trkpt lat="47.34506" lon="-1.23715">
        <ele>4</ele>
        <time>2014-07-06T11:29:57Z</time>
      </trkpt>
      <trkpt lat="47.34506" lon="-1.23718">
        <ele>4</ele>
        <time>2014-07-06T11:29:58Z</time>
      </trkpt>
      <trkpt lat="47.34507" lon="-1.23726">
        <ele>4</ele>
        <time>2014-07-06T11:30:02Z</time>
      </trkpt>
      <trkpt lat="47.34507" lon="-1.23729">
        <ele>4</ele>
        <time>2014-07-06T11:30:04Z</time>
      </trkpt>
      <trkpt lat="47.34503" lon="-1.23738">
        <ele>4</ele>
        <time>2014-07-06T11:30:08Z</time>
      </trkpt>
      <trkpt lat="47.34503" lon="-1.2374">
        <ele>4</ele>
        <time>2014-07-06T11:30:09Z</time>
      </trkpt>
      <trkpt lat="47.34502" lon="-1.23742">
        <ele>4</ele>
        <time>2014-07-06T11:30:10Z</time>
      </trkpt>
      <trkpt lat="47.34497" lon="-1.23763">
        <ele>4</ele>
        <time>2014-07-06T11:30:19Z</time>
      </trkpt>
      <trkpt lat="47.34495" lon="-1.23787">
        <ele>4</ele>
        <time>2014-07-06T11:30:29Z</time>
      </trkpt>
      <trkpt lat="47.34495" lon="-1.23793">
        <ele>4</ele>
        <time>2014-07-06T11:30:32Z</time>
      </trkpt>
      <trkpt lat="47.34493" lon="-1.23803">
        <ele>4</ele>
        <time>2014-07-06T11:30:40Z</time>
      </trkpt>
      <trkpt lat="47.34493" lon="-1.23807">
        <ele>3</ele>
        <time>2014-07-06T11:30:42Z</time>
      </trkpt>
      <trkpt lat="47.34492" lon="-1.23811">
        <ele>3</ele>
        <time>2014-07-06T11:30:44Z</time>
      </trkpt>
      <trkpt lat="47.34491" lon="-1.23813">
        <ele>3</ele>
        <time>2014-07-06T11:30:45Z</time>
      </trkpt>
      <trkpt lat="47.34486" lon="-1.23833">
        <ele>3</ele>
        <time>2014-07-06T11:30:53Z</time>
      </trkpt>
      <trkpt lat="47.34485" lon="-1.23835">
        <ele>3</ele>
        <time>2014-07-06T11:30:54Z</time>
      </trkpt>
      <trkpt lat="47.34485" lon="-1.23837">
        <ele>3</ele>
        <time>2014-07-06T11:30:55Z</time>
      </trkpt>
      <trkpt lat="47.34485" lon="-1.23839">
        <ele>3</ele>
        <time>2014-07-06T11:30:56Z</time>
      </trkpt>
      <trkpt lat="47.34485" lon="-1.23843">
        <ele>3</ele>
        <time>2014-07-06T11:30:58Z</time>
      </trkpt>
      <trkpt lat="47.34484" lon="-1.23845">
        <ele>3</ele>
        <time>2014-07-06T11:30:59Z</time>
      </trkpt>
      <trkpt lat="47.3448" lon="-1.23865">
        <ele>3</ele>
        <time>2014-07-06T11:31:08Z</time>
      </trkpt>
      <trkpt lat="47.34479" lon="-1.23868">
        <ele>3</ele>
        <time>2014-07-06T11:31:09Z</time>
      </trkpt>
      <trkpt lat="47.34478" lon="-1.2387">
        <ele>3</ele>
        <time>2014-07-06T11:31:10Z</time>
      </trkpt>
      <trkpt lat="47.34477" lon="-1.23878">
        <ele>3</ele>
        <time>2014-07-06T11:31:13Z</time>
      </trkpt>
      <trkpt lat="47.34472" lon="-1.23906">
        <ele>3</ele>
        <time>2014-07-06T11:31:24Z</time>
      </trkpt>
      <trkpt lat="47.34464" lon="-1.23934">
        <ele>3</ele>
        <time>2014-07-06T11:31:35Z</time>
      </trkpt>
      <trkpt lat="47.3446" lon="-1.23962">
        <ele>2</ele>
        <time>2014-07-06T11:31:46Z</time>
      </trkpt>
      <trkpt lat="47.34457" lon="-1.23976">
        <ele>2</ele>
        <time>2014-07-06T11:31:52Z</time>
      </trkpt>
      <trkpt lat="47.34457" lon="-1.23978">
        <ele>2</ele>
        <time>2014-07-06T11:31:53Z</time>
      </trkpt>
      <trkpt lat="47.34451" lon="-1.24008">
        <ele>2</ele>
        <time>2014-07-06T11:32:05Z</time>
      </trkpt>
      <trkpt lat="47.34443" lon="-1.24036">
        <ele>2</ele>
        <time>2014-07-06T11:32:16Z</time>
      </trkpt>
      <trkpt lat="47.3444" lon="-1.24058">
        <ele>2</ele>
        <time>2014-07-06T11:32:26Z</time>
      </trkpt>
      <trkpt lat="47.34439" lon="-1.24061">
        <ele>2</ele>
        <time>2014-07-06T11:32:27Z</time>
      </trkpt>
      <trkpt lat="47.34435" lon="-1.24085">
        <ele>2</ele>
        <time>2014-07-06T11:32:37Z</time>
      </trkpt>
      <trkpt lat="47.34432" lon="-1.24107">
        <ele>2</ele>
        <time>2014-07-06T11:32:46Z</time>
      </trkpt>
      <trkpt lat="47.34432" lon="-1.24109">
        <ele>2</ele>
        <time>2014-07-06T11:32:47Z</time>
      </trkpt>
      <trkpt lat="47.34429" lon="-1.24132">
        <ele>2</ele>
        <time>2014-07-06T11:32:56Z</time>
      </trkpt>
      <trkpt lat="47.34425" lon="-1.24154">
        <ele>2</ele>
        <time>2014-07-06T11:33:06Z</time>
      </trkpt>
      <trkpt lat="47.34423" lon="-1.24169">
        <ele>2</ele>
        <time>2014-07-06T11:33:12Z</time>
      </trkpt>
      <trkpt lat="47.34422" lon="-1.24171">
        <ele>2</ele>
        <time>2014-07-06T11:33:13Z</time>
      </trkpt>
      <trkpt lat="47.34421" lon="-1.24174">
        <ele>2</ele>
        <time>2014-07-06T11:33:14Z</time>
      </trkpt>
      <trkpt lat="47.3442" lon="-1.2418">
        <ele>2</ele>
        <time>2014-07-06T11:33:16Z</time>
      </trkpt>
      <trkpt lat="47.3442" lon="-1.24183">
        <ele>1</ele>
        <time>2014-07-06T11:33:17Z</time>
      </trkpt>
      <trkpt lat="47.34417" lon="-1.24188">
        <ele>1</ele>
        <time>2014-07-06T11:33:19Z</time>
      </trkpt>
      <trkpt lat="47.34416" lon="-1.24192">
        <ele>1</ele>
        <time>2014-07-06T11:33:21Z</time>
      </trkpt>
      <trkpt lat="47.34415" lon="-1.24197">
        <ele>1</ele>
        <time>2014-07-06T11:33:23Z</time>
      </trkpt>
      <trkpt lat="47.34413" lon="-1.24203">
        <ele>1</ele>
        <time>2014-07-06T11:33:26Z</time>
      </trkpt>
      <trkpt lat="47.34413" lon="-1.24206">
        <ele>1</ele>
        <time>2014-07-06T11:33:27Z</time>
      </trkpt>
      <trkpt lat="47.34412" lon="-1.24211">
        <ele>1</ele>
        <time>2014-07-06T11:33:29Z</time>
      </trkpt>
      <trkpt lat="47.34411" lon="-1.24214">
        <ele>1</ele>
        <time>2014-07-06T11:33:30Z</time>
      </trkpt>
      <trkpt lat="47.3441" lon="-1.24221">
        <ele>1</ele>
        <time>2014-07-06T11:33:33Z</time>
      </trkpt>
      <trkpt lat="47.34409" lon="-1.24225">
        <ele>1</ele>
        <time>2014-07-06T11:33:35Z</time>
      </trkpt>
      <trkpt lat="47.344" lon="-1.24246">
        <ele>1</ele>
        <time>2014-07-06T11:33:43Z</time>
      </trkpt>
      <trkpt lat="47.34391" lon="-1.2427">
        <ele>1</ele>
        <time>2014-07-06T11:33:52Z</time>
      </trkpt>
      <trkpt lat="47.34389" lon="-1.24275">
        <ele>1</ele>
        <time>2014-07-06T11:33:54Z</time>
      </trkpt>
      <trkpt lat="47.34382" lon="-1.24293">
        <ele>1</ele>
        <time>2014-07-06T11:34:02Z</time>
      </trkpt>
      <trkpt lat="47.3438" lon="-1.24302">
        <ele>1</ele>
        <time>2014-07-06T11:34:07Z</time>
      </trkpt>
      <trkpt lat="47.34379" lon="-1.24307">
        <ele>1</ele>
        <time>2014-07-06T11:34:09Z</time>
      </trkpt>
      <trkpt lat="47.34378" lon="-1.24311">
        <ele>1</ele>
        <time>2014-07-06T11:34:10Z</time>
      </trkpt>
      <trkpt lat="47.34377" lon="-1.24313">
        <ele>1</ele>
        <time>2014-07-06T11:34:11Z</time>
      </trkpt>
      <trkpt lat="47.34369" lon="-1.24335">
        <ele>1</ele>
        <time>2014-07-06T11:34:20Z</time>
      </trkpt>
      <trkpt lat="47.34367" lon="-1.2434">
        <ele>5.6</ele>
        <time>2014-07-06T11:34:22Z</time>
      </trkpt>
      <trkpt lat="47.34356" lon="-1.24367">
        <ele>4.8</ele>
        <time>2014-07-06T11:34:34Z</time>
      </trkpt>
      <trkpt lat="47.34348" lon="-1.24395">
        <ele>4.8</ele>
        <time>2014-07-06T11:34:46Z</time>
      </trkpt>
      <trkpt lat="47.34346" lon="-1.24399">
        <ele>5.1</ele>
        <time>2014-07-06T11:34:48Z</time>
      </trkpt>
      <trkpt lat="47.34337" lon="-1.24423">
        <ele>5.7</ele>
        <time>2014-07-06T11:34:58Z</time>
      </trkpt>
      <trkpt lat="47.34337" lon="-1.24425">
        <ele>5.5</ele>
        <time>2014-07-06T11:34:59Z</time>
      </trkpt>
      <trkpt lat="47.34333" lon="-1.24435">
        <ele>5</ele>
        <time>2014-07-06T11:35:03Z</time>
      </trkpt>
      <trkpt lat="47.34332" lon="-1.24441">
        <ele>4.5</ele>
        <time>2014-07-06T11:35:06Z</time>
      </trkpt>
      <trkpt lat="47.34331" lon="-1.24443">
        <ele>4.3</ele>
        <time>2014-07-06T11:35:07Z</time>
      </trkpt>
      <trkpt lat="47.34331" lon="-1.24446">
        <ele>4.1</ele>
        <time>2014-07-06T11:35:08Z</time>
      </trkpt>
      <trkpt lat="47.34331" lon="-1.2445">
        <ele>3.9</ele>
        <time>2014-07-06T11:35:11Z</time>
      </trkpt>
      <trkpt lat="47.34328" lon="-1.2446">
        <ele>3.7</ele>
        <time>2014-07-06T11:35:20Z</time>
      </trkpt>
      <trkpt lat="47.3432" lon="-1.24459">
        <ele>1</ele>
        <time>2014-07-06T11:35:30Z</time>
      </trkpt>
      <trkpt lat="47.34315" lon="-1.24468">
        <ele>-1</ele>
        <time>2014-07-06T11:35:45Z</time>
      </trkpt>
      <trkpt lat="47.34314" lon="-1.2447">
        <ele>-1</ele>
        <time>2014-07-06T11:35:46Z</time>
      </trkpt>
      <trkpt lat="47.34313" lon="-1.24472">
        <ele>-1</ele>
        <time>2014-07-06T11:35:47Z</time>
      </trkpt>
      <trkpt lat="47.34308" lon="-1.2449">
        <ele>7.5</ele>
        <time>2014-07-06T11:35:55Z</time>
      </trkpt>
      <trkpt lat="47.34304" lon="-1.245">
        <ele>7.9</ele>
        <time>2014-07-06T11:36:01Z</time>
      </trkpt>
      <trkpt lat="47.34297" lon="-1.24524">
        <ele>5.4</ele>
        <time>2014-07-06T11:36:12Z</time>
      </trkpt>
      <trkpt lat="47.34296" lon="-1.24531">
        <ele>4.9</ele>
        <time>2014-07-06T11:36:15Z</time>
      </trkpt>
      <trkpt lat="47.34296" lon="-1.24533">
        <ele>4.8</ele>
        <time>2014-07-06T11:36:16Z</time>
      </trkpt>
      <trkpt lat="47.34295" lon="-1.2454">
        <ele>4.6</ele>
        <time>2014-07-06T11:36:19Z</time>
      </trkpt>
      <trkpt lat="47.34289" lon="-1.24562">
        <ele>5</ele>
        <time>2014-07-06T11:36:27Z</time>
      </trkpt>
      <trkpt lat="47.34285" lon="-1.2458">
        <ele>6.4</ele>
        <time>2014-07-06T11:36:34Z</time>
      </trkpt>
      <trkpt lat="47.3428" lon="-1.24606">
        <ele>6.8</ele>
        <time>2014-07-06T11:36:46Z</time>
      </trkpt>
      <trkpt lat="47.34275" lon="-1.24623">
        <ele>6.3</ele>
        <time>2014-07-06T11:36:58Z</time>
      </trkpt>
      <trkpt lat="47.34275" lon="-1.24624">
        <ele>6.2</ele>
        <time>2014-07-06T11:36:59Z</time>
      </trkpt>
      <trkpt lat="47.34274" lon="-1.24626">
        <ele>6.1</ele>
        <time>2014-07-06T11:37:00Z</time>
      </trkpt>
      <trkpt lat="47.34274" lon="-1.24628">
        <ele>5.9</ele>
        <time>2014-07-06T11:37:01Z</time>
      </trkpt>
      <trkpt lat="47.34268" lon="-1.24656">
        <ele>4.8</ele>
        <time>2014-07-06T11:37:13Z</time>
      </trkpt>
      <trkpt lat="47.34264" lon="-1.24682">
        <ele>4.5</ele>
        <time>2014-07-06T11:37:24Z</time>
      </trkpt>
      <trkpt lat="47.3426" lon="-1.24697">
        <ele>4.7</ele>
        <time>2014-07-06T11:37:33Z</time>
      </trkpt>
      <trkpt lat="47.34257" lon="-1.24705">
        <ele>5.1</ele>
        <time>2014-07-06T11:37:42Z</time>
      </trkpt>
      <trkpt lat="47.34255" lon="-1.24717">
        <ele>5.9</ele>
        <time>2014-07-06T11:38:01Z</time>
      </trkpt>
      <trkpt lat="47.34253" lon="-1.24728">
        <ele>6.2</ele>
        <time>2014-07-06T11:38:12Z</time>
      </trkpt>
      <trkpt lat="47.34239" lon="-1.24758">
        <ele>4.9</ele>
        <time>2014-07-06T11:38:33Z</time>
      </trkpt>
      <trkpt lat="47.34235" lon="-1.24777">
        <ele>-1</ele>
        <time>2014-07-06T11:38:43Z</time>
      </trkpt>
      <trkpt lat="47.34229" lon="-1.24794">
        <ele>-1</ele>
        <time>2014-07-06T11:38:52Z</time>
      </trkpt>
      <trkpt lat="47.34221" lon="-1.24823">
        <ele>-1</ele>
        <time>2014-07-06T11:39:04Z</time>
      </trkpt>
      <trkpt lat="47.34215" lon="-1.24842">
        <ele>-1</ele>
        <time>2014-07-06T11:39:12Z</time>
      </trkpt>
      <trkpt lat="47.34213" lon="-1.24853">
        <ele>-1</ele>
        <time>2014-07-06T11:39:17Z</time>
      </trkpt>
      <trkpt lat="47.34212" lon="-1.24855">
        <ele>-1</ele>
        <time>2014-07-06T11:39:18Z</time>
      </trkpt>
      <trkpt lat="47.3421" lon="-1.24861">
        <ele>-1</ele>
        <time>2014-07-06T11:39:21Z</time>
      </trkpt>
      <trkpt lat="47.34208" lon="-1.24862">
        <ele>-1</ele>
        <time>2014-07-06T11:39:22Z</time>
      </trkpt>
      <trkpt lat="47.34207" lon="-1.24863">
        <ele>-1</ele>
        <time>2014-07-06T11:39:23Z</time>
      </trkpt>
      <trkpt lat="47.34199" lon="-1.24865">
        <ele>1</ele>
        <time>2014-07-06T11:39:32Z</time>
      </trkpt>
      <trkpt lat="47.34194" lon="-1.24862">
        <ele>1</ele>
        <time>2014-07-06T11:39:37Z</time>
      </trkpt>
      <trkpt lat="47.34187" lon="-1.24855">
        <ele>1</ele>
        <time>2014-07-06T11:39:42Z</time>
      </trkpt>
      <trkpt lat="47.34185" lon="-1.24853">
        <ele>1</ele>
        <time>2014-07-06T11:39:44Z</time>
      </trkpt>
      <trkpt lat="47.34185" lon="-1.24849">
        <ele>1</ele>
        <time>2014-07-06T11:39:46Z</time>
      </trkpt>
      <trkpt lat="47.34184" lon="-1.24847">
        <ele>1</ele>
        <time>2014-07-06T11:39:47Z</time>
      </trkpt>
      <trkpt lat="47.34183" lon="-1.2484">
        <ele>1</ele>
        <time>2014-07-06T11:39:51Z</time>
      </trkpt>
      <trkpt lat="47.34177" lon="-1.24832">
        <ele>-2</ele>
        <time>2014-07-06T11:39:59Z</time>
      </trkpt>
      <trkpt lat="47.34174" lon="-1.24828">
        <ele>-2</ele>
        <time>2014-07-06T11:40:01Z</time>
      </trkpt>
      <trkpt lat="47.34168" lon="-1.24825">
        <ele>-3</ele>
        <time>2014-07-06T11:40:04Z</time>
      </trkpt>
      <trkpt lat="47.34162" lon="-1.24822">
        <ele>-3</ele>
        <time>2014-07-06T11:40:07Z</time>
      </trkpt>
      <trkpt lat="47.34154" lon="-1.24821">
        <ele>-1</ele>
        <time>2014-07-06T11:40:12Z</time>
      </trkpt>
      <trkpt lat="47.34139" lon="-1.24827">
        <ele>7.2</ele>
        <time>2014-07-06T11:40:21Z</time>
      </trkpt>
      <trkpt lat="47.34136" lon="-1.24829">
        <ele>7.2</ele>
        <time>2014-07-06T11:40:23Z</time>
      </trkpt>
      <trkpt lat="47.34131" lon="-1.2483">
        <ele>7.4</ele>
        <time>2014-07-06T11:40:26Z</time>
      </trkpt>
      <trkpt lat="47.34128" lon="-1.24832">
        <ele>7.4</ele>
        <time>2014-07-06T11:40:28Z</time>
      </trkpt>
      <trkpt lat="47.3411" lon="-1.24844">
        <ele>7.6</ele>
        <time>2014-07-06T11:40:38Z</time>
      </trkpt>
      <trkpt lat="47.34078" lon="-1.24869">
        <ele>7.5</ele>
        <time>2014-07-06T11:40:58Z</time>
      </trkpt>
      <trkpt lat="47.3406" lon="-1.2488">
        <ele>6.7</ele>
        <time>2014-07-06T11:41:09Z</time>
      </trkpt>
      <trkpt lat="47.34047" lon="-1.2488">
        <ele>7</ele>
        <time>2014-07-06T11:41:19Z</time>
      </trkpt>
      <trkpt lat="47.34041" lon="-1.24876">
        <ele>7.2</ele>
        <time>2014-07-06T11:41:30Z</time>
      </trkpt>
      <trkpt lat="47.34033" lon="-1.24878">
        <ele>7.5</ele>
        <time>2014-07-06T11:41:38Z</time>
      </trkpt>
      <trkpt lat="47.34031" lon="-1.24881">
        <ele>7.6</ele>
        <time>2014-07-06T11:41:40Z</time>
      </trkpt>
      <trkpt lat="47.3402" lon="-1.24888">
        <ele>7.7</ele>
        <time>2014-07-06T11:41:49Z</time>
      </trkpt>
      <trkpt lat="47.34006" lon="-1.24895">
        <ele>6.7</ele>
        <time>2014-07-06T11:41:59Z</time>
      </trkpt>
      <trkpt lat="47.33994" lon="-1.24902">
        <ele>6.2</ele>
        <time>2014-07-06T11:42:09Z</time>
      </trkpt>
      <trkpt lat="47.33987" lon="-1.24905">
        <ele>6.2</ele>
        <time>2014-07-06T11:42:14Z</time>
      </trkpt>
      <trkpt lat="47.33978" lon="-1.24914">
        <ele>6.5</ele>
        <time>2014-07-06T11:42:22Z</time>
      </trkpt>
      <trkpt lat="47.33977" lon="-1.24915">
        <ele>6.6</ele>
        <time>2014-07-06T11:42:23Z</time>
      </trkpt>
      <trkpt lat="47.33964" lon="-1.24923">
        <ele>5.9</ele>
        <time>2014-07-06T11:42:33Z</time>
      </trkpt>
      <trkpt lat="47.33948" lon="-1.2493">
        <ele>5.1</ele>
        <time>2014-07-06T11:42:44Z</time>
      </trkpt>
      <trkpt lat="47.33939" lon="-1.24939">
        <ele>5.4</ele>
        <time>2014-07-06T11:42:53Z</time>
      </trkpt>
      <trkpt lat="47.33926" lon="-1.24947">
        <ele>6.1</ele>
        <time>2014-07-06T11:43:03Z</time>
      </trkpt>
      <trkpt lat="47.33923" lon="-1.24947">
        <ele>6.3</ele>
        <time>2014-07-06T11:43:05Z</time>
      </trkpt>
      <trkpt lat="47.3392" lon="-1.24948">
        <ele>6.5</ele>
        <time>2014-07-06T11:43:07Z</time>
      </trkpt>
      <trkpt lat="47.33917" lon="-1.24951">
        <ele>6.5</ele>
        <time>2014-07-06T11:43:09Z</time>
      </trkpt>
      <trkpt lat="47.33909" lon="-1.24955">
        <ele>6.6</ele>
        <time>2014-07-06T11:43:14Z</time>
      </trkpt>
      <trkpt lat="47.33896" lon="-1.24961">
        <ele>7.6</ele>
        <time>2014-07-06T11:43:23Z</time>
      </trkpt>
      <trkpt lat="47.33894" lon="-1.24965">
        <ele>7.9</ele>
        <time>2014-07-06T11:43:26Z</time>
      </trkpt>
      <trkpt lat="47.33894" lon="-1.24967">
        <ele>8</ele>
        <time>2014-07-06T11:43:27Z</time>
      </trkpt>
      <trkpt lat="47.33894" lon="-1.24969">
        <ele>8.1</ele>
        <time>2014-07-06T11:43:29Z</time>
      </trkpt>
      <trkpt lat="47.33899" lon="-1.2499">
        <ele>-2</ele>
        <time>2014-07-06T11:43:40Z</time>
      </trkpt>
      <trkpt lat="47.339" lon="-1.25001">
        <ele>-2</ele>
        <time>2014-07-06T11:43:45Z</time>
      </trkpt>
      <trkpt lat="47.33902" lon="-1.25007">
        <ele>-2</ele>
        <time>2014-07-06T11:43:47Z</time>
      </trkpt>
      <trkpt lat="47.33907" lon="-1.25024">
        <ele>-2</ele>
        <time>2014-07-06T11:43:53Z</time>
      </trkpt>
      <trkpt lat="47.33907" lon="-1.25036">
        <ele>-2</ele>
        <time>2014-07-06T11:43:59Z</time>
      </trkpt>
      <trkpt lat="47.33909" lon="-1.25045">
        <ele>-2</ele>
        <time>2014-07-06T11:44:04Z</time>
      </trkpt>
      <trkpt lat="47.33913" lon="-1.25054">
        <ele>-2</ele>
        <time>2014-07-06T11:44:11Z</time>
      </trkpt>
      <trkpt lat="47.33917" lon="-1.25062">
        <ele>-3</ele>
        <time>2014-07-06T11:44:16Z</time>
      </trkpt>
      <trkpt lat="47.33918" lon="-1.25064">
        <ele>-3</ele>
        <time>2014-07-06T11:44:17Z</time>
      </trkpt>
      <trkpt lat="47.33919" lon="-1.25066">
        <ele>-3</ele>
        <time>2014-07-06T11:44:18Z</time>
      </trkpt>
      <trkpt lat="47.33925" lon="-1.25077">
        <ele>-3</ele>
        <time>2014-07-06T11:44:28Z</time>
      </trkpt>
      <trkpt lat="47.33938" lon="-1.25095">
        <ele>-3</ele>
        <time>2014-07-06T11:44:38Z</time>
      </trkpt>
      <trkpt lat="47.33941" lon="-1.25098">
        <ele>-1</ele>
        <time>2014-07-06T11:44:40Z</time>
      </trkpt>
      <trkpt lat="47.33952" lon="-1.25117">
        <ele>7.5</ele>
        <time>2014-07-06T11:44:51Z</time>
      </trkpt>
      <trkpt lat="47.33962" lon="-1.25131">
        <ele>-1</ele>
        <time>2014-07-06T11:44:59Z</time>
      </trkpt>
      <trkpt lat="47.33962" lon="-1.25133">
        <ele>-1</ele>
        <time>2014-07-06T11:45:00Z</time>
      </trkpt>
      <trkpt lat="47.33963" lon="-1.25139">
        <ele>-1</ele>
        <time>2014-07-06T11:45:03Z</time>
      </trkpt>
      <trkpt lat="47.33964" lon="-1.25141">
        <ele>-1</ele>
        <time>2014-07-06T11:45:04Z</time>
      </trkpt>
      <trkpt lat="47.33966" lon="-1.25155">
        <ele>9.1</ele>
        <time>2014-07-06T11:45:13Z</time>
      </trkpt>
      <trkpt lat="47.33976" lon="-1.25171">
        <ele>-2</ele>
        <time>2014-07-06T11:45:26Z</time>
      </trkpt>
      <trkpt lat="47.33982" lon="-1.25177">
        <ele>-2</ele>
        <time>2014-07-06T11:45:34Z</time>
      </trkpt>
      <trkpt lat="47.33991" lon="-1.25177">
        <ele>-3</ele>
        <time>2014-07-06T11:45:43Z</time>
      </trkpt>
      <trkpt lat="47.33996" lon="-1.25182">
        <ele>-5</ele>
        <time>2014-07-06T11:46:00Z</time>
      </trkpt>
      <trkpt lat="47.33996" lon="-1.25189">
        <ele>-5</ele>
        <time>2014-07-06T11:46:09Z</time>
      </trkpt>
      <trkpt lat="47.33996" lon="-1.25191">
        <ele>-5</ele>
        <time>2014-07-06T11:46:22Z</time>
      </trkpt>
      <trkpt lat="47.33995" lon="-1.25201">
        <ele>-5</ele>
        <time>2014-07-06T11:47:01Z</time>
      </trkpt>
      <trkpt lat="47.33994" lon="-1.25203">
        <ele>-3</ele>
        <time>2014-07-06T11:47:03Z</time>
      </trkpt>
      <trkpt lat="47.33995" lon="-1.25207">
        <ele>-1</ele>
        <time>2014-07-06T11:47:13Z</time>
      </trkpt>
      <trkpt lat="47.33997" lon="-1.25212">
        <ele>-1</ele>
        <time>2014-07-06T11:47:25Z</time>
      </trkpt>
      <trkpt lat="47.33999" lon="-1.25216">
        <ele>-2</ele>
        <time>2014-07-06T11:47:34Z</time>
      </trkpt>
      <trkpt lat="47.33999" lon="-1.25218">
        <ele>-3</ele>
        <time>2014-07-06T11:47:35Z</time>
      </trkpt>
      <trkpt lat="47.33999" lon="-1.25225">
        <ele>-2</ele>
        <time>2014-07-06T11:47:39Z</time>
      </trkpt>
      <trkpt lat="47.33999" lon="-1.25233">
        <ele>-1</ele>
        <time>2014-07-06T11:47:47Z</time>
      </trkpt>
      <trkpt lat="47.33998" lon="-1.25243">
        <ele>-1</ele>
        <time>2014-07-06T11:47:58Z</time>
      </trkpt>
      <trkpt lat="47.34" lon="-1.25248">
        <ele>-1</ele>
        <time>2014-07-06T11:48:00Z</time>
      </trkpt>
      <trkpt lat="47.34004" lon="-1.25269">
        <ele>-1</ele>
        <time>2014-07-06T11:48:07Z</time>
      </trkpt>
      <trkpt lat="47.34006" lon="-1.25275">
        <ele>-1</ele>
        <time>2014-07-06T11:48:10Z</time>
      </trkpt>
      <trkpt lat="47.34008" lon="-1.25282">
        <ele>-1</ele>
        <time>2014-07-06T11:48:13Z</time>
      </trkpt>
      <trkpt lat="47.34009" lon="-1.25289">
        <ele>-1</ele>
        <time>2014-07-06T11:48:16Z</time>
      </trkpt>
      <trkpt lat="47.34009" lon="-1.25292">
        <ele>-2</ele>
        <time>2014-07-06T11:48:18Z</time>
      </trkpt>
      <trkpt lat="47.3401" lon="-1.253">
        <ele>-2</ele>
        <time>2014-07-06T11:48:22Z</time>
      </trkpt>
      <trkpt lat="47.3401" lon="-1.25305">
        <ele>-2</ele>
        <time>2014-07-06T11:48:24Z</time>
      </trkpt>
      <trkpt lat="47.3401" lon="-1.25308">
        <ele>-2</ele>
        <time>2014-07-06T11:48:25Z</time>
      </trkpt>
      <trkpt lat="47.3401" lon="-1.25327">
        <ele>-2</ele>
        <time>2014-07-06T11:48:34Z</time>
      </trkpt>
      <trkpt lat="47.34015" lon="-1.2534">
        <ele>-2</ele>
        <time>2014-07-06T11:48:43Z</time>
      </trkpt>
      <trkpt lat="47.34012" lon="-1.25348">
        <ele>-1</ele>
        <time>2014-07-06T11:48:48Z</time>
      </trkpt>
      <trkpt lat="47.34013" lon="-1.25361">
        <ele>-1</ele>
        <time>2014-07-06T11:48:55Z</time>
      </trkpt>
      <trkpt lat="47.34013" lon="-1.25389">
        <ele>-1</ele>
        <time>2014-07-06T11:49:04Z</time>
      </trkpt>
      <trkpt lat="47.34015" lon="-1.25402">
        <ele>-2</ele>
        <time>2014-07-06T11:49:09Z</time>
      </trkpt>
      <trkpt lat="47.34014" lon="-1.25404">
        <ele>-2</ele>
        <time>2014-07-06T11:49:10Z</time>
      </trkpt>
      <trkpt lat="47.34013" lon="-1.25412">
        <ele>-2</ele>
        <time>2014-07-06T11:49:13Z</time>
      </trkpt>
      <trkpt lat="47.34013" lon="-1.25415">
        <ele>-2</ele>
        <time>2014-07-06T11:49:14Z</time>
      </trkpt>
      <trkpt lat="47.34013" lon="-1.25424">
        <ele>-2</ele>
        <time>2014-07-06T11:49:18Z</time>
      </trkpt>
      <trkpt lat="47.34012" lon="-1.25436">
        <ele>-2</ele>
        <time>2014-07-06T11:49:22Z</time>
      </trkpt>
      <trkpt lat="47.34011" lon="-1.25442">
        <ele>-2</ele>
        <time>2014-07-06T11:49:24Z</time>
      </trkpt>
      <trkpt lat="47.34013" lon="-1.25446">
        <ele>-2</ele>
        <time>2014-07-06T11:49:31Z</time>
      </trkpt>
      <trkpt lat="47.34013" lon="-1.25446">
        <ele>-2</ele>
        <time>2014-07-06T11:49:40Z</time>
      </trkpt>
      <trkpt lat="47.3401" lon="-1.25455">
        <ele>-2</ele>
        <time>2014-07-06T11:49:54Z</time>
      </trkpt>
      <trkpt lat="47.34005" lon="-1.25477">
        <ele>-2</ele>
        <time>2014-07-06T11:50:03Z</time>
      </trkpt>
      <trkpt lat="47.34002" lon="-1.25506">
        <ele>8.7</ele>
        <time>2014-07-06T11:50:13Z</time>
      </trkpt>
      <trkpt lat="47.34002" lon="-1.25526">
        <ele>8.7</ele>
        <time>2014-07-06T11:50:21Z</time>
      </trkpt>
      <trkpt lat="47.34001" lon="-1.25532">
        <ele>8.8</ele>
        <time>2014-07-06T11:50:23Z</time>
      </trkpt>
      <trkpt lat="47.34002" lon="-1.2557">
        <ele>8.6</ele>
        <time>2014-07-06T11:50:40Z</time>
      </trkpt>
      <trkpt lat="47.34003" lon="-1.25574">
        <ele>8.5</ele>
        <time>2014-07-06T11:50:48Z</time>
      </trkpt>
      <trkpt lat="47.34005" lon="-1.25572">
        <ele>8.1</ele>
        <time>2014-07-06T11:51:15Z</time>
      </trkpt>
      <trkpt lat="47.34002" lon="-1.25571">
        <ele>8.6</ele>
        <time>2014-07-06T11:51:27Z</time>
      </trkpt>
      <trkpt lat="47.34003" lon="-1.2558">
        <ele>8.6</ele>
        <time>2014-07-06T11:51:31Z</time>
      </trkpt>
      <trkpt lat="47.34003" lon="-1.25583">
        <ele>8.5</ele>
        <time>2014-07-06T11:51:32Z</time>
      </trkpt>
      <trkpt lat="47.34004" lon="-1.25612">
        <ele>8.2</ele>
        <time>2014-07-06T11:51:42Z</time>
      </trkpt>
      <trkpt lat="47.34006" lon="-1.25655">
        <ele>8.5</ele>
        <time>2014-07-06T11:51:58Z</time>
      </trkpt>
      <trkpt lat="47.34007" lon="-1.25685">
        <ele>2</ele>
        <time>2014-07-06T11:52:10Z</time>
      </trkpt>
      <trkpt lat="47.34009" lon="-1.25693">
        <ele>2</ele>
        <time>2014-07-06T11:52:13Z</time>
      </trkpt>
      <trkpt lat="47.34009" lon="-1.25695">
        <ele>2</ele>
        <time>2014-07-06T11:52:14Z</time>
      </trkpt>
      <trkpt lat="47.34011" lon="-1.25709">
        <ele>1</ele>
        <time>2014-07-06T11:52:20Z</time>
      </trkpt>
      <trkpt lat="47.34011" lon="-1.25732">
        <ele>-2</ele>
        <time>2014-07-06T11:52:29Z</time>
      </trkpt>
      <trkpt lat="47.3401" lon="-1.25741">
        <ele>-2</ele>
        <time>2014-07-06T11:52:32Z</time>
      </trkpt>
      <trkpt lat="47.3401" lon="-1.25744">
        <ele>-2</ele>
        <time>2014-07-06T11:52:33Z</time>
      </trkpt>
      <trkpt lat="47.34009" lon="-1.25748">
        <ele>-2</ele>
        <time>2014-07-06T11:52:35Z</time>
      </trkpt>
      <trkpt lat="47.34009" lon="-1.25758">
        <ele>-2</ele>
        <time>2014-07-06T11:52:39Z</time>
      </trkpt>
      <trkpt lat="47.34008" lon="-1.2576">
        <ele>-2</ele>
        <time>2014-07-06T11:52:40Z</time>
      </trkpt>
      <trkpt lat="47.34005" lon="-1.25782">
        <ele>-2</ele>
        <time>2014-07-06T11:52:48Z</time>
      </trkpt>
      <trkpt lat="47.34004" lon="-1.25808">
        <ele>-2</ele>
        <time>2014-07-06T11:52:58Z</time>
      </trkpt>
      <trkpt lat="47.34006" lon="-1.25854">
        <ele>-2</ele>
        <time>2014-07-06T11:53:17Z</time>
      </trkpt>
      <trkpt lat="47.34006" lon="-1.25859">
        <ele>-2</ele>
        <time>2014-07-06T11:53:19Z</time>
      </trkpt>
      <trkpt lat="47.34005" lon="-1.25863">
        <ele>-2</ele>
        <time>2014-07-06T11:53:21Z</time>
      </trkpt>
      <trkpt lat="47.34005" lon="-1.25868">
        <ele>-2</ele>
        <time>2014-07-06T11:53:23Z</time>
      </trkpt>
      <trkpt lat="47.34004" lon="-1.25873">
        <ele>-2</ele>
        <time>2014-07-06T11:53:25Z</time>
      </trkpt>
      <trkpt lat="47.34003" lon="-1.25878">
        <ele>-1</ele>
        <time>2014-07-06T11:53:27Z</time>
      </trkpt>
      <trkpt lat="47.34001" lon="-1.25885">
        <ele>-1</ele>
        <time>2014-07-06T11:53:30Z</time>
      </trkpt>
      <trkpt lat="47.34" lon="-1.2589">
        <ele>-1</ele>
        <time>2014-07-06T11:53:32Z</time>
      </trkpt>
      <trkpt lat="47.33994" lon="-1.25936">
        <ele>8.3</ele>
        <time>2014-07-06T11:53:50Z</time>
      </trkpt>
      <trkpt lat="47.3399" lon="-1.2596">
        <ele>8</ele>
        <time>2014-07-06T11:53:59Z</time>
      </trkpt>
      <trkpt lat="47.33987" lon="-1.2598">
        <ele>7.7</ele>
        <time>2014-07-06T11:54:07Z</time>
      </trkpt>
      <trkpt lat="47.33985" lon="-1.25991">
        <ele>7.5</ele>
        <time>2014-07-06T11:54:13Z</time>
      </trkpt>
      <trkpt lat="47.33979" lon="-1.26021">
        <ele>7.8</ele>
        <time>2014-07-06T11:54:24Z</time>
      </trkpt>
      <trkpt lat="47.33978" lon="-1.26042">
        <ele>7.9</ele>
        <time>2014-07-06T11:54:33Z</time>
      </trkpt>
      <trkpt lat="47.33976" lon="-1.26069">
        <ele>8.5</ele>
        <time>2014-07-06T11:54:45Z</time>
      </trkpt>
      <trkpt lat="47.33974" lon="-1.2609">
        <ele>8.5</ele>
        <time>2014-07-06T11:54:53Z</time>
      </trkpt>
      <trkpt lat="47.33974" lon="-1.26148">
        <ele>7.8</ele>
        <time>2014-07-06T11:55:14Z</time>
      </trkpt>
      <trkpt lat="47.33971" lon="-1.26167">
        <ele>8</ele>
        <time>2014-07-06T11:55:23Z</time>
      </trkpt>
      <trkpt lat="47.33964" lon="-1.26175">
        <ele>8.5</ele>
        <time>2014-07-06T11:55:33Z</time>
      </trkpt>
      <trkpt lat="47.33957" lon="-1.26178">
        <ele>8.7</ele>
        <time>2014-07-06T11:55:38Z</time>
      </trkpt>
      <trkpt lat="47.33939" lon="-1.26181">
        <ele>1</ele>
        <time>2014-07-06T11:55:50Z</time>
      </trkpt>
      <trkpt lat="47.33937" lon="-1.26181">
        <ele>1</ele>
        <time>2014-07-06T11:55:51Z</time>
      </trkpt>
      <trkpt lat="47.33936" lon="-1.26181">
        <ele>1</ele>
        <time>2014-07-06T11:55:52Z</time>
      </trkpt>
      <trkpt lat="47.33929" lon="-1.26186">
        <ele>3</ele>
        <time>2014-07-06T11:56:00Z</time>
      </trkpt>
      <trkpt lat="47.33928" lon="-1.26186">
        <ele>3</ele>
        <time>2014-07-06T11:56:01Z</time>
      </trkpt>
      <trkpt lat="47.33924" lon="-1.26184">
        <ele>4</ele>
        <time>2014-07-06T11:56:04Z</time>
      </trkpt>
      <trkpt lat="47.33918" lon="-1.26184">
        <ele>5</ele>
        <time>2014-07-06T11:56:12Z</time>
      </trkpt>
      <trkpt lat="47.3391" lon="-1.2618">
        <ele>7</ele>
        <time>2014-07-06T11:56:22Z</time>
      </trkpt>
      <trkpt lat="47.33901" lon="-1.26176">
        <ele>10</ele>
        <time>2014-07-06T11:56:33Z</time>
      </trkpt>
      <trkpt lat="47.339" lon="-1.26177">
        <ele>10</ele>
        <time>2014-07-06T11:56:43Z</time>
      </trkpt>
      <trkpt lat="47.33888" lon="-1.26179">
        <ele>12</ele>
        <time>2014-07-06T11:56:53Z</time>
      </trkpt>
      <trkpt lat="47.33887" lon="-1.2618">
        <ele>13</ele>
        <time>2014-07-06T11:56:55Z</time>
      </trkpt>
      <trkpt lat="47.33881" lon="-1.2619">
        <ele>15</ele>
        <time>2014-07-06T11:57:05Z</time>
      </trkpt>
      <trkpt lat="47.33879" lon="-1.262">
        <ele>17</ele>
        <time>2014-07-06T11:57:15Z</time>
      </trkpt>
      <trkpt lat="47.33871" lon="-1.26211">
        <ele>20</ele>
        <time>2014-07-06T11:57:28Z</time>
      </trkpt>
      <trkpt lat="47.33861" lon="-1.26204">
        <ele>22</ele>
        <time>2014-07-06T11:57:39Z</time>
      </trkpt>
      <trkpt lat="47.3386" lon="-1.26203">
        <ele>23</ele>
        <time>2014-07-06T11:57:40Z</time>
      </trkpt>
      <trkpt lat="47.33858" lon="-1.26184">
        <ele>25</ele>
        <time>2014-07-06T11:57:53Z</time>
      </trkpt>
      <trkpt lat="47.33854" lon="-1.26178">
        <ele>26</ele>
        <time>2014-07-06T11:57:57Z</time>
      </trkpt>
      <trkpt lat="47.3385" lon="-1.26173">
        <ele>28</ele>
        <time>2014-07-06T11:58:05Z</time>
      </trkpt>
      <trkpt lat="47.33844" lon="-1.26174">
        <ele>29</ele>
        <time>2014-07-06T11:58:13Z</time>
      </trkpt>
      <trkpt lat="47.33838" lon="-1.26183">
        <ele>31</ele>
        <time>2014-07-06T11:58:21Z</time>
      </trkpt>
      <trkpt lat="47.33832" lon="-1.262">
        <ele>32</ele>
        <time>2014-07-06T11:58:33Z</time>
      </trkpt>
      <trkpt lat="47.33839" lon="-1.26199">
        <ele>32</ele>
        <time>2014-07-06T11:58:47Z</time>
      </trkpt>
      <trkpt lat="47.33827" lon="-1.26214">
        <ele>33</ele>
        <time>2014-07-06T11:59:00Z</time>
      </trkpt>
      <trkpt lat="47.33821" lon="-1.26232">
        <ele>35</ele>
        <time>2014-07-06T11:59:10Z</time>
      </trkpt>
      <trkpt lat="47.33821" lon="-1.26254">
        <ele>37</ele>
        <time>2014-07-06T11:59:20Z</time>
      </trkpt>
      <trkpt lat="47.33824" lon="-1.2627">
        <ele>39</ele>
        <time>2014-07-06T11:59:32Z</time>
      </trkpt>
      <trkpt lat="47.3381" lon="-1.26272">
        <ele>41</ele>
        <time>2014-07-06T11:59:44Z</time>
      </trkpt>
      <trkpt lat="47.33805" lon="-1.26289">
        <ele>44</ele>
        <time>2014-07-06T11:59:57Z</time>
      </trkpt>
      <trkpt lat="47.33804" lon="-1.26308">
        <ele>47</ele>
        <time>2014-07-06T12:00:09Z</time>
      </trkpt>
      <trkpt lat="47.33802" lon="-1.2632">
        <ele>50</ele>
        <time>2014-07-06T12:00:19Z</time>
      </trkpt>
      <trkpt lat="47.33804" lon="-1.2633">
        <ele>51</ele>
        <time>2014-07-06T12:00:24Z</time>
      </trkpt>
      <trkpt lat="47.33808" lon="-1.26341">
        <ele>52</ele>
        <time>2014-07-06T12:00:32Z</time>
      </trkpt>
      <trkpt lat="47.3381" lon="-1.2637">
        <ele>55</ele>
        <time>2014-07-06T12:00:48Z</time>
      </trkpt>
      <trkpt lat="47.33811" lon="-1.26368">
        <ele>56</ele>
        <time>2014-07-06T12:01:00Z</time>
      </trkpt>
      <trkpt lat="47.338" lon="-1.26369">
        <ele>56</ele>
        <time>2014-07-06T12:01:16Z</time>
      </trkpt>
      <trkpt lat="47.33795" lon="-1.26368">
        <ele>56</ele>
        <time>2014-07-06T12:01:36Z</time>
      </trkpt>
      <trkpt lat="47.33794" lon="-1.26364">
        <ele>56</ele>
        <time>2014-07-06T12:01:50Z</time>
      </trkpt>
      <trkpt lat="47.33791" lon="-1.26364">
        <ele>56</ele>
        <time>2014-07-06T12:01:52Z</time>
      </trkpt>
      <trkpt lat="47.33774" lon="-1.26367">
        <ele>57</ele>
        <time>2014-07-06T12:02:05Z</time>
      </trkpt>
      <trkpt lat="47.33773" lon="-1.26368">
        <ele>58</ele>
        <time>2014-07-06T12:02:06Z</time>
      </trkpt>
      <trkpt lat="47.33771" lon="-1.26372">
        <ele>58</ele>
        <time>2014-07-06T12:02:08Z</time>
      </trkpt>
      <trkpt lat="47.33765" lon="-1.26394">
        <ele>59</ele>
        <time>2014-07-06T12:02:19Z</time>
      </trkpt>
      <trkpt lat="47.33753" lon="-1.26397">
        <ele>61</ele>
        <time>2014-07-06T12:02:29Z</time>
      </trkpt>
      <trkpt lat="47.33747" lon="-1.26397">
        <ele>61</ele>
        <time>2014-07-06T12:02:36Z</time>
      </trkpt>
      <trkpt lat="47.33747" lon="-1.26406">
        <ele>62</ele>
        <time>2014-07-06T12:02:43Z</time>
      </trkpt>
      <trkpt lat="47.33745" lon="-1.26408">
        <ele>62</ele>
        <time>2014-07-06T12:02:44Z</time>
      </trkpt>
      <trkpt lat="47.33739" lon="-1.26423">
        <ele>62</ele>
        <time>2014-07-06T12:02:53Z</time>
      </trkpt>
      <trkpt lat="47.33736" lon="-1.26448">
        <ele>62</ele>
        <time>2014-07-06T12:03:04Z</time>
      </trkpt>
      <trkpt lat="47.33736" lon="-1.26451">
        <ele>62</ele>
        <time>2014-07-06T12:03:05Z</time>
      </trkpt>
      <trkpt lat="47.33737" lon="-1.26454">
        <ele>62</ele>
        <time>2014-07-06T12:03:06Z</time>
      </trkpt>
      <trkpt lat="47.33739" lon="-1.26466">
        <ele>62</ele>
        <time>2014-07-06T12:03:12Z</time>
      </trkpt>
      <trkpt lat="47.33742" lon="-1.26475">
        <ele>62</ele>
        <time>2014-07-06T12:03:17Z</time>
      </trkpt>
      <trkpt lat="47.33742" lon="-1.26477">
        <ele>63</ele>
        <time>2014-07-06T12:03:18Z</time>
      </trkpt>
      <trkpt lat="47.33742" lon="-1.26496">
        <ele>63</ele>
        <time>2014-07-06T12:03:26Z</time>
      </trkpt>
      <trkpt lat="47.3374" lon="-1.26518">
        <ele>63</ele>
        <time>2014-07-06T12:03:35Z</time>
      </trkpt>
      <trkpt lat="47.3374" lon="-1.26539">
        <ele>63</ele>
        <time>2014-07-06T12:03:43Z</time>
      </trkpt>
      <trkpt lat="47.33737" lon="-1.26543">
        <ele>64</ele>
        <time>2014-07-06T12:03:47Z</time>
      </trkpt>
      <trkpt lat="47.3373" lon="-1.26549">
        <ele>64</ele>
        <time>2014-07-06T12:04:00Z</time>
      </trkpt>
      <trkpt lat="47.33734" lon="-1.2655">
        <ele>64</ele>
        <time>2014-07-06T12:04:14Z</time>
      </trkpt>
      <trkpt lat="47.33737" lon="-1.26552">
        <ele>64</ele>
        <time>2014-07-06T12:04:16Z</time>
      </trkpt>
      <trkpt lat="47.33738" lon="-1.26554">
        <ele>64</ele>
        <time>2014-07-06T12:04:17Z</time>
      </trkpt>
      <trkpt lat="47.33741" lon="-1.26561">
        <ele>64</ele>
        <time>2014-07-06T12:04:22Z</time>
      </trkpt>
      <trkpt lat="47.33741" lon="-1.26565">
        <ele>64</ele>
        <time>2014-07-06T12:04:24Z</time>
      </trkpt>
      <trkpt lat="47.3374" lon="-1.26568">
        <ele>64</ele>
        <time>2014-07-06T12:04:25Z</time>
      </trkpt>
      <trkpt lat="47.33739" lon="-1.26581">
        <ele>64</ele>
        <time>2014-07-06T12:04:33Z</time>
      </trkpt>
      <trkpt lat="47.3374" lon="-1.26606">
        <ele>64</ele>
        <time>2014-07-06T12:04:43Z</time>
      </trkpt>
      <trkpt lat="47.33734" lon="-1.26628">
        <ele>64</ele>
        <time>2014-07-06T12:04:51Z</time>
      </trkpt>
      <trkpt lat="47.33734" lon="-1.26631">
        <ele>64</ele>
        <time>2014-07-06T12:04:52Z</time>
      </trkpt>
      <trkpt lat="47.33733" lon="-1.26635">
        <ele>64</ele>
        <time>2014-07-06T12:04:54Z</time>
      </trkpt>
      <trkpt lat="47.33729" lon="-1.26644">
        <ele>64</ele>
        <time>2014-07-06T12:04:58Z</time>
      </trkpt>
      <trkpt lat="47.33724" lon="-1.26667">
        <ele>64</ele>
        <time>2014-07-06T12:05:10Z</time>
      </trkpt>
      <trkpt lat="47.33722" lon="-1.2668">
        <ele>64</ele>
        <time>2014-07-06T12:05:18Z</time>
      </trkpt>
      <trkpt lat="47.33723" lon="-1.26705">
        <ele>64</ele>
        <time>2014-07-06T12:05:28Z</time>
      </trkpt>
      <trkpt lat="47.33724" lon="-1.26707">
        <ele>64</ele>
        <time>2014-07-06T12:05:29Z</time>
      </trkpt>
      <trkpt lat="47.33725" lon="-1.26712">
        <ele>64</ele>
        <time>2014-07-06T12:05:31Z</time>
      </trkpt>
      <trkpt lat="47.33724" lon="-1.2672">
        <ele>64</ele>
        <time>2014-07-06T12:05:34Z</time>
      </trkpt>
      <trkpt lat="47.33724" lon="-1.26724">
        <ele>64</ele>
        <time>2014-07-06T12:05:36Z</time>
      </trkpt>
      <trkpt lat="47.33723" lon="-1.26726">
        <ele>64</ele>
        <time>2014-07-06T12:05:37Z</time>
      </trkpt>
      <trkpt lat="47.33724" lon="-1.26729">
        <ele>63</ele>
        <time>2014-07-06T12:05:38Z</time>
      </trkpt>
      <trkpt lat="47.33723" lon="-1.26734">
        <ele>63</ele>
        <time>2014-07-06T12:05:49Z</time>
      </trkpt>
      <trkpt lat="47.33723" lon="-1.26736">
        <ele>63</ele>
        <time>2014-07-06T12:05:51Z</time>
      </trkpt>
      <trkpt lat="47.33721" lon="-1.2674">
        <ele>63</ele>
        <time>2014-07-06T12:05:53Z</time>
      </trkpt>
      <trkpt lat="47.33709" lon="-1.26757">
        <ele>63</ele>
        <time>2014-07-06T12:06:03Z</time>
      </trkpt>
      <trkpt lat="47.33703" lon="-1.26771">
        <ele>62</ele>
        <time>2014-07-06T12:06:10Z</time>
      </trkpt>
      <trkpt lat="47.33702" lon="-1.26773">
        <ele>62</ele>
        <time>2014-07-06T12:06:11Z</time>
      </trkpt>
      <trkpt lat="47.33695" lon="-1.26797">
        <ele>62</ele>
        <time>2014-07-06T12:06:22Z</time>
      </trkpt>
      <trkpt lat="47.33685" lon="-1.26811">
        <ele>62</ele>
        <time>2014-07-06T12:06:29Z</time>
      </trkpt>
      <trkpt lat="47.33679" lon="-1.26816">
        <ele>62</ele>
        <time>2014-07-06T12:06:33Z</time>
      </trkpt>
      <trkpt lat="47.33661" lon="-1.26833">
        <ele>61</ele>
        <time>2014-07-06T12:06:44Z</time>
      </trkpt>
      <trkpt lat="47.33656" lon="-1.26839">
        <ele>61</ele>
        <time>2014-07-06T12:06:48Z</time>
      </trkpt>
      <trkpt lat="47.33642" lon="-1.26867">
        <ele>59</ele>
        <time>2014-07-06T12:07:01Z</time>
      </trkpt>
      <trkpt lat="47.33639" lon="-1.26871">
        <ele>59</ele>
        <time>2014-07-06T12:07:03Z</time>
      </trkpt>
      <trkpt lat="47.33638" lon="-1.26873">
        <ele>59</ele>
        <time>2014-07-06T12:07:04Z</time>
      </trkpt>
      <trkpt lat="47.33637" lon="-1.26875">
        <ele>59</ele>
        <time>2014-07-06T12:07:05Z</time>
      </trkpt>
      <trkpt lat="47.3363" lon="-1.26887">
        <ele>58</ele>
        <time>2014-07-06T12:07:11Z</time>
      </trkpt>
      <trkpt lat="47.33628" lon="-1.2689">
        <ele>58</ele>
        <time>2014-07-06T12:07:12Z</time>
      </trkpt>
      <trkpt lat="47.33627" lon="-1.26891">
        <ele>57</ele>
        <time>2014-07-06T12:07:13Z</time>
      </trkpt>
      <trkpt lat="47.33623" lon="-1.26899">
        <ele>57</ele>
        <time>2014-07-06T12:07:17Z</time>
      </trkpt>
      <trkpt lat="47.3362" lon="-1.26904">
        <ele>56</ele>
        <time>2014-07-06T12:07:19Z</time>
      </trkpt>
      <trkpt lat="47.33615" lon="-1.26913">
        <ele>55</ele>
        <time>2014-07-06T12:07:23Z</time>
      </trkpt>
      <trkpt lat="47.33603" lon="-1.2694">
        <ele>52</ele>
        <time>2014-07-06T12:07:35Z</time>
      </trkpt>
      <trkpt lat="47.33578" lon="-1.26976">
        <ele>49</ele>
        <time>2014-07-06T12:07:54Z</time>
      </trkpt>
      <trkpt lat="47.33571" lon="-1.26995">
        <ele>48</ele>
        <time>2014-07-06T12:08:03Z</time>
      </trkpt>
      <trkpt lat="47.33568" lon="-1.27007">
        <ele>45</ele>
        <time>2014-07-06T12:08:11Z</time>
      </trkpt>
      <trkpt lat="47.33561" lon="-1.27027">
        <ele>42</ele>
        <time>2014-07-06T12:08:21Z</time>
      </trkpt>
      <trkpt lat="47.33558" lon="-1.27032">
        <ele>42</ele>
        <time>2014-07-06T12:08:23Z</time>
      </trkpt>
      <trkpt lat="47.33546" lon="-1.27053">
        <ele>40</ele>
        <time>2014-07-06T12:08:32Z</time>
      </trkpt>
      <trkpt lat="47.3354" lon="-1.27062">
        <ele>38</ele>
        <time>2014-07-06T12:08:36Z</time>
      </trkpt>
      <trkpt lat="47.33539" lon="-1.27065">
        <ele>38</ele>
        <time>2014-07-06T12:08:37Z</time>
      </trkpt>
      <trkpt lat="47.33536" lon="-1.2707">
        <ele>38</ele>
        <time>2014-07-06T12:08:39Z</time>
      </trkpt>
      <trkpt lat="47.33524" lon="-1.27087">
        <ele>35</ele>
        <time>2014-07-06T12:08:48Z</time>
      </trkpt>
      <trkpt lat="47.33515" lon="-1.27099">
        <ele>33</ele>
        <time>2014-07-06T12:08:56Z</time>
      </trkpt>
      <trkpt lat="47.33506" lon="-1.27115">
        <ele>31</ele>
        <time>2014-07-06T12:09:04Z</time>
      </trkpt>
      <trkpt lat="47.33505" lon="-1.27119">
        <ele>30</ele>
        <time>2014-07-06T12:09:06Z</time>
      </trkpt>
      <trkpt lat="47.335" lon="-1.2713">
        <ele>28</ele>
        <time>2014-07-06T12:09:12Z</time>
      </trkpt>
      <trkpt lat="47.335" lon="-1.27132">
        <ele>28</ele>
        <time>2014-07-06T12:09:13Z</time>
      </trkpt>
      <trkpt lat="47.33496" lon="-1.27147">
        <ele>26</ele>
        <time>2014-07-06T12:09:19Z</time>
      </trkpt>
      <trkpt lat="47.33495" lon="-1.27173">
        <ele>23</ele>
        <time>2014-07-06T12:09:29Z</time>
      </trkpt>
      <trkpt lat="47.33493" lon="-1.27182">
        <ele>22</ele>
        <time>2014-07-06T12:09:33Z</time>
      </trkpt>
      <trkpt lat="47.33492" lon="-1.27195">
        <ele>21</ele>
        <time>2014-07-06T12:09:38Z</time>
      </trkpt>
      <trkpt lat="47.33476" lon="-1.27241">
        <ele>16</ele>
        <time>2014-07-06T12:10:01Z</time>
      </trkpt>
      <trkpt lat="47.33477" lon="-1.2726">
        <ele>14</ele>
        <time>2014-07-06T12:10:09Z</time>
      </trkpt>
      <trkpt lat="47.33483" lon="-1.27275">
        <ele>13</ele>
        <time>2014-07-06T12:10:17Z</time>
      </trkpt>
      <trkpt lat="47.33493" lon="-1.27281">
        <ele>13</ele>
        <time>2014-07-06T12:10:24Z</time>
      </trkpt>
      <trkpt lat="47.33495" lon="-1.27282">
        <ele>13</ele>
        <time>2014-07-06T12:10:25Z</time>
      </trkpt>
      <trkpt lat="47.33511" lon="-1.27293">
        <ele>12</ele>
        <time>2014-07-06T12:10:34Z</time>
      </trkpt>
      <trkpt lat="47.33512" lon="-1.27295">
        <ele>12</ele>
        <time>2014-07-06T12:10:35Z</time>
      </trkpt>
      <trkpt lat="47.33528" lon="-1.27302">
        <ele>11</ele>
        <time>2014-07-06T12:10:44Z</time>
      </trkpt>
      <trkpt lat="47.33539" lon="-1.27311">
        <ele>11</ele>
        <time>2014-07-06T12:10:52Z</time>
      </trkpt>
      <trkpt lat="47.33543" lon="-1.27313">
        <ele>11</ele>
        <time>2014-07-06T12:10:55Z</time>
      </trkpt>
      <trkpt lat="47.33545" lon="-1.27315">
        <ele>11</ele>
        <time>2014-07-06T12:10:56Z</time>
      </trkpt>
      <trkpt lat="47.33551" lon="-1.27322">
        <ele>11</ele>
        <time>2014-07-06T12:11:00Z</time>
      </trkpt>
      <trkpt lat="47.3356" lon="-1.27336">
        <ele>10</ele>
        <time>2014-07-06T12:11:08Z</time>
      </trkpt>
      <trkpt lat="47.33576" lon="-1.27373">
        <ele>10</ele>
        <time>2014-07-06T12:11:25Z</time>
      </trkpt>
      <trkpt lat="47.33579" lon="-1.27377">
        <ele>10</ele>
        <time>2014-07-06T12:11:27Z</time>
      </trkpt>
      <trkpt lat="47.3358" lon="-1.2738">
        <ele>10</ele>
        <time>2014-07-06T12:11:28Z</time>
      </trkpt>
      <trkpt lat="47.33582" lon="-1.27385">
        <ele>10</ele>
        <time>2014-07-06T12:11:30Z</time>
      </trkpt>
      <trkpt lat="47.33583" lon="-1.27387">
        <ele>10</ele>
        <time>2014-07-06T12:11:31Z</time>
      </trkpt>
      <trkpt lat="47.33586" lon="-1.27395">
        <ele>9</ele>
        <time>2014-07-06T12:11:35Z</time>
      </trkpt>
      <trkpt lat="47.3359" lon="-1.27402">
        <ele>9</ele>
        <time>2014-07-06T12:11:39Z</time>
      </trkpt>
      <trkpt lat="47.33591" lon="-1.27405">
        <ele>9</ele>
        <time>2014-07-06T12:11:40Z</time>
      </trkpt>
      <trkpt lat="47.33596" lon="-1.27421">
        <ele>9</ele>
        <time>2014-07-06T12:11:45Z</time>
      </trkpt>
      <trkpt lat="47.33598" lon="-1.27426">
        <ele>9</ele>
        <time>2014-07-06T12:11:47Z</time>
      </trkpt>
      <trkpt lat="47.33599" lon="-1.2743">
        <ele>9</ele>
        <time>2014-07-06T12:11:49Z</time>
      </trkpt>
      <trkpt lat="47.33601" lon="-1.27439">
        <ele>9</ele>
        <time>2014-07-06T12:11:53Z</time>
      </trkpt>
      <trkpt lat="47.33601" lon="-1.27447">
        <ele>9</ele>
        <time>2014-07-06T12:11:58Z</time>
      </trkpt>
      <trkpt lat="47.33606" lon="-1.27467">
        <ele>9</ele>
        <time>2014-07-06T12:12:07Z</time>
      </trkpt>
      <trkpt lat="47.33611" lon="-1.2752">
        <ele>9</ele>
        <time>2014-07-06T12:12:23Z</time>
      </trkpt>
      <trkpt lat="47.33609" lon="-1.27528">
        <ele>8</ele>
        <time>2014-07-06T12:12:27Z</time>
      </trkpt>
      <trkpt lat="47.33608" lon="-1.27546">
        <ele>8</ele>
        <time>2014-07-06T12:12:34Z</time>
      </trkpt>
      <trkpt lat="47.33605" lon="-1.27565">
        <ele>8</ele>
        <time>2014-07-06T12:12:42Z</time>
      </trkpt>
      <trkpt lat="47.33602" lon="-1.27573">
        <ele>9</ele>
        <time>2014-07-06T12:12:45Z</time>
      </trkpt>
      <trkpt lat="47.33601" lon="-1.27576">
        <ele>9</ele>
        <time>2014-07-06T12:12:46Z</time>
      </trkpt>
      <trkpt lat="47.33598" lon="-1.27591">
        <ele>10</ele>
        <time>2014-07-06T12:12:54Z</time>
      </trkpt>
      <trkpt lat="47.33591" lon="-1.27611">
        <ele>10</ele>
        <time>2014-07-06T12:13:03Z</time>
      </trkpt>
      <trkpt lat="47.33584" lon="-1.27632">
        <ele>9</ele>
        <time>2014-07-06T12:13:13Z</time>
      </trkpt>
      <trkpt lat="47.33583" lon="-1.27656">
        <ele>7</ele>
        <time>2014-07-06T12:13:22Z</time>
      </trkpt>
      <trkpt lat="47.33584" lon="-1.27661">
        <ele>7</ele>
        <time>2014-07-06T12:13:24Z</time>
      </trkpt>
      <trkpt lat="47.33587" lon="-1.27667">
        <ele>7</ele>
        <time>2014-07-06T12:13:27Z</time>
      </trkpt>
      <trkpt lat="47.33589" lon="-1.27671">
        <ele>7</ele>
        <time>2014-07-06T12:13:29Z</time>
      </trkpt>
      <trkpt lat="47.33591" lon="-1.27676">
        <ele>6</ele>
        <time>2014-07-06T12:13:31Z</time>
      </trkpt>
      <trkpt lat="47.33592" lon="-1.27678">
        <ele>6</ele>
        <time>2014-07-06T12:13:32Z</time>
      </trkpt>
      <trkpt lat="47.33594" lon="-1.27683">
        <ele>6</ele>
        <time>2014-07-06T12:13:35Z</time>
      </trkpt>
      <trkpt lat="47.33599" lon="-1.27688">
        <ele>6</ele>
        <time>2014-07-06T12:13:39Z</time>
      </trkpt>
      <trkpt lat="47.336" lon="-1.2769">
        <ele>6</ele>
        <time>2014-07-06T12:13:40Z</time>
      </trkpt>
      <trkpt lat="47.33604" lon="-1.27693">
        <ele>6</ele>
        <time>2014-07-06T12:13:43Z</time>
      </trkpt>
      <trkpt lat="47.33619" lon="-1.27704">
        <ele>6</ele>
        <time>2014-07-06T12:13:53Z</time>
      </trkpt>
      <trkpt lat="47.33634" lon="-1.27717">
        <ele>5</ele>
        <time>2014-07-06T12:14:03Z</time>
      </trkpt>
      <trkpt lat="47.33646" lon="-1.27729">
        <ele>4</ele>
        <time>2014-07-06T12:14:12Z</time>
      </trkpt>
      <trkpt lat="47.33651" lon="-1.27732">
        <ele>4</ele>
        <time>2014-07-06T12:14:15Z</time>
      </trkpt>
      <trkpt lat="47.33653" lon="-1.27735">
        <ele>4</ele>
        <time>2014-07-06T12:14:17Z</time>
      </trkpt>
      <trkpt lat="47.33657" lon="-1.27744">
        <ele>3</ele>
        <time>2014-07-06T12:14:19Z</time>
      </trkpt>
      <trkpt lat="47.3366" lon="-1.27746">
        <ele>3</ele>
        <time>2014-07-06T12:14:21Z</time>
      </trkpt>
      <trkpt lat="47.33678" lon="-1.27756">
        <ele>3</ele>
        <time>2014-07-06T12:14:32Z</time>
      </trkpt>
      <trkpt lat="47.33697" lon="-1.27754">
        <ele>3</ele>
        <time>2014-07-06T12:14:44Z</time>
      </trkpt>
      <trkpt lat="47.33713" lon="-1.27745">
        <ele>3</ele>
        <time>2014-07-06T12:14:54Z</time>
      </trkpt>
      <trkpt lat="47.33731" lon="-1.27741">
        <ele>2</ele>
        <time>2014-07-06T12:15:05Z</time>
      </trkpt>
      <trkpt lat="47.33737" lon="-1.27744">
        <ele>2</ele>
        <time>2014-07-06T12:15:09Z</time>
      </trkpt>
      <trkpt lat="47.33741" lon="-1.27747">
        <ele>2</ele>
        <time>2014-07-06T12:15:18Z</time>
      </trkpt>
      <trkpt lat="47.33743" lon="-1.27745">
        <ele>2</ele>
        <time>2014-07-06T12:15:19Z</time>
      </trkpt>
      <trkpt lat="47.3376" lon="-1.27736">
        <ele>2</ele>
        <time>2014-07-06T12:15:29Z</time>
      </trkpt>
      <trkpt lat="47.33766" lon="-1.27733">
        <ele>3</ele>
        <time>2014-07-06T12:15:33Z</time>
      </trkpt>
      <trkpt lat="47.33767" lon="-1.27733">
        <ele>3</ele>
        <time>2014-07-06T12:15:34Z</time>
      </trkpt>
      <trkpt lat="47.33783" lon="-1.27742">
        <ele>4</ele>
        <time>2014-07-06T12:15:45Z</time>
      </trkpt>
      <trkpt lat="47.33791" lon="-1.27744">
        <ele>4</ele>
        <time>2014-07-06T12:15:50Z</time>
      </trkpt>
      <trkpt lat="47.33797" lon="-1.27747">
        <ele>4</ele>
        <time>2014-07-06T12:15:54Z</time>
      </trkpt>
      <trkpt lat="47.33821" lon="-1.27754">
        <ele>4</ele>
        <time>2014-07-06T12:16:08Z</time>
      </trkpt>
      <trkpt lat="47.33835" lon="-1.2776">
        <ele>4</ele>
        <time>2014-07-06T12:16:16Z</time>
      </trkpt>
      <trkpt lat="47.33874" lon="-1.2777">
        <ele>5</ele>
        <time>2014-07-06T12:16:36Z</time>
      </trkpt>
      <trkpt lat="47.33883" lon="-1.27772">
        <ele>5</ele>
        <time>2014-07-06T12:16:41Z</time>
      </trkpt>
      <trkpt lat="47.339" lon="-1.27779">
        <ele>5</ele>
        <time>2014-07-06T12:16:53Z</time>
      </trkpt>
      <trkpt lat="47.33909" lon="-1.27784">
        <ele>5</ele>
        <time>2014-07-06T12:17:00Z</time>
      </trkpt>
      <trkpt lat="47.33909" lon="-1.27786">
        <ele>5</ele>
        <time>2014-07-06T12:17:01Z</time>
      </trkpt>
      <trkpt lat="47.33916" lon="-1.27794">
        <ele>6</ele>
        <time>2014-07-06T12:17:11Z</time>
      </trkpt>
      <trkpt lat="47.33918" lon="-1.27794">
        <ele>6</ele>
        <time>2014-07-06T12:17:14Z</time>
      </trkpt>
      <trkpt lat="47.33919" lon="-1.27794">
        <ele>6</ele>
        <time>2014-07-06T12:17:15Z</time>
      </trkpt>
      <trkpt lat="47.33942" lon="-1.278">
        <ele>6</ele>
        <time>2014-07-06T12:17:28Z</time>
      </trkpt>
      <trkpt lat="47.33962" lon="-1.27807">
        <ele>7</ele>
        <time>2014-07-06T12:17:40Z</time>
      </trkpt>
      <trkpt lat="47.33977" lon="-1.27811">
        <ele>7</ele>
        <time>2014-07-06T12:17:49Z</time>
      </trkpt>
      <trkpt lat="47.33989" lon="-1.27816">
        <ele>9</ele>
        <time>2014-07-06T12:17:56Z</time>
      </trkpt>
      <trkpt lat="47.33995" lon="-1.27818">
        <ele>8</ele>
        <time>2014-07-06T12:18:03Z</time>
      </trkpt>
      <trkpt lat="47.33996" lon="-1.27814">
        <ele>8</ele>
        <time>2014-07-06T12:18:11Z</time>
      </trkpt>
      <trkpt lat="47.33996" lon="-1.27812">
        <ele>8</ele>
        <time>2014-07-06T12:18:19Z</time>
      </trkpt>
      <trkpt lat="47.33999" lon="-1.2781">
        <ele>7</ele>
        <time>2014-07-06T12:18:22Z</time>
      </trkpt>
      <trkpt lat="47.34" lon="-1.27811">
        <ele>7</ele>
        <time>2014-07-06T12:18:31Z</time>
      </trkpt>
      <trkpt lat="47.34001" lon="-1.27814">
        <ele>7</ele>
        <time>2014-07-06T12:18:48Z</time>
      </trkpt>
      <trkpt lat="47.34002" lon="-1.27813">
        <ele>6</ele>
        <time>2014-07-06T12:18:49Z</time>
      </trkpt>
      <trkpt lat="47.34006" lon="-1.27815">
        <ele>6</ele>
        <time>2014-07-06T12:18:51Z</time>
      </trkpt>
      <trkpt lat="47.34012" lon="-1.27815">
        <ele>6</ele>
        <time>2014-07-06T12:18:54Z</time>
      </trkpt>
      <trkpt lat="47.34034" lon="-1.27823">
        <ele>6</ele>
        <time>2014-07-06T12:19:08Z</time>
      </trkpt>
      <trkpt lat="47.34052" lon="-1.27828">
        <ele>6</ele>
        <time>2014-07-06T12:19:18Z</time>
      </trkpt>
      <trkpt lat="47.34058" lon="-1.27831">
        <ele>6</ele>
        <time>2014-07-06T12:19:22Z</time>
      </trkpt>
      <trkpt lat="47.34059" lon="-1.27833">
        <ele>6</ele>
        <time>2014-07-06T12:19:23Z</time>
      </trkpt>
      <trkpt lat="47.34062" lon="-1.27839">
        <ele>8</ele>
        <time>2014-07-06T12:19:33Z</time>
      </trkpt>
      <trkpt lat="47.34062" lon="-1.2784">
        <ele>8</ele>
        <time>2014-07-06T12:19:38Z</time>
      </trkpt>
      <trkpt lat="47.34133" lon="-1.2786">
        <ele>7</ele>
        <time>2014-07-06T12:20:21Z</time>
      </trkpt>
      <trkpt lat="47.34133" lon="-1.27855">
        <ele>7</ele>
        <time>2014-07-06T12:20:26Z</time>
      </trkpt>
      <trkpt lat="47.34133" lon="-1.27853">
        <ele>7</ele>
        <time>2014-07-06T12:20:34Z</time>
      </trkpt>
      <trkpt lat="47.34135" lon="-1.27855">
        <ele>7</ele>
        <time>2014-07-06T12:20:40Z</time>
      </trkpt>
      <trkpt lat="47.34154" lon="-1.2786">
        <ele>8</ele>
        <time>2014-07-06T12:20:52Z</time>
      </trkpt>
      <trkpt lat="47.34175" lon="-1.27866">
        <ele>8</ele>
        <time>2014-07-06T12:21:04Z</time>
      </trkpt>
      <trkpt lat="47.34188" lon="-1.27871">
        <ele>8</ele>
        <time>2014-07-06T12:21:14Z</time>
      </trkpt>
      <trkpt lat="47.34208" lon="-1.27877">
        <ele>9</ele>
        <time>2014-07-06T12:21:25Z</time>
      </trkpt>
      <trkpt lat="47.34227" lon="-1.27882">
        <ele>9</ele>
        <time>2014-07-06T12:21:35Z</time>
      </trkpt>
      <trkpt lat="47.3425" lon="-1.27888">
        <ele>8</ele>
        <time>2014-07-06T12:21:48Z</time>
      </trkpt>
      <trkpt lat="47.34274" lon="-1.27896">
        <ele>8</ele>
        <time>2014-07-06T12:22:03Z</time>
      </trkpt>
      <trkpt lat="47.34275" lon="-1.27897">
        <ele>8</ele>
        <time>2014-07-06T12:22:04Z</time>
      </trkpt>
      <trkpt lat="47.34293" lon="-1.27903">
        <ele>8</ele>
        <time>2014-07-06T12:22:15Z</time>
      </trkpt>
      <trkpt lat="47.34311" lon="-1.27908">
        <ele>8</ele>
        <time>2014-07-06T12:22:25Z</time>
      </trkpt>
      <trkpt lat="47.34327" lon="-1.27913">
        <ele>8</ele>
        <time>2014-07-06T12:22:34Z</time>
      </trkpt>
      <trkpt lat="47.34357" lon="-1.27924">
        <ele>9</ele>
        <time>2014-07-06T12:22:52Z</time>
      </trkpt>
      <trkpt lat="47.34374" lon="-1.2793">
        <ele>9</ele>
        <time>2014-07-06T12:23:03Z</time>
      </trkpt>
      <trkpt lat="47.3438" lon="-1.27932">
        <ele>9</ele>
        <time>2014-07-06T12:23:11Z</time>
      </trkpt>
      <trkpt lat="47.34387" lon="-1.27935">
        <ele>8</ele>
        <time>2014-07-06T12:23:16Z</time>
      </trkpt>
      <trkpt lat="47.3439" lon="-1.27935">
        <ele>8</ele>
        <time>2014-07-06T12:23:18Z</time>
      </trkpt>
      <trkpt lat="47.34412" lon="-1.27942">
        <ele>8</ele>
        <time>2014-07-06T12:23:31Z</time>
      </trkpt>
      <trkpt lat="47.34426" lon="-1.27953">
        <ele>8</ele>
        <time>2014-07-06T12:23:40Z</time>
      </trkpt>
      <trkpt lat="47.34439" lon="-1.27962">
        <ele>9</ele>
        <time>2014-07-06T12:23:49Z</time>
      </trkpt>
      <trkpt lat="47.34455" lon="-1.27974">
        <ele>10</ele>
        <time>2014-07-06T12:23:59Z</time>
      </trkpt>
      <trkpt lat="47.34462" lon="-1.27977">
        <ele>10</ele>
        <time>2014-07-06T12:24:07Z</time>
      </trkpt>
      <trkpt lat="47.34472" lon="-1.27982">
        <ele>8</ele>
        <time>2014-07-06T12:24:17Z</time>
      </trkpt>
      <trkpt lat="47.34486" lon="-1.27995">
        <ele>4</ele>
        <time>2014-07-06T12:24:36Z</time>
      </trkpt>
      <trkpt lat="47.34488" lon="-1.27997">
        <ele>4</ele>
        <time>2014-07-06T12:24:38Z</time>
      </trkpt>
      <trkpt lat="47.34495" lon="-1.28">
        <ele>3</ele>
        <time>2014-07-06T12:24:45Z</time>
      </trkpt>
      <trkpt lat="47.34497" lon="-1.28">
        <ele>3</ele>
        <time>2014-07-06T12:24:46Z</time>
      </trkpt>
      <trkpt lat="47.34498" lon="-1.28">
        <ele>3</ele>
        <time>2014-07-06T12:24:47Z</time>
      </trkpt>
      <trkpt lat="47.34501" lon="-1.28001">
        <ele>3</ele>
        <time>2014-07-06T12:24:49Z</time>
      </trkpt>
      <trkpt lat="47.34508" lon="-1.27999">
        <ele>2</ele>
        <time>2014-07-06T12:24:56Z</time>
      </trkpt>
      <trkpt lat="47.34516" lon="-1.28001">
        <ele>2</ele>
        <time>2014-07-06T12:25:02Z</time>
      </trkpt>
      <trkpt lat="47.34517" lon="-1.28001">
        <ele>3</ele>
        <time>2014-07-06T12:25:03Z</time>
      </trkpt>
      <trkpt lat="47.34518" lon="-1.28">
        <ele>3</ele>
        <time>2014-07-06T12:25:04Z</time>
      </trkpt>
      <trkpt lat="47.34518" lon="-1.27963">
        <ele>3</ele>
        <time>2014-07-06T12:25:20Z</time>
      </trkpt>
      <trkpt lat="47.34518" lon="-1.27948">
        <ele>3</ele>
        <time>2014-07-06T12:25:25Z</time>
      </trkpt>
      <trkpt lat="47.34518" lon="-1.27945">
        <ele>3</ele>
        <time>2014-07-06T12:25:26Z</time>
      </trkpt>
      <trkpt lat="47.34519" lon="-1.2794">
        <ele>3</ele>
        <time>2014-07-06T12:25:28Z</time>
      </trkpt>
      <trkpt lat="47.34519" lon="-1.27934">
        <ele>3</ele>
        <time>2014-07-06T12:25:30Z</time>
      </trkpt>
      <trkpt lat="47.3452" lon="-1.27929">
        <ele>3</ele>
        <time>2014-07-06T12:25:32Z</time>
      </trkpt>
      <trkpt lat="47.3452" lon="-1.27914">
        <ele>3</ele>
        <time>2014-07-06T12:25:41Z</time>
      </trkpt>
      <trkpt lat="47.34524" lon="-1.279">
        <ele>3</ele>
        <time>2014-07-06T12:25:48Z</time>
      </trkpt>
      <trkpt lat="47.34526" lon="-1.27897">
        <ele>3</ele>
        <time>2014-07-06T12:25:50Z</time>
      </trkpt>
      <trkpt lat="47.34529" lon="-1.2789">
        <ele>3</ele>
        <time>2014-07-06T12:25:53Z</time>
      </trkpt>
      <trkpt lat="47.34532" lon="-1.27876">
        <ele>3</ele>
        <time>2014-07-06T12:25:59Z</time>
      </trkpt>
      <trkpt lat="47.34536" lon="-1.27846">
        <ele>3</ele>
        <time>2014-07-06T12:26:11Z</time>
      </trkpt>
      <trkpt lat="47.34536" lon="-1.27838">
        <ele>3</ele>
        <time>2014-07-06T12:26:14Z</time>
      </trkpt>
      <trkpt lat="47.34538" lon="-1.27813">
        <ele>3</ele>
        <time>2014-07-06T12:26:24Z</time>
      </trkpt>
      <trkpt lat="47.34537" lon="-1.27791">
        <ele>2</ele>
        <time>2014-07-06T12:26:33Z</time>
      </trkpt>
      <trkpt lat="47.34536" lon="-1.27783">
        <ele>2</ele>
        <time>2014-07-06T12:26:37Z</time>
      </trkpt>
      <trkpt lat="47.34536" lon="-1.27768">
        <ele>2</ele>
        <time>2014-07-06T12:26:43Z</time>
      </trkpt>
      <trkpt lat="47.34537" lon="-1.27741">
        <ele>2</ele>
        <time>2014-07-06T12:26:53Z</time>
      </trkpt>
      <trkpt lat="47.34537" lon="-1.27733">
        <ele>2</ele>
        <time>2014-07-06T12:26:56Z</time>
      </trkpt>
      <trkpt lat="47.34538" lon="-1.2773">
        <ele>2</ele>
        <time>2014-07-06T12:26:57Z</time>
      </trkpt>
      <trkpt lat="47.34543" lon="-1.27705">
        <ele>2</ele>
        <time>2014-07-06T12:27:06Z</time>
      </trkpt>
      <trkpt lat="47.34544" lon="-1.27697">
        <ele>2</ele>
        <time>2014-07-06T12:27:09Z</time>
      </trkpt>
      <trkpt lat="47.34546" lon="-1.27694">
        <ele>2</ele>
        <time>2014-07-06T12:27:11Z</time>
      </trkpt>
      <trkpt lat="47.34546" lon="-1.27691">
        <ele>2</ele>
        <time>2014-07-06T12:27:12Z</time>
      </trkpt>
      <trkpt lat="47.34548" lon="-1.27687">
        <ele>2</ele>
        <time>2014-07-06T12:27:14Z</time>
      </trkpt>
      <trkpt lat="47.34555" lon="-1.27664">
        <ele>2</ele>
        <time>2014-07-06T12:27:24Z</time>
      </trkpt>
      <trkpt lat="47.34556" lon="-1.27639">
        <ele>2</ele>
        <time>2014-07-06T12:27:34Z</time>
      </trkpt>
      <trkpt lat="47.34552" lon="-1.27615">
        <ele>2</ele>
        <time>2014-07-06T12:27:44Z</time>
      </trkpt>
      <trkpt lat="47.3455" lon="-1.27592">
        <ele>2</ele>
        <time>2014-07-06T12:27:52Z</time>
      </trkpt>
      <trkpt lat="47.3455" lon="-1.2759">
        <ele>2</ele>
        <time>2014-07-06T12:27:53Z</time>
      </trkpt>
      <trkpt lat="47.34551" lon="-1.27585">
        <ele>2</ele>
        <time>2014-07-06T12:27:55Z</time>
      </trkpt>
      <trkpt lat="47.34554" lon="-1.27548">
        <ele>2</ele>
        <time>2014-07-06T12:28:10Z</time>
      </trkpt>
      <trkpt lat="47.34555" lon="-1.27547">
        <ele>2</ele>
        <time>2014-07-06T12:28:11Z</time>
      </trkpt>
      <trkpt lat="47.34556" lon="-1.27524">
        <ele>2</ele>
        <time>2014-07-06T12:28:21Z</time>
      </trkpt>
      <trkpt lat="47.34556" lon="-1.27519">
        <ele>2</ele>
        <time>2014-07-06T12:28:23Z</time>
      </trkpt>
      <trkpt lat="47.34556" lon="-1.27515">
        <ele>2</ele>
        <time>2014-07-06T12:28:24Z</time>
      </trkpt>
      <trkpt lat="47.34556" lon="-1.2749">
        <ele>2</ele>
        <time>2014-07-06T12:28:32Z</time>
      </trkpt>
      <trkpt lat="47.34554" lon="-1.27465">
        <ele>2</ele>
        <time>2014-07-06T12:28:41Z</time>
      </trkpt>
      <trkpt lat="47.34555" lon="-1.27452">
        <ele>2</ele>
        <time>2014-07-06T12:28:45Z</time>
      </trkpt>
      <trkpt lat="47.34556" lon="-1.27449">
        <ele>2</ele>
        <time>2014-07-06T12:28:46Z</time>
      </trkpt>
      <trkpt lat="47.34559" lon="-1.27439">
        <ele>2</ele>
        <time>2014-07-06T12:28:50Z</time>
      </trkpt>
      <trkpt lat="47.34559" lon="-1.27437">
        <ele>2</ele>
        <time>2014-07-06T12:28:51Z</time>
      </trkpt>
      <trkpt lat="47.34562" lon="-1.27427">
        <ele>2</ele>
        <time>2014-07-06T12:28:56Z</time>
      </trkpt>
      <trkpt lat="47.34564" lon="-1.27426">
        <ele>2</ele>
        <time>2014-07-06T12:28:57Z</time>
      </trkpt>
      <trkpt lat="47.34565" lon="-1.27425">
        <ele>2</ele>
        <time>2014-07-06T12:28:58Z</time>
      </trkpt>
      <trkpt lat="47.34585" lon="-1.27425">
        <ele>2</ele>
        <time>2014-07-06T12:29:09Z</time>
      </trkpt>
      <trkpt lat="47.34622" lon="-1.27439">
        <ele>2</ele>
        <time>2014-07-06T12:29:30Z</time>
      </trkpt>
      <trkpt lat="47.34626" lon="-1.27442">
        <ele>2</ele>
        <time>2014-07-06T12:29:32Z</time>
      </trkpt>
      <trkpt lat="47.34628" lon="-1.27442">
        <ele>2</ele>
        <time>2014-07-06T12:29:33Z</time>
      </trkpt>
      <trkpt lat="47.34629" lon="-1.27443">
        <ele>2</ele>
        <time>2014-07-06T12:29:34Z</time>
      </trkpt>
      <trkpt lat="47.34633" lon="-1.27444">
        <ele>2</ele>
        <time>2014-07-06T12:29:36Z</time>
      </trkpt>
      <trkpt lat="47.34635" lon="-1.27444">
        <ele>2</ele>
        <time>2014-07-06T12:29:37Z</time>
      </trkpt>
      <trkpt lat="47.34638" lon="-1.27445">
        <ele>2</ele>
        <time>2014-07-06T12:29:39Z</time>
      </trkpt>
      <trkpt lat="47.3464" lon="-1.27446">
        <ele>2</ele>
        <time>2014-07-06T12:29:40Z</time>
      </trkpt>
      <trkpt lat="47.34644" lon="-1.27446">
        <ele>2</ele>
        <time>2014-07-06T12:29:42Z</time>
      </trkpt>
      <trkpt lat="47.34646" lon="-1.27447">
        <ele>2</ele>
        <time>2014-07-06T12:29:43Z</time>
      </trkpt>
      <trkpt lat="47.34655" lon="-1.27451">
        <ele>2</ele>
        <time>2014-07-06T12:29:48Z</time>
      </trkpt>
      <trkpt lat="47.34665" lon="-1.27457">
        <ele>2</ele>
        <time>2014-07-06T12:29:55Z</time>
      </trkpt>
      <trkpt lat="47.3467" lon="-1.27458">
        <ele>3</ele>
        <time>2014-07-06T12:29:57Z</time>
      </trkpt>
      <trkpt lat="47.34685" lon="-1.27463">
        <ele>3</ele>
        <time>2014-07-06T12:30:08Z</time>
      </trkpt>
      <trkpt lat="47.34707" lon="-1.27462">
        <ele>3</ele>
        <time>2014-07-06T12:30:19Z</time>
      </trkpt>
      <trkpt lat="47.3471" lon="-1.27461">
        <ele>3</ele>
        <time>2014-07-06T12:30:21Z</time>
      </trkpt>
      <trkpt lat="47.34712" lon="-1.2746">
        <ele>3</ele>
        <time>2014-07-06T12:30:22Z</time>
      </trkpt>
      <trkpt lat="47.34729" lon="-1.27463">
        <ele>3</ele>
        <time>2014-07-06T12:30:34Z</time>
      </trkpt>
      <trkpt lat="47.34741" lon="-1.27463">
        <ele>2</ele>
        <time>2014-07-06T12:30:42Z</time>
      </trkpt>
      <trkpt lat="47.34747" lon="-1.27459">
        <ele>2</ele>
        <time>2014-07-06T12:30:47Z</time>
      </trkpt>
      <trkpt lat="47.3475" lon="-1.27434">
        <ele>2</ele>
        <time>2014-07-06T12:30:57Z</time>
      </trkpt>
      <trkpt lat="47.34753" lon="-1.27407">
        <ele>2</ele>
        <time>2014-07-06T12:31:07Z</time>
      </trkpt>
      <trkpt lat="47.34753" lon="-1.274">
        <ele>2</ele>
        <time>2014-07-06T12:31:10Z</time>
      </trkpt>
      <trkpt lat="47.34753" lon="-1.27397">
        <ele>2</ele>
        <time>2014-07-06T12:31:11Z</time>
      </trkpt>
      <trkpt lat="47.34753" lon="-1.27395">
        <ele>2</ele>
        <time>2014-07-06T12:31:12Z</time>
      </trkpt>
      <trkpt lat="47.34754" lon="-1.2739">
        <ele>2</ele>
        <time>2014-07-06T12:31:14Z</time>
      </trkpt>
      <trkpt lat="47.34757" lon="-1.27371">
        <ele>3</ele>
        <time>2014-07-06T12:31:21Z</time>
      </trkpt>
      <trkpt lat="47.34758" lon="-1.27358">
        <ele>3</ele>
        <time>2014-07-06T12:31:26Z</time>
      </trkpt>
      <trkpt lat="47.34759" lon="-1.27328">
        <ele>3</ele>
        <time>2014-07-06T12:31:37Z</time>
      </trkpt>
      <trkpt lat="47.34763" lon="-1.27296">
        <ele>3</ele>
        <time>2014-07-06T12:31:49Z</time>
      </trkpt>
      <trkpt lat="47.34765" lon="-1.27249">
        <ele>3</ele>
        <time>2014-07-06T12:32:07Z</time>
      </trkpt>
      <trkpt lat="47.34771" lon="-1.27191">
        <ele>4</ele>
        <time>2014-07-06T12:32:29Z</time>
      </trkpt>
      <trkpt lat="47.34771" lon="-1.27183">
        <ele>4</ele>
        <time>2014-07-06T12:32:32Z</time>
      </trkpt>
      <trkpt lat="47.34771" lon="-1.2718">
        <ele>4</ele>
        <time>2014-07-06T12:32:33Z</time>
      </trkpt>
      <trkpt lat="47.34772" lon="-1.27173">
        <ele>4</ele>
        <time>2014-07-06T12:32:36Z</time>
      </trkpt>
      <trkpt lat="47.34772" lon="-1.2717">
        <ele>4</ele>
        <time>2014-07-06T12:32:37Z</time>
      </trkpt>
      <trkpt lat="47.34772" lon="-1.27167">
        <ele>4</ele>
        <time>2014-07-06T12:32:38Z</time>
      </trkpt>
      <trkpt lat="47.34772" lon="-1.27165">
        <ele>4</ele>
        <time>2014-07-06T12:32:39Z</time>
      </trkpt>
      <trkpt lat="47.34773" lon="-1.27154">
        <ele>4</ele>
        <time>2014-07-06T12:32:44Z</time>
      </trkpt>
      <trkpt lat="47.34774" lon="-1.27147">
        <ele>4</ele>
        <time>2014-07-06T12:32:47Z</time>
      </trkpt>
      <trkpt lat="47.34775" lon="-1.27145">
        <ele>4</ele>
        <time>2014-07-06T12:32:48Z</time>
      </trkpt>
      <trkpt lat="47.34776" lon="-1.27135">
        <ele>4</ele>
        <time>2014-07-06T12:32:52Z</time>
      </trkpt>
      <trkpt lat="47.34776" lon="-1.2713">
        <ele>4</ele>
        <time>2014-07-06T12:32:54Z</time>
      </trkpt>
      <trkpt lat="47.34777" lon="-1.27124">
        <ele>4</ele>
        <time>2014-07-06T12:32:56Z</time>
      </trkpt>
      <trkpt lat="47.3478" lon="-1.27098">
        <ele>2</ele>
        <time>2014-07-06T12:33:05Z</time>
      </trkpt>
      <trkpt lat="47.34781" lon="-1.27085">
        <ele>2</ele>
        <time>2014-07-06T12:33:10Z</time>
      </trkpt>
      <trkpt lat="47.3478" lon="-1.27082">
        <ele>2</ele>
        <time>2014-07-06T12:33:11Z</time>
      </trkpt>
      <trkpt lat="47.3478" lon="-1.27074">
        <ele>2</ele>
        <time>2014-07-06T12:33:14Z</time>
      </trkpt>
      <trkpt lat="47.34781" lon="-1.27065">
        <ele>2</ele>
        <time>2014-07-06T12:33:17Z</time>
      </trkpt>
      <trkpt lat="47.34788" lon="-1.27032">
        <ele>2</ele>
        <time>2014-07-06T12:33:30Z</time>
      </trkpt>
      <trkpt lat="47.34791" lon="-1.27009">
        <ele>2</ele>
        <time>2014-07-06T12:33:39Z</time>
      </trkpt>
      <trkpt lat="47.34791" lon="-1.27004">
        <ele>2</ele>
        <time>2014-07-06T12:33:41Z</time>
      </trkpt>
      <trkpt lat="47.34791" lon="-1.27001">
        <ele>2</ele>
        <time>2014-07-06T12:33:42Z</time>
      </trkpt>
      <trkpt lat="47.34793" lon="-1.26995">
        <ele>2</ele>
        <time>2014-07-06T12:33:45Z</time>
      </trkpt>
      <trkpt lat="47.348" lon="-1.2695">
        <ele>2</ele>
        <time>2014-07-06T12:34:01Z</time>
      </trkpt>
      <trkpt lat="47.34805" lon="-1.26926">
        <ele>2</ele>
        <time>2014-07-06T12:34:11Z</time>
      </trkpt>
      <trkpt lat="47.3481" lon="-1.2689">
        <ele>2</ele>
        <time>2014-07-06T12:34:25Z</time>
      </trkpt>
      <trkpt lat="47.3481" lon="-1.26889">
        <ele>2</ele>
        <time>2014-07-06T12:34:26Z</time>
      </trkpt>
      <trkpt lat="47.3481" lon="-1.26887">
        <ele>2</ele>
        <time>2014-07-06T12:34:27Z</time>
      </trkpt>
      <trkpt lat="47.34813" lon="-1.2687">
        <ele>2</ele>
        <time>2014-07-06T12:34:33Z</time>
      </trkpt>
      <trkpt lat="47.34818" lon="-1.26846">
        <ele>2</ele>
        <time>2014-07-06T12:34:42Z</time>
      </trkpt>
      <trkpt lat="47.34818" lon="-1.2683">
        <ele>2</ele>
        <time>2014-07-06T12:34:48Z</time>
      </trkpt>
      <trkpt lat="47.34818" lon="-1.26823">
        <ele>2</ele>
        <time>2014-07-06T12:34:51Z</time>
      </trkpt>
      <trkpt lat="47.34817" lon="-1.26821">
        <ele>2</ele>
        <time>2014-07-06T12:34:52Z</time>
      </trkpt>
      <trkpt lat="47.34817" lon="-1.26818">
        <ele>2</ele>
        <time>2014-07-06T12:34:53Z</time>
      </trkpt>
      <trkpt lat="47.34819" lon="-1.26808">
        <ele>2</ele>
        <time>2014-07-06T12:34:57Z</time>
      </trkpt>
      <trkpt lat="47.34819" lon="-1.26805">
        <ele>2</ele>
        <time>2014-07-06T12:34:58Z</time>
      </trkpt>
      <trkpt lat="47.34819" lon="-1.26802">
        <ele>2</ele>
        <time>2014-07-06T12:34:59Z</time>
      </trkpt>
      <trkpt lat="47.34819" lon="-1.26799">
        <ele>2</ele>
        <time>2014-07-06T12:35:00Z</time>
      </trkpt>
      <trkpt lat="47.3482" lon="-1.26797">
        <ele>2</ele>
        <time>2014-07-06T12:35:01Z</time>
      </trkpt>
      <trkpt lat="47.3482" lon="-1.26794">
        <ele>2</ele>
        <time>2014-07-06T12:35:02Z</time>
      </trkpt>
      <trkpt lat="47.34821" lon="-1.26791">
        <ele>2</ele>
        <time>2014-07-06T12:35:03Z</time>
      </trkpt>
      <trkpt lat="47.34823" lon="-1.26786">
        <ele>2</ele>
        <time>2014-07-06T12:35:05Z</time>
      </trkpt>
      <trkpt lat="47.34827" lon="-1.26777">
        <ele>2</ele>
        <time>2014-07-06T12:35:08Z</time>
      </trkpt>
      <trkpt lat="47.3483" lon="-1.26774">
        <ele>2</ele>
        <time>2014-07-06T12:35:10Z</time>
      </trkpt>
      <trkpt lat="47.34845" lon="-1.26755">
        <ele>2</ele>
        <time>2014-07-06T12:35:20Z</time>
      </trkpt>
      <trkpt lat="47.34849" lon="-1.26751">
        <ele>2</ele>
        <time>2014-07-06T12:35:23Z</time>
      </trkpt>
      <trkpt lat="47.3485" lon="-1.2675">
        <ele>2</ele>
        <time>2014-07-06T12:35:24Z</time>
      </trkpt>
      <trkpt lat="47.34857" lon="-1.26745">
        <ele>2</ele>
        <time>2014-07-06T12:35:28Z</time>
      </trkpt>
      <trkpt lat="47.34859" lon="-1.26743">
        <ele>2</ele>
        <time>2014-07-06T12:35:29Z</time>
      </trkpt>
      <trkpt lat="47.34877" lon="-1.26728">
        <ele>2</ele>
        <time>2014-07-06T12:35:41Z</time>
      </trkpt>
      <trkpt lat="47.34884" lon="-1.26722">
        <ele>2</ele>
        <time>2014-07-06T12:35:45Z</time>
      </trkpt>
      <trkpt lat="47.34885" lon="-1.2672">
        <ele>2</ele>
        <time>2014-07-06T12:35:46Z</time>
      </trkpt>
      <trkpt lat="47.34903" lon="-1.26699">
        <ele>4</ele>
        <time>2014-07-06T12:35:58Z</time>
      </trkpt>
      <trkpt lat="47.34917" lon="-1.26688">
        <ele>4</ele>
        <time>2014-07-06T12:36:07Z</time>
      </trkpt>
      <trkpt lat="47.34932" lon="-1.26673">
        <ele>5</ele>
        <time>2014-07-06T12:36:18Z</time>
      </trkpt>
      <trkpt lat="47.34944" lon="-1.26659">
        <ele>6</ele>
        <time>2014-07-06T12:36:27Z</time>
      </trkpt>
      <trkpt lat="47.3495" lon="-1.26653">
        <ele>7</ele>
        <time>2014-07-06T12:36:31Z</time>
      </trkpt>
      <trkpt lat="47.34955" lon="-1.26637">
        <ele>9</ele>
        <time>2014-07-06T12:36:39Z</time>
      </trkpt>
      <trkpt lat="47.34959" lon="-1.26636">
        <ele>10</ele>
        <time>2014-07-06T12:36:47Z</time>
      </trkpt>
      <trkpt lat="47.34958" lon="-1.26635">
        <ele>10</ele>
        <time>2014-07-06T12:36:48Z</time>
      </trkpt>
      <trkpt lat="47.34957" lon="-1.26634">
        <ele>10</ele>
        <time>2014-07-06T12:36:49Z</time>
      </trkpt>
      <trkpt lat="47.34951" lon="-1.26609">
        <ele>10</ele>
        <time>2014-07-06T12:37:01Z</time>
      </trkpt>
      <trkpt lat="47.34952" lon="-1.2661">
        <ele>10</ele>
        <time>2014-07-06T12:37:10Z</time>
      </trkpt>
      <trkpt lat="47.34953" lon="-1.2661">
        <ele>10</ele>
        <time>2014-07-06T12:37:19Z</time>
      </trkpt>
      <trkpt lat="47.34951" lon="-1.26599">
        <ele>10</ele>
        <time>2014-07-06T12:37:33Z</time>
      </trkpt>
      <trkpt lat="47.34945" lon="-1.26569">
        <ele>9</ele>
        <time>2014-07-06T12:37:44Z</time>
      </trkpt>
      <trkpt lat="47.34942" lon="-1.26541">
        <ele>9</ele>
        <time>2014-07-06T12:37:54Z</time>
      </trkpt>
      <trkpt lat="47.3494" lon="-1.26532">
        <ele>8</ele>
        <time>2014-07-06T12:37:57Z</time>
      </trkpt>
      <trkpt lat="47.3494" lon="-1.26529">
        <ele>8</ele>
        <time>2014-07-06T12:37:58Z</time>
      </trkpt>
      <trkpt lat="47.34938" lon="-1.26518">
        <ele>8</ele>
        <time>2014-07-06T12:38:02Z</time>
      </trkpt>
      <trkpt lat="47.34935" lon="-1.26486">
        <ele>8</ele>
        <time>2014-07-06T12:38:14Z</time>
      </trkpt>
      <trkpt lat="47.34929" lon="-1.26427">
        <ele>7</ele>
        <time>2014-07-06T12:38:36Z</time>
      </trkpt>
      <trkpt lat="47.34927" lon="-1.26374">
        <ele>7</ele>
        <time>2014-07-06T12:38:56Z</time>
      </trkpt>
      <trkpt lat="47.34924" lon="-1.2633">
        <ele>6</ele>
        <time>2014-07-06T12:39:22Z</time>
      </trkpt>
      <trkpt lat="47.3492" lon="-1.26299">
        <ele>6</ele>
        <time>2014-07-06T12:39:43Z</time>
      </trkpt>
      <trkpt lat="47.34923" lon="-1.26293">
        <ele>6</ele>
        <time>2014-07-06T12:39:58Z</time>
      </trkpt>
      <trkpt lat="47.34922" lon="-1.26291">
        <ele>6</ele>
        <time>2014-07-06T12:39:59Z</time>
      </trkpt>
      <trkpt lat="47.34921" lon="-1.26288">
        <ele>6</ele>
        <time>2014-07-06T12:40:00Z</time>
      </trkpt>
      <trkpt lat="47.34921" lon="-1.26286">
        <ele>6</ele>
        <time>2014-07-06T12:40:01Z</time>
      </trkpt>
      <trkpt lat="47.34919" lon="-1.26282">
        <ele>6</ele>
        <time>2014-07-06T12:40:03Z</time>
      </trkpt>
      <trkpt lat="47.34907" lon="-1.26237">
        <ele>4</ele>
        <time>2014-07-06T12:40:23Z</time>
      </trkpt>
      <trkpt lat="47.34901" lon="-1.26219">
        <ele>4</ele>
        <time>2014-07-06T12:40:32Z</time>
      </trkpt>
      <trkpt lat="47.34883" lon="-1.26171">
        <ele>4</ele>
        <time>2014-07-06T12:40:54Z</time>
      </trkpt>
      <trkpt lat="47.34872" lon="-1.26146">
        <ele>4</ele>
        <time>2014-07-06T12:41:04Z</time>
      </trkpt>
      <trkpt lat="47.34857" lon="-1.26096">
        <ele>4</ele>
        <time>2014-07-06T12:41:24Z</time>
      </trkpt>
      <trkpt lat="47.34853" lon="-1.26082">
        <ele>4</ele>
        <time>2014-07-06T12:41:30Z</time>
      </trkpt>
      <trkpt lat="47.34846" lon="-1.26067">
        <ele>4</ele>
        <time>2014-07-06T12:41:35Z</time>
      </trkpt>
      <trkpt lat="47.34843" lon="-1.26059">
        <ele>4</ele>
        <time>2014-07-06T12:41:37Z</time>
      </trkpt>
      <trkpt lat="47.34835" lon="-1.26033">
        <ele>4</ele>
        <time>2014-07-06T12:41:46Z</time>
      </trkpt>
      <trkpt lat="47.34831" lon="-1.2601">
        <ele>4</ele>
        <time>2014-07-06T12:41:56Z</time>
      </trkpt>
      <trkpt lat="47.34825" lon="-1.25982">
        <ele>3</ele>
        <time>2014-07-06T12:42:06Z</time>
      </trkpt>
      <trkpt lat="47.34824" lon="-1.25961">
        <ele>3</ele>
        <time>2014-07-06T12:42:15Z</time>
      </trkpt>
      <trkpt lat="47.3482" lon="-1.25942">
        <ele>3</ele>
        <time>2014-07-06T12:42:21Z</time>
      </trkpt>
      <trkpt lat="47.34812" lon="-1.25914">
        <ele>3</ele>
        <time>2014-07-06T12:42:30Z</time>
      </trkpt>
      <trkpt lat="47.34809" lon="-1.25901">
        <ele>3</ele>
        <time>2014-07-06T12:42:35Z</time>
      </trkpt>
      <trkpt lat="47.34807" lon="-1.25894">
        <ele>3</ele>
        <time>2014-07-06T12:42:38Z</time>
      </trkpt>
      <trkpt lat="47.34806" lon="-1.25892">
        <ele>3</ele>
        <time>2014-07-06T12:42:39Z</time>
      </trkpt>
      <trkpt lat="47.34799" lon="-1.25866">
        <ele>3</ele>
        <time>2014-07-06T12:42:48Z</time>
      </trkpt>
      <trkpt lat="47.34798" lon="-1.25859">
        <ele>3</ele>
        <time>2014-07-06T12:42:51Z</time>
      </trkpt>
      <trkpt lat="47.34795" lon="-1.25846">
        <ele>3</ele>
        <time>2014-07-06T12:42:56Z</time>
      </trkpt>
      <trkpt lat="47.34793" lon="-1.25843">
        <ele>3</ele>
        <time>2014-07-06T12:42:57Z</time>
      </trkpt>
      <trkpt lat="47.3479" lon="-1.25822">
        <ele>3</ele>
        <time>2014-07-06T12:43:05Z</time>
      </trkpt>
      <trkpt lat="47.34786" lon="-1.258">
        <ele>3</ele>
        <time>2014-07-06T12:43:14Z</time>
      </trkpt>
      <trkpt lat="47.34783" lon="-1.25777">
        <ele>3</ele>
        <time>2014-07-06T12:43:23Z</time>
      </trkpt>
      <trkpt lat="47.3478" lon="-1.25757">
        <ele>3</ele>
        <time>2014-07-06T12:43:31Z</time>
      </trkpt>
      <trkpt lat="47.34776" lon="-1.25735">
        <ele>3</ele>
        <time>2014-07-06T12:43:39Z</time>
      </trkpt>
      <trkpt lat="47.34775" lon="-1.25719">
        <ele>3</ele>
        <time>2014-07-06T12:43:45Z</time>
      </trkpt>
      <trkpt lat="47.34773" lon="-1.25711">
        <ele>3</ele>
        <time>2014-07-06T12:43:48Z</time>
      </trkpt>
      <trkpt lat="47.34772" lon="-1.25705">
        <ele>3</ele>
        <time>2014-07-06T12:43:50Z</time>
      </trkpt>
      <trkpt lat="47.34772" lon="-1.25702">
        <ele>3</ele>
        <time>2014-07-06T12:43:51Z</time>
      </trkpt>
      <trkpt lat="47.34772" lon="-1.25696">
        <ele>3</ele>
        <time>2014-07-06T12:43:53Z</time>
      </trkpt>
      <trkpt lat="47.34772" lon="-1.25691">
        <ele>3</ele>
        <time>2014-07-06T12:43:55Z</time>
      </trkpt>
      <trkpt lat="47.34771" lon="-1.25688">
        <ele>3</ele>
        <time>2014-07-06T12:43:56Z</time>
      </trkpt>
      <trkpt lat="47.34771" lon="-1.25682">
        <ele>3</ele>
        <time>2014-07-06T12:43:58Z</time>
      </trkpt>
      <trkpt lat="47.3477" lon="-1.25676">
        <ele>3</ele>
        <time>2014-07-06T12:44:00Z</time>
      </trkpt>
      <trkpt lat="47.34768" lon="-1.25667">
        <ele>3</ele>
        <time>2014-07-06T12:44:03Z</time>
      </trkpt>
      <trkpt lat="47.34767" lon="-1.25643">
        <ele>3</ele>
        <time>2014-07-06T12:44:12Z</time>
      </trkpt>
      <trkpt lat="47.34768" lon="-1.25638">
        <ele>3</ele>
        <time>2014-07-06T12:44:14Z</time>
      </trkpt>
      <trkpt lat="47.34767" lon="-1.25636">
        <ele>3</ele>
        <time>2014-07-06T12:44:15Z</time>
      </trkpt>
      <trkpt lat="47.34768" lon="-1.25628">
        <ele>3</ele>
        <time>2014-07-06T12:44:18Z</time>
      </trkpt>
      <trkpt lat="47.34768" lon="-1.25625">
        <ele>3</ele>
        <time>2014-07-06T12:44:19Z</time>
      </trkpt>
      <trkpt lat="47.34769" lon="-1.25611">
        <ele>3</ele>
        <time>2014-07-06T12:44:24Z</time>
      </trkpt>
      <trkpt lat="47.3477" lon="-1.25609">
        <ele>3</ele>
        <time>2014-07-06T12:44:25Z</time>
      </trkpt>
      <trkpt lat="47.3477" lon="-1.25606">
        <ele>3</ele>
        <time>2014-07-06T12:44:26Z</time>
      </trkpt>
      <trkpt lat="47.3477" lon="-1.25604">
        <ele>3</ele>
        <time>2014-07-06T12:44:27Z</time>
      </trkpt>
      <trkpt lat="47.3477" lon="-1.25601">
        <ele>3</ele>
        <time>2014-07-06T12:44:28Z</time>
      </trkpt>
      <trkpt lat="47.3477" lon="-1.25598">
        <ele>3</ele>
        <time>2014-07-06T12:44:29Z</time>
      </trkpt>
      <trkpt lat="47.34772" lon="-1.25594">
        <ele>3</ele>
        <time>2014-07-06T12:44:31Z</time>
      </trkpt>
      <trkpt lat="47.34773" lon="-1.25591">
        <ele>3</ele>
        <time>2014-07-06T12:44:32Z</time>
      </trkpt>
      <trkpt lat="47.34773" lon="-1.25589">
        <ele>3</ele>
        <time>2014-07-06T12:44:33Z</time>
      </trkpt>
      <trkpt lat="47.34774" lon="-1.25584">
        <ele>3</ele>
        <time>2014-07-06T12:44:35Z</time>
      </trkpt>
      <trkpt lat="47.34774" lon="-1.25567">
        <ele>3</ele>
        <time>2014-07-06T12:44:42Z</time>
      </trkpt>
      <trkpt lat="47.34775" lon="-1.25565">
        <ele>3</ele>
        <time>2014-07-06T12:44:43Z</time>
      </trkpt>
      <trkpt lat="47.34776" lon="-1.25563">
        <ele>3</ele>
        <time>2014-07-06T12:44:44Z</time>
      </trkpt>
      <trkpt lat="47.3478" lon="-1.25551">
        <ele>3</ele>
        <time>2014-07-06T12:44:49Z</time>
      </trkpt>
      <trkpt lat="47.3478" lon="-1.25549">
        <ele>3</ele>
        <time>2014-07-06T12:44:50Z</time>
      </trkpt>
      <trkpt lat="47.34785" lon="-1.25514">
        <ele>3</ele>
        <time>2014-07-06T12:45:03Z</time>
      </trkpt>
      <trkpt lat="47.34785" lon="-1.25512">
        <ele>3</ele>
        <time>2014-07-06T12:45:04Z</time>
      </trkpt>
      <trkpt lat="47.34786" lon="-1.2551">
        <ele>3</ele>
        <time>2014-07-06T12:45:05Z</time>
      </trkpt>
      <trkpt lat="47.34786" lon="-1.25507">
        <ele>3</ele>
        <time>2014-07-06T12:45:06Z</time>
      </trkpt>
      <trkpt lat="47.34786" lon="-1.25502">
        <ele>3</ele>
        <time>2014-07-06T12:45:08Z</time>
      </trkpt>
      <trkpt lat="47.34786" lon="-1.25499">
        <ele>3</ele>
        <time>2014-07-06T12:45:09Z</time>
      </trkpt>
      <trkpt lat="47.34785" lon="-1.25496">
        <ele>3</ele>
        <time>2014-07-06T12:45:10Z</time>
      </trkpt>
      <trkpt lat="47.34788" lon="-1.25483">
        <ele>3</ele>
        <time>2014-07-06T12:45:16Z</time>
      </trkpt>
      <trkpt lat="47.34787" lon="-1.25474">
        <ele>3</ele>
        <time>2014-07-06T12:45:19Z</time>
      </trkpt>
      <trkpt lat="47.34788" lon="-1.25468">
        <ele>3</ele>
        <time>2014-07-06T12:45:21Z</time>
      </trkpt>
      <trkpt lat="47.34789" lon="-1.25465">
        <ele>3</ele>
        <time>2014-07-06T12:45:22Z</time>
      </trkpt>
      <trkpt lat="47.34789" lon="-1.25458">
        <ele>3</ele>
        <time>2014-07-06T12:45:25Z</time>
      </trkpt>
      <trkpt lat="47.34789" lon="-1.25456">
        <ele>3</ele>
        <time>2014-07-06T12:45:26Z</time>
      </trkpt>
      <trkpt lat="47.34789" lon="-1.25451">
        <ele>3</ele>
        <time>2014-07-06T12:45:28Z</time>
      </trkpt>
      <trkpt lat="47.34787" lon="-1.25446">
        <ele>3</ele>
        <time>2014-07-06T12:45:30Z</time>
      </trkpt>
      <trkpt lat="47.34787" lon="-1.2544">
        <ele>3</ele>
        <time>2014-07-06T12:45:32Z</time>
      </trkpt>
      <trkpt lat="47.34786" lon="-1.25434">
        <ele>3</ele>
        <time>2014-07-06T12:45:34Z</time>
      </trkpt>
      <trkpt lat="47.34786" lon="-1.25427">
        <ele>3</ele>
        <time>2014-07-06T12:45:37Z</time>
      </trkpt>
      <trkpt lat="47.34787" lon="-1.25419">
        <ele>3</ele>
        <time>2014-07-06T12:45:40Z</time>
      </trkpt>
      <trkpt lat="47.34787" lon="-1.25415">
        <ele>3</ele>
        <time>2014-07-06T12:45:42Z</time>
      </trkpt>
      <trkpt lat="47.34787" lon="-1.2541">
        <ele>4</ele>
        <time>2014-07-06T12:45:44Z</time>
      </trkpt>
      <trkpt lat="47.34789" lon="-1.25401">
        <ele>4</ele>
        <time>2014-07-06T12:45:50Z</time>
      </trkpt>
      <trkpt lat="47.34793" lon="-1.25389">
        <ele>5</ele>
        <time>2014-07-06T12:45:57Z</time>
      </trkpt>
      <trkpt lat="47.34797" lon="-1.25381">
        <ele>5</ele>
        <time>2014-07-06T12:46:01Z</time>
      </trkpt>
      <trkpt lat="47.34797" lon="-1.25378">
        <ele>5</ele>
        <time>2014-07-06T12:46:02Z</time>
      </trkpt>
      <trkpt lat="47.34797" lon="-1.25375">
        <ele>5</ele>
        <time>2014-07-06T12:46:03Z</time>
      </trkpt>
      <trkpt lat="47.34797" lon="-1.25372">
        <ele>5</ele>
        <time>2014-07-06T12:46:04Z</time>
      </trkpt>
      <trkpt lat="47.34789" lon="-1.25361">
        <ele>4</ele>
        <time>2014-07-06T12:46:16Z</time>
      </trkpt>
      <trkpt lat="47.34785" lon="-1.25352">
        <ele>3</ele>
        <time>2014-07-06T12:46:34Z</time>
      </trkpt>
      <trkpt lat="47.34783" lon="-1.25354">
        <ele>3</ele>
        <time>2014-07-06T12:46:37Z</time>
      </trkpt>
      <trkpt lat="47.34783" lon="-1.25355">
        <ele>3</ele>
        <time>2014-07-06T12:46:38Z</time>
      </trkpt>
      <trkpt lat="47.34781" lon="-1.25356">
        <ele>3</ele>
        <time>2014-07-06T12:46:39Z</time>
      </trkpt>
      <trkpt lat="47.34781" lon="-1.25357">
        <ele>3</ele>
        <time>2014-07-06T12:46:40Z</time>
      </trkpt>
      <trkpt lat="47.34778" lon="-1.25357">
        <ele>3</ele>
        <time>2014-07-06T12:46:41Z</time>
      </trkpt>
      <trkpt lat="47.34766" lon="-1.25359">
        <ele>2</ele>
        <time>2014-07-06T12:46:49Z</time>
      </trkpt>
      <trkpt lat="47.34748" lon="-1.2536">
        <ele>2</ele>
        <time>2014-07-06T12:47:00Z</time>
      </trkpt>
      <trkpt lat="47.34741" lon="-1.25358">
        <ele>2</ele>
        <time>2014-07-06T12:47:04Z</time>
      </trkpt>
      <trkpt lat="47.34728" lon="-1.25352">
        <ele>2</ele>
        <time>2014-07-06T12:47:14Z</time>
      </trkpt>
      <trkpt lat="47.34726" lon="-1.25353">
        <ele>2</ele>
        <time>2014-07-06T12:47:15Z</time>
      </trkpt>
      <trkpt lat="47.34721" lon="-1.25351">
        <ele>2</ele>
        <time>2014-07-06T12:47:17Z</time>
      </trkpt>
      <trkpt lat="47.34719" lon="-1.25348">
        <ele>2</ele>
        <time>2014-07-06T12:47:18Z</time>
      </trkpt>
      <trkpt lat="47.34718" lon="-1.25345">
        <ele>2</ele>
        <time>2014-07-06T12:47:19Z</time>
      </trkpt>
      <trkpt lat="47.34717" lon="-1.25342">
        <ele>2</ele>
        <time>2014-07-06T12:47:20Z</time>
      </trkpt>
      <trkpt lat="47.34717" lon="-1.2534">
        <ele>2</ele>
        <time>2014-07-06T12:47:21Z</time>
      </trkpt>
      <trkpt lat="47.34717" lon="-1.25333">
        <ele>2</ele>
        <time>2014-07-06T12:47:23Z</time>
      </trkpt>
      <trkpt lat="47.3472" lon="-1.25323">
        <ele>2</ele>
        <time>2014-07-06T12:47:27Z</time>
      </trkpt>
      <trkpt lat="47.3472" lon="-1.2532">
        <ele>2</ele>
        <time>2014-07-06T12:47:28Z</time>
      </trkpt>
      <trkpt lat="47.3472" lon="-1.25315">
        <ele>3</ele>
        <time>2014-07-06T12:47:30Z</time>
      </trkpt>
      <trkpt lat="47.3472" lon="-1.25311">
        <ele>3</ele>
        <time>2014-07-06T12:47:32Z</time>
      </trkpt>
      <trkpt lat="47.34721" lon="-1.25309">
        <ele>3</ele>
        <time>2014-07-06T12:47:33Z</time>
      </trkpt>
      <trkpt lat="47.34725" lon="-1.25298">
        <ele>4</ele>
        <time>2014-07-06T12:47:38Z</time>
      </trkpt>
      <trkpt lat="47.34726" lon="-1.25293">
        <ele>4</ele>
        <time>2014-07-06T12:47:40Z</time>
      </trkpt>
      <trkpt lat="47.34726" lon="-1.25287">
        <ele>4</ele>
        <time>2014-07-06T12:47:42Z</time>
      </trkpt>
      <trkpt lat="47.34727" lon="-1.25278">
        <ele>4</ele>
        <time>2014-07-06T12:47:45Z</time>
      </trkpt>
      <trkpt lat="47.34728" lon="-1.25276">
        <ele>4</ele>
        <time>2014-07-06T12:47:46Z</time>
      </trkpt>
      <trkpt lat="47.34728" lon="-1.25273">
        <ele>4</ele>
        <time>2014-07-06T12:47:47Z</time>
      </trkpt>
      <trkpt lat="47.34728" lon="-1.2527">
        <ele>4</ele>
        <time>2014-07-06T12:47:48Z</time>
      </trkpt>
      <trkpt lat="47.34729" lon="-1.25268">
        <ele>4</ele>
        <time>2014-07-06T12:47:49Z</time>
      </trkpt>
      <trkpt lat="47.34729" lon="-1.25263">
        <ele>4</ele>
        <time>2014-07-06T12:47:51Z</time>
      </trkpt>
      <trkpt lat="47.3473" lon="-1.2526">
        <ele>4</ele>
        <time>2014-07-06T12:47:52Z</time>
      </trkpt>
      <trkpt lat="47.34729" lon="-1.2525">
        <ele>4</ele>
        <time>2014-07-06T12:47:56Z</time>
      </trkpt>
      <trkpt lat="47.3473" lon="-1.25242">
        <ele>4</ele>
        <time>2014-07-06T12:47:59Z</time>
      </trkpt>
      <trkpt lat="47.34736" lon="-1.25209">
        <ele>4</ele>
        <time>2014-07-06T12:48:12Z</time>
      </trkpt>
      <trkpt lat="47.34747" lon="-1.25144">
        <ele>4</ele>
        <time>2014-07-06T12:48:37Z</time>
      </trkpt>
      <trkpt lat="47.3475" lon="-1.25119">
        <ele>4</ele>
        <time>2014-07-06T12:48:47Z</time>
      </trkpt>
      <trkpt lat="47.34757" lon="-1.25091">
        <ele>4</ele>
        <time>2014-07-06T12:48:58Z</time>
      </trkpt>
      <trkpt lat="47.34758" lon="-1.25079">
        <ele>4</ele>
        <time>2014-07-06T12:49:03Z</time>
      </trkpt>
      <trkpt lat="47.34763" lon="-1.25056">
        <ele>5</ele>
        <time>2014-07-06T12:49:12Z</time>
      </trkpt>
      <trkpt lat="47.34764" lon="-1.25053">
        <ele>5</ele>
        <time>2014-07-06T12:49:13Z</time>
      </trkpt>
      <trkpt lat="47.34766" lon="-1.25049">
        <ele>6</ele>
        <time>2014-07-06T12:49:15Z</time>
      </trkpt>
      <trkpt lat="47.34766" lon="-1.25047">
        <ele>6</ele>
        <time>2014-07-06T12:49:16Z</time>
      </trkpt>
      <trkpt lat="47.34767" lon="-1.25042">
        <ele>6</ele>
        <time>2014-07-06T12:49:18Z</time>
      </trkpt>
      <trkpt lat="47.34767" lon="-1.2504">
        <ele>6</ele>
        <time>2014-07-06T12:49:19Z</time>
      </trkpt>
      <trkpt lat="47.34767" lon="-1.25035">
        <ele>6</ele>
        <time>2014-07-06T12:49:21Z</time>
      </trkpt>
      <trkpt lat="47.34768" lon="-1.25033">
        <ele>6</ele>
        <time>2014-07-06T12:49:22Z</time>
      </trkpt>
      <trkpt lat="47.34768" lon="-1.25031">
        <ele>6</ele>
        <time>2014-07-06T12:49:23Z</time>
      </trkpt>
      <trkpt lat="47.34769" lon="-1.25029">
        <ele>6</ele>
        <time>2014-07-06T12:49:24Z</time>
      </trkpt>
      <trkpt lat="47.3477" lon="-1.25027">
        <ele>6</ele>
        <time>2014-07-06T12:49:25Z</time>
      </trkpt>
      <trkpt lat="47.34771" lon="-1.25024">
        <ele>6</ele>
        <time>2014-07-06T12:49:26Z</time>
      </trkpt>
      <trkpt lat="47.34775" lon="-1.25002">
        <ele>6</ele>
        <time>2014-07-06T12:49:35Z</time>
      </trkpt>
      <trkpt lat="47.34777" lon="-1.24994">
        <ele>6</ele>
        <time>2014-07-06T12:49:38Z</time>
      </trkpt>
      <trkpt lat="47.34777" lon="-1.24991">
        <ele>6</ele>
        <time>2014-07-06T12:49:39Z</time>
      </trkpt>
      <trkpt lat="47.34777" lon="-1.24988">
        <ele>6</ele>
        <time>2014-07-06T12:49:40Z</time>
      </trkpt>
      <trkpt lat="47.34778" lon="-1.24983">
        <ele>6</ele>
        <time>2014-07-06T12:49:42Z</time>
      </trkpt>
      <trkpt lat="47.34783" lon="-1.24969">
        <ele>6</ele>
        <time>2014-07-06T12:49:48Z</time>
      </trkpt>
      <trkpt lat="47.34784" lon="-1.24967">
        <ele>6</ele>
        <time>2014-07-06T12:49:49Z</time>
      </trkpt>
      <trkpt lat="47.34786" lon="-1.24961">
        <ele>6</ele>
        <time>2014-07-06T12:49:51Z</time>
      </trkpt>
      <trkpt lat="47.34787" lon="-1.24953">
        <ele>6</ele>
        <time>2014-07-06T12:49:54Z</time>
      </trkpt>
      <trkpt lat="47.34788" lon="-1.2495">
        <ele>6</ele>
        <time>2014-07-06T12:49:55Z</time>
      </trkpt>
      <trkpt lat="47.34791" lon="-1.24942">
        <ele>6</ele>
        <time>2014-07-06T12:49:58Z</time>
      </trkpt>
      <trkpt lat="47.34792" lon="-1.2494">
        <ele>6</ele>
        <time>2014-07-06T12:49:59Z</time>
      </trkpt>
      <trkpt lat="47.34793" lon="-1.24934">
        <ele>6</ele>
        <time>2014-07-06T12:50:01Z</time>
      </trkpt>
      <trkpt lat="47.348" lon="-1.24911">
        <ele>6</ele>
        <time>2014-07-06T12:50:11Z</time>
      </trkpt>
      <trkpt lat="47.34802" lon="-1.24904">
        <ele>6</ele>
        <time>2014-07-06T12:50:14Z</time>
      </trkpt>
      <trkpt lat="47.34804" lon="-1.24898">
        <ele>6</ele>
        <time>2014-07-06T12:50:16Z</time>
      </trkpt>
      <trkpt lat="47.34807" lon="-1.24894">
        <ele>6</ele>
        <time>2014-07-06T12:50:18Z</time>
      </trkpt>
      <trkpt lat="47.34817" lon="-1.24864">
        <ele>6</ele>
        <time>2014-07-06T12:50:31Z</time>
      </trkpt>
      <trkpt lat="47.34826" lon="-1.24843">
        <ele>6</ele>
        <time>2014-07-06T12:50:40Z</time>
      </trkpt>
      <trkpt lat="47.34834" lon="-1.24823">
        <ele>4</ele>
        <time>2014-07-06T12:50:49Z</time>
      </trkpt>
      <trkpt lat="47.3484" lon="-1.24811">
        <ele>4</ele>
        <time>2014-07-06T12:50:55Z</time>
      </trkpt>
      <trkpt lat="47.34851" lon="-1.24785">
        <ele>3</ele>
        <time>2014-07-06T12:51:06Z</time>
      </trkpt>
      <trkpt lat="47.3486" lon="-1.24763">
        <ele>3</ele>
        <time>2014-07-06T12:51:15Z</time>
      </trkpt>
      <trkpt lat="47.34862" lon="-1.24759">
        <ele>3</ele>
        <time>2014-07-06T12:51:17Z</time>
      </trkpt>
      <trkpt lat="47.34863" lon="-1.24757">
        <ele>3</ele>
        <time>2014-07-06T12:51:18Z</time>
      </trkpt>
      <trkpt lat="47.34864" lon="-1.24754">
        <ele>3</ele>
        <time>2014-07-06T12:51:19Z</time>
      </trkpt>
      <trkpt lat="47.34867" lon="-1.24745">
        <ele>3</ele>
        <time>2014-07-06T12:51:23Z</time>
      </trkpt>
      <trkpt lat="47.34872" lon="-1.24733">
        <ele>3</ele>
        <time>2014-07-06T12:51:29Z</time>
      </trkpt>
      <trkpt lat="47.34873" lon="-1.24731">
        <ele>3</ele>
        <time>2014-07-06T12:51:30Z</time>
      </trkpt>
      <trkpt lat="47.34874" lon="-1.24729">
        <ele>3</ele>
        <time>2014-07-06T12:51:31Z</time>
      </trkpt>
      <trkpt lat="47.34876" lon="-1.2472">
        <ele>3</ele>
        <time>2014-07-06T12:51:35Z</time>
      </trkpt>
      <trkpt lat="47.34876" lon="-1.24719">
        <ele>3</ele>
        <time>2014-07-06T12:51:36Z</time>
      </trkpt>
      <trkpt lat="47.3488" lon="-1.24713">
        <ele>3</ele>
        <time>2014-07-06T12:51:39Z</time>
      </trkpt>
      <trkpt lat="47.34891" lon="-1.24687">
        <ele>3</ele>
        <time>2014-07-06T12:51:51Z</time>
      </trkpt>
      <trkpt lat="47.34904" lon="-1.24662">
        <ele>3</ele>
        <time>2014-07-06T12:52:02Z</time>
      </trkpt>
      <trkpt lat="47.3491" lon="-1.24653">
        <ele>3</ele>
        <time>2014-07-06T12:52:06Z</time>
      </trkpt>
      <trkpt lat="47.34912" lon="-1.24649">
        <ele>3</ele>
        <time>2014-07-06T12:52:08Z</time>
      </trkpt>
      <trkpt lat="47.34915" lon="-1.24643">
        <ele>3</ele>
        <time>2014-07-06T12:52:11Z</time>
      </trkpt>
      <trkpt lat="47.34917" lon="-1.2464">
        <ele>3</ele>
        <time>2014-07-06T12:52:12Z</time>
      </trkpt>
      <trkpt lat="47.34918" lon="-1.24637">
        <ele>3</ele>
        <time>2014-07-06T12:52:13Z</time>
      </trkpt>
      <trkpt lat="47.34926" lon="-1.24615">
        <ele>3</ele>
        <time>2014-07-06T12:52:23Z</time>
      </trkpt>
      <trkpt lat="47.34932" lon="-1.24604">
        <ele>3</ele>
        <time>2014-07-06T12:52:28Z</time>
      </trkpt>
      <trkpt lat="47.34936" lon="-1.24598">
        <ele>3</ele>
        <time>2014-07-06T12:52:31Z</time>
      </trkpt>
      <trkpt lat="47.34938" lon="-1.24593">
        <ele>3</ele>
        <time>2014-07-06T12:52:33Z</time>
      </trkpt>
      <trkpt lat="47.3494" lon="-1.24589">
        <ele>3</ele>
        <time>2014-07-06T12:52:35Z</time>
      </trkpt>
      <trkpt lat="47.34942" lon="-1.24584">
        <ele>3</ele>
        <time>2014-07-06T12:52:37Z</time>
      </trkpt>
      <trkpt lat="47.34944" lon="-1.24579">
        <ele>3</ele>
        <time>2014-07-06T12:52:39Z</time>
      </trkpt>
      <trkpt lat="47.34952" lon="-1.24557">
        <ele>2</ele>
        <time>2014-07-06T12:52:49Z</time>
      </trkpt>
      <trkpt lat="47.34964" lon="-1.24534">
        <ele>2</ele>
        <time>2014-07-06T12:52:59Z</time>
      </trkpt>
      <trkpt lat="47.34974" lon="-1.24506">
        <ele>2</ele>
        <time>2014-07-06T12:53:11Z</time>
      </trkpt>
      <trkpt lat="47.34975" lon="-1.24504">
        <ele>2</ele>
        <time>2014-07-06T12:53:12Z</time>
      </trkpt>
      <trkpt lat="47.34975" lon="-1.24501">
        <ele>2</ele>
        <time>2014-07-06T12:53:13Z</time>
      </trkpt>
      <trkpt lat="47.34977" lon="-1.24497">
        <ele>2</ele>
        <time>2014-07-06T12:53:15Z</time>
      </trkpt>
      <trkpt lat="47.34979" lon="-1.24493">
        <ele>2</ele>
        <time>2014-07-06T12:53:17Z</time>
      </trkpt>
      <trkpt lat="47.3498" lon="-1.24488">
        <ele>2</ele>
        <time>2014-07-06T12:53:19Z</time>
      </trkpt>
      <trkpt lat="47.34982" lon="-1.24483">
        <ele>2</ele>
        <time>2014-07-06T12:53:21Z</time>
      </trkpt>
      <trkpt lat="47.3499" lon="-1.24459">
        <ele>2</ele>
        <time>2014-07-06T12:53:31Z</time>
      </trkpt>
      <trkpt lat="47.34992" lon="-1.24455">
        <ele>2</ele>
        <time>2014-07-06T12:53:33Z</time>
      </trkpt>
      <trkpt lat="47.34992" lon="-1.24453">
        <ele>2</ele>
        <time>2014-07-06T12:53:34Z</time>
      </trkpt>
      <trkpt lat="47.34993" lon="-1.24451">
        <ele>2</ele>
        <time>2014-07-06T12:53:35Z</time>
      </trkpt>
      <trkpt lat="47.35002" lon="-1.24426">
        <ele>2</ele>
        <time>2014-07-06T12:53:45Z</time>
      </trkpt>
      <trkpt lat="47.3501" lon="-1.244">
        <ele>2</ele>
        <time>2014-07-06T12:53:56Z</time>
      </trkpt>
      <trkpt lat="47.35011" lon="-1.24398">
        <ele>2</ele>
        <time>2014-07-06T12:53:57Z</time>
      </trkpt>
      <trkpt lat="47.35015" lon="-1.24383">
        <ele>2</ele>
        <time>2014-07-06T12:54:06Z</time>
      </trkpt>
      <trkpt lat="47.35016" lon="-1.2438">
        <ele>2</ele>
        <time>2014-07-06T12:54:07Z</time>
      </trkpt>
      <trkpt lat="47.35023" lon="-1.24358">
        <ele>2</ele>
        <time>2014-07-06T12:54:18Z</time>
      </trkpt>
      <trkpt lat="47.35029" lon="-1.24333">
        <ele>2</ele>
        <time>2014-07-06T12:54:28Z</time>
      </trkpt>
      <trkpt lat="47.35034" lon="-1.24316">
        <ele>2</ele>
        <time>2014-07-06T12:54:35Z</time>
      </trkpt>
      <trkpt lat="47.35034" lon="-1.24314">
        <ele>2</ele>
        <time>2014-07-06T12:54:36Z</time>
      </trkpt>
      <trkpt lat="47.35035" lon="-1.24311">
        <ele>2</ele>
        <time>2014-07-06T12:54:37Z</time>
      </trkpt>
      <trkpt lat="47.35037" lon="-1.24306">
        <ele>2</ele>
        <time>2014-07-06T12:54:39Z</time>
      </trkpt>
      <trkpt lat="47.35044" lon="-1.24287">
        <ele>2</ele>
        <time>2014-07-06T12:54:47Z</time>
      </trkpt>
      <trkpt lat="47.35051" lon="-1.24262">
        <ele>2</ele>
        <time>2014-07-06T12:54:57Z</time>
      </trkpt>
      <trkpt lat="47.35051" lon="-1.24259">
        <ele>2</ele>
        <time>2014-07-06T12:54:58Z</time>
      </trkpt>
      <trkpt lat="47.35052" lon="-1.24254">
        <ele>2</ele>
        <time>2014-07-06T12:55:00Z</time>
      </trkpt>
      <trkpt lat="47.35053" lon="-1.24252">
        <ele>2</ele>
        <time>2014-07-06T12:55:01Z</time>
      </trkpt>
      <trkpt lat="47.35053" lon="-1.2425">
        <ele>2</ele>
        <time>2014-07-06T12:55:02Z</time>
      </trkpt>
      <trkpt lat="47.35061" lon="-1.24222">
        <ele>1</ele>
        <time>2014-07-06T12:55:14Z</time>
      </trkpt>
      <trkpt lat="47.3507" lon="-1.24197">
        <ele>1</ele>
        <time>2014-07-06T12:55:24Z</time>
      </trkpt>
      <trkpt lat="47.35077" lon="-1.24169">
        <ele>1</ele>
        <time>2014-07-06T12:55:34Z</time>
      </trkpt>
      <trkpt lat="47.35084" lon="-1.24147">
        <ele>1</ele>
        <time>2014-07-06T12:55:43Z</time>
      </trkpt>
      <trkpt lat="47.35091" lon="-1.24115">
        <ele>1</ele>
        <time>2014-07-06T12:55:56Z</time>
      </trkpt>
      <trkpt lat="47.35098" lon="-1.24089">
        <ele>1</ele>
        <time>2014-07-06T12:56:06Z</time>
      </trkpt>
      <trkpt lat="47.35102" lon="-1.24078">
        <ele>1</ele>
        <time>2014-07-06T12:56:11Z</time>
      </trkpt>
      <trkpt lat="47.35103" lon="-1.24074">
        <ele>2</ele>
        <time>2014-07-06T12:56:13Z</time>
      </trkpt>
      <trkpt lat="47.35104" lon="-1.24071">
        <ele>2</ele>
        <time>2014-07-06T12:56:14Z</time>
      </trkpt>
      <trkpt lat="47.35105" lon="-1.24064">
        <ele>3</ele>
        <time>2014-07-06T12:56:17Z</time>
      </trkpt>
      <trkpt lat="47.35107" lon="-1.24055">
        <ele>3</ele>
        <time>2014-07-06T12:56:21Z</time>
      </trkpt>
      <trkpt lat="47.35107" lon="-1.24052">
        <ele>3</ele>
        <time>2014-07-06T12:56:22Z</time>
      </trkpt>
      <trkpt lat="47.35111" lon="-1.24028">
        <ele>3</ele>
        <time>2014-07-06T12:56:32Z</time>
      </trkpt>
      <trkpt lat="47.35113" lon="-1.24026">
        <ele>3</ele>
        <time>2014-07-06T12:56:33Z</time>
      </trkpt>
      <trkpt lat="47.35121" lon="-1.24005">
        <ele>2</ele>
        <time>2014-07-06T12:56:41Z</time>
      </trkpt>
      <trkpt lat="47.35132" lon="-1.23975">
        <ele>1</ele>
        <time>2014-07-06T12:56:53Z</time>
      </trkpt>
      <trkpt lat="47.35132" lon="-1.23971">
        <ele>1</ele>
        <time>2014-07-06T12:56:54Z</time>
      </trkpt>
      <trkpt lat="47.35133" lon="-1.23968">
        <ele>1</ele>
        <time>2014-07-06T12:56:55Z</time>
      </trkpt>
      <trkpt lat="47.35134" lon="-1.23963">
        <ele>1</ele>
        <time>2014-07-06T12:56:57Z</time>
      </trkpt>
      <trkpt lat="47.35136" lon="-1.23958">
        <ele>1</ele>
        <time>2014-07-06T12:56:59Z</time>
      </trkpt>
      <trkpt lat="47.35137" lon="-1.23955">
        <ele>1</ele>
        <time>2014-07-06T12:57:00Z</time>
      </trkpt>
      <trkpt lat="47.35138" lon="-1.2395">
        <ele>1</ele>
        <time>2014-07-06T12:57:02Z</time>
      </trkpt>
      <trkpt lat="47.35147" lon="-1.23922">
        <ele>1</ele>
        <time>2014-07-06T12:57:14Z</time>
      </trkpt>
      <trkpt lat="47.35147" lon="-1.23915">
        <ele>1</ele>
        <time>2014-07-06T12:57:17Z</time>
      </trkpt>
      <trkpt lat="47.35151" lon="-1.23902">
        <ele>1</ele>
        <time>2014-07-06T12:57:22Z</time>
      </trkpt>
      <trkpt lat="47.35152" lon="-1.239">
        <ele>1</ele>
        <time>2014-07-06T12:57:23Z</time>
      </trkpt>
      <trkpt lat="47.35158" lon="-1.23878">
        <ele>1</ele>
        <time>2014-07-06T12:57:32Z</time>
      </trkpt>
      <trkpt lat="47.35161" lon="-1.2387">
        <ele>1</ele>
        <time>2014-07-06T12:57:36Z</time>
      </trkpt>
      <trkpt lat="47.35162" lon="-1.23865">
        <ele>1</ele>
        <time>2014-07-06T12:57:38Z</time>
      </trkpt>
      <trkpt lat="47.35163" lon="-1.2386">
        <ele>1</ele>
        <time>2014-07-06T12:57:40Z</time>
      </trkpt>
      <trkpt lat="47.35164" lon="-1.2385">
        <ele>1</ele>
        <time>2014-07-06T12:57:44Z</time>
      </trkpt>
      <trkpt lat="47.35166" lon="-1.23845">
        <ele>8.7</ele>
        <time>2014-07-06T12:57:46Z</time>
      </trkpt>
      <trkpt lat="47.35168" lon="-1.23837">
        <ele>8.3</ele>
        <time>2014-07-06T12:57:50Z</time>
      </trkpt>
      <trkpt lat="47.35169" lon="-1.23832">
        <ele>-1</ele>
        <time>2014-07-06T12:57:52Z</time>
      </trkpt>
      <trkpt lat="47.35169" lon="-1.23828">
        <ele>-1</ele>
        <time>2014-07-06T12:57:53Z</time>
      </trkpt>
      <trkpt lat="47.3517" lon="-1.23823">
        <ele>-1</ele>
        <time>2014-07-06T12:57:55Z</time>
      </trkpt>
      <trkpt lat="47.35172" lon="-1.23816">
        <ele>-1</ele>
        <time>2014-07-06T12:58:04Z</time>
      </trkpt>
      <trkpt lat="47.35178" lon="-1.23802">
        <ele>-1</ele>
        <time>2014-07-06T12:58:10Z</time>
      </trkpt>
      <trkpt lat="47.35185" lon="-1.23788">
        <ele>-1</ele>
        <time>2014-07-06T12:58:17Z</time>
      </trkpt>
      <trkpt lat="47.35185" lon="-1.23785">
        <ele>-1</ele>
        <time>2014-07-06T12:58:18Z</time>
      </trkpt>
      <trkpt lat="47.35188" lon="-1.23778">
        <ele>1</ele>
        <time>2014-07-06T12:58:21Z</time>
      </trkpt>
      <trkpt lat="47.35195" lon="-1.23754">
        <ele>1</ele>
        <time>2014-07-06T12:58:31Z</time>
      </trkpt>
      <trkpt lat="47.35203" lon="-1.23727">
        <ele>1</ele>
        <time>2014-07-06T12:58:43Z</time>
      </trkpt>
      <trkpt lat="47.35203" lon="-1.2372">
        <ele>1</ele>
        <time>2014-07-06T12:58:46Z</time>
      </trkpt>
      <trkpt lat="47.35204" lon="-1.23715">
        <ele>1</ele>
        <time>2014-07-06T12:58:48Z</time>
      </trkpt>
      <trkpt lat="47.35215" lon="-1.23664">
        <ele>1</ele>
        <time>2014-07-06T12:59:10Z</time>
      </trkpt>
      <trkpt lat="47.35222" lon="-1.23633">
        <ele>1</ele>
        <time>2014-07-06T12:59:23Z</time>
      </trkpt>
      <trkpt lat="47.35229" lon="-1.23611">
        <ele>1</ele>
        <time>2014-07-06T12:59:32Z</time>
      </trkpt>
      <trkpt lat="47.35237" lon="-1.23585">
        <ele>1</ele>
        <time>2014-07-06T12:59:42Z</time>
      </trkpt>
      <trkpt lat="47.35238" lon="-1.23578">
        <ele>1</ele>
        <time>2014-07-06T12:59:45Z</time>
      </trkpt>
      <trkpt lat="47.35239" lon="-1.23576">
        <ele>1</ele>
        <time>2014-07-06T12:59:46Z</time>
      </trkpt>
      <trkpt lat="47.35241" lon="-1.23572">
        <ele>1</ele>
        <time>2014-07-06T12:59:48Z</time>
      </trkpt>
      <trkpt lat="47.35251" lon="-1.23538">
        <ele>1</ele>
        <time>2014-07-06T13:00:01Z</time>
      </trkpt>
      <trkpt lat="47.35266" lon="-1.23489">
        <ele>1</ele>
        <time>2014-07-06T13:00:21Z</time>
      </trkpt>
      <trkpt lat="47.35267" lon="-1.23484">
        <ele>1</ele>
        <time>2014-07-06T13:00:23Z</time>
      </trkpt>
      <trkpt lat="47.35274" lon="-1.23463">
        <ele>1</ele>
        <time>2014-07-06T13:00:32Z</time>
      </trkpt>
      <trkpt lat="47.35275" lon="-1.23461">
        <ele>1</ele>
        <time>2014-07-06T13:00:33Z</time>
      </trkpt>
      <trkpt lat="47.35277" lon="-1.23447">
        <ele>1</ele>
        <time>2014-07-06T13:00:38Z</time>
      </trkpt>
      <trkpt lat="47.35286" lon="-1.23415">
        <ele>1</ele>
        <time>2014-07-06T13:00:51Z</time>
      </trkpt>
      <trkpt lat="47.35294" lon="-1.23389">
        <ele>9.7</ele>
        <time>2014-07-06T13:01:01Z</time>
      </trkpt>
      <trkpt lat="47.353" lon="-1.2337">
        <ele>10.2</ele>
        <time>2014-07-06T13:01:09Z</time>
      </trkpt>
      <trkpt lat="47.35307" lon="-1.23348">
        <ele>10.7</ele>
        <time>2014-07-06T13:01:18Z</time>
      </trkpt>
      <trkpt lat="47.35309" lon="-1.23343">
        <ele>10.9</ele>
        <time>2014-07-06T13:01:20Z</time>
      </trkpt>
      <trkpt lat="47.35312" lon="-1.23336">
        <ele>1</ele>
        <time>2014-07-06T13:01:23Z</time>
      </trkpt>
      <trkpt lat="47.35313" lon="-1.23333">
        <ele>2</ele>
        <time>2014-07-06T13:01:24Z</time>
      </trkpt>
      <trkpt lat="47.35323" lon="-1.23309">
        <ele>2</ele>
        <time>2014-07-06T13:01:34Z</time>
      </trkpt>
      <trkpt lat="47.35333" lon="-1.23286">
        <ele>2</ele>
        <time>2014-07-06T13:01:44Z</time>
      </trkpt>
      <trkpt lat="47.35345" lon="-1.23248">
        <ele>1</ele>
        <time>2014-07-06T13:02:00Z</time>
      </trkpt>
      <trkpt lat="47.35353" lon="-1.23225">
        <ele>11.2</ele>
        <time>2014-07-06T13:02:10Z</time>
      </trkpt>
      <trkpt lat="47.35355" lon="-1.23221">
        <ele>11.4</ele>
        <time>2014-07-06T13:02:12Z</time>
      </trkpt>
      <trkpt lat="47.35357" lon="-1.23215">
        <ele>11.1</ele>
        <time>2014-07-06T13:02:15Z</time>
      </trkpt>
      <trkpt lat="47.35358" lon="-1.23212">
        <ele>10.8</ele>
        <time>2014-07-06T13:02:16Z</time>
      </trkpt>
      <trkpt lat="47.35359" lon="-1.2321">
        <ele>10.8</ele>
        <time>2014-07-06T13:02:17Z</time>
      </trkpt>
      <trkpt lat="47.3536" lon="-1.23209">
        <ele>11</ele>
        <time>2014-07-06T13:02:18Z</time>
      </trkpt>
      <trkpt lat="47.35362" lon="-1.23205">
        <ele>10.9</ele>
        <time>2014-07-06T13:02:20Z</time>
      </trkpt>
      <trkpt lat="47.35364" lon="-1.23198">
        <ele>10.4</ele>
        <time>2014-07-06T13:02:23Z</time>
      </trkpt>
      <trkpt lat="47.35365" lon="-1.23196">
        <ele>10.1</ele>
        <time>2014-07-06T13:02:24Z</time>
      </trkpt>
      <trkpt lat="47.35368" lon="-1.23187">
        <ele>10.1</ele>
        <time>2014-07-06T13:02:28Z</time>
      </trkpt>
      <trkpt lat="47.3537" lon="-1.23184">
        <ele>10.3</ele>
        <time>2014-07-06T13:02:29Z</time>
      </trkpt>
      <trkpt lat="47.3537" lon="-1.23182">
        <ele>10.2</ele>
        <time>2014-07-06T13:02:30Z</time>
      </trkpt>
      <trkpt lat="47.35388" lon="-1.23148">
        <ele>10.1</ele>
        <time>2014-07-06T13:02:44Z</time>
      </trkpt>
      <trkpt lat="47.35413" lon="-1.23103">
        <ele>11.2</ele>
        <time>2014-07-06T13:03:05Z</time>
      </trkpt>
      <trkpt lat="47.35414" lon="-1.23101">
        <ele>11</ele>
        <time>2014-07-06T13:03:06Z</time>
      </trkpt>
      <trkpt lat="47.35414" lon="-1.23098">
        <ele>10.9</ele>
        <time>2014-07-06T13:03:07Z</time>
      </trkpt>
      <trkpt lat="47.35417" lon="-1.23094">
        <ele>11</ele>
        <time>2014-07-06T13:03:09Z</time>
      </trkpt>
      <trkpt lat="47.35429" lon="-1.23069">
        <ele>10.9</ele>
        <time>2014-07-06T13:03:21Z</time>
      </trkpt>
      <trkpt lat="47.3543" lon="-1.23067">
        <ele>11</ele>
        <time>2014-07-06T13:03:22Z</time>
      </trkpt>
      <trkpt lat="47.3545" lon="-1.23026">
        <ele>10.8</ele>
        <time>2014-07-06T13:03:41Z</time>
      </trkpt>
      <trkpt lat="47.35451" lon="-1.23023">
        <ele>11.1</ele>
        <time>2014-07-06T13:03:42Z</time>
      </trkpt>
      <trkpt lat="47.35455" lon="-1.2302">
        <ele>11.9</ele>
        <time>2014-07-06T13:03:44Z</time>
      </trkpt>
      <trkpt lat="47.35459" lon="-1.23014">
        <ele>12.3</ele>
        <time>2014-07-06T13:03:47Z</time>
      </trkpt>
      <trkpt lat="47.35468" lon="-1.22993">
        <ele>11.8</ele>
        <time>2014-07-06T13:03:57Z</time>
      </trkpt>
      <trkpt lat="47.35479" lon="-1.22972">
        <ele>11.6</ele>
        <time>2014-07-06T13:04:07Z</time>
      </trkpt>
      <trkpt lat="47.35488" lon="-1.22951">
        <ele>10.9</ele>
        <time>2014-07-06T13:04:16Z</time>
      </trkpt>
      <trkpt lat="47.35506" lon="-1.22912">
        <ele>10.4</ele>
        <time>2014-07-06T13:04:34Z</time>
      </trkpt>
      <trkpt lat="47.35511" lon="-1.22899">
        <ele>9.7</ele>
        <time>2014-07-06T13:04:40Z</time>
      </trkpt>
      <trkpt lat="47.35511" lon="-1.22897">
        <ele>9.3</ele>
        <time>2014-07-06T13:04:41Z</time>
      </trkpt>
      <trkpt lat="47.35512" lon="-1.22894">
        <ele>9.2</ele>
        <time>2014-07-06T13:04:42Z</time>
      </trkpt>
      <trkpt lat="47.35521" lon="-1.22875">
        <ele>10</ele>
        <time>2014-07-06T13:04:52Z</time>
      </trkpt>
      <trkpt lat="47.35527" lon="-1.22866">
        <ele>9.9</ele>
        <time>2014-07-06T13:04:57Z</time>
      </trkpt>
      <trkpt lat="47.3553" lon="-1.22862">
        <ele>10.1</ele>
        <time>2014-07-06T13:04:59Z</time>
      </trkpt>
      <trkpt lat="47.35531" lon="-1.2286">
        <ele>10.2</ele>
        <time>2014-07-06T13:05:00Z</time>
      </trkpt>
      <trkpt lat="47.35532" lon="-1.22857">
        <ele>10.2</ele>
        <time>2014-07-06T13:05:01Z</time>
      </trkpt>
      <trkpt lat="47.35537" lon="-1.2285">
        <ele>10.7</ele>
        <time>2014-07-06T13:05:04Z</time>
      </trkpt>
      <trkpt lat="47.35538" lon="-1.22848">
        <ele>11.1</ele>
        <time>2014-07-06T13:05:05Z</time>
      </trkpt>
      <trkpt lat="47.35549" lon="-1.22824">
        <ele>10.6</ele>
        <time>2014-07-06T13:05:16Z</time>
      </trkpt>
      <trkpt lat="47.35551" lon="-1.2282">
        <ele>10.5</ele>
        <time>2014-07-06T13:05:18Z</time>
      </trkpt>
      <trkpt lat="47.35554" lon="-1.22816">
        <ele>10.8</ele>
        <time>2014-07-06T13:05:20Z</time>
      </trkpt>
      <trkpt lat="47.35555" lon="-1.22814">
        <ele>10.6</ele>
        <time>2014-07-06T13:05:21Z</time>
      </trkpt>
      <trkpt lat="47.35566" lon="-1.22785">
        <ele>9</ele>
        <time>2014-07-06T13:05:34Z</time>
      </trkpt>
      <trkpt lat="47.35569" lon="-1.22773">
        <ele>-1</ele>
        <time>2014-07-06T13:05:39Z</time>
      </trkpt>
      <trkpt lat="47.35571" lon="-1.22768">
        <ele>-2</ele>
        <time>2014-07-06T13:05:40Z</time>
      </trkpt>
      <trkpt lat="47.35572" lon="-1.22765">
        <ele>-2</ele>
        <time>2014-07-06T13:05:41Z</time>
      </trkpt>
      <trkpt lat="47.35573" lon="-1.22763">
        <ele>-2</ele>
        <time>2014-07-06T13:05:42Z</time>
      </trkpt>
      <trkpt lat="47.3558" lon="-1.22753">
        <ele>-2</ele>
        <time>2014-07-06T13:05:47Z</time>
      </trkpt>
      <trkpt lat="47.35586" lon="-1.22746">
        <ele>-2</ele>
        <time>2014-07-06T13:05:51Z</time>
      </trkpt>
      <trkpt lat="47.35587" lon="-1.22744">
        <ele>-2</ele>
        <time>2014-07-06T13:05:52Z</time>
      </trkpt>
      <trkpt lat="47.35592" lon="-1.22736">
        <ele>-2</ele>
        <time>2014-07-06T13:05:56Z</time>
      </trkpt>
      <trkpt lat="47.35594" lon="-1.22734">
        <ele>-1</ele>
        <time>2014-07-06T13:05:57Z</time>
      </trkpt>
      <trkpt lat="47.35596" lon="-1.22728">
        <ele>-1</ele>
        <time>2014-07-06T13:06:00Z</time>
      </trkpt>
      <trkpt lat="47.35597" lon="-1.22726">
        <ele>-1</ele>
        <time>2014-07-06T13:06:01Z</time>
      </trkpt>
      <trkpt lat="47.356" lon="-1.22721">
        <ele>-1</ele>
        <time>2014-07-06T13:06:04Z</time>
      </trkpt>
      <trkpt lat="47.35602" lon="-1.22718">
        <ele>-1</ele>
        <time>2014-07-06T13:06:06Z</time>
      </trkpt>
      <trkpt lat="47.3561" lon="-1.22699">
        <ele>-1</ele>
        <time>2014-07-06T13:06:15Z</time>
      </trkpt>
      <trkpt lat="47.35611" lon="-1.22697">
        <ele>-1</ele>
        <time>2014-07-06T13:06:16Z</time>
      </trkpt>
      <trkpt lat="47.35623" lon="-1.22671">
        <ele>-1</ele>
        <time>2014-07-06T13:06:28Z</time>
      </trkpt>
      <trkpt lat="47.35632" lon="-1.22655">
        <ele>-1</ele>
        <time>2014-07-06T13:06:36Z</time>
      </trkpt>
      <trkpt lat="47.35642" lon="-1.22633">
        <ele>-1</ele>
        <time>2014-07-06T13:06:46Z</time>
      </trkpt>
      <trkpt lat="47.35644" lon="-1.2263">
        <ele>-1</ele>
        <time>2014-07-06T13:06:48Z</time>
      </trkpt>
      <trkpt lat="47.35645" lon="-1.22628">
        <ele>-1</ele>
        <time>2014-07-06T13:06:49Z</time>
      </trkpt>
      <trkpt lat="47.35648" lon="-1.22622">
        <ele>-1</ele>
        <time>2014-07-06T13:06:52Z</time>
      </trkpt>
      <trkpt lat="47.3565" lon="-1.22619">
        <ele>-1</ele>
        <time>2014-07-06T13:06:53Z</time>
      </trkpt>
      <trkpt lat="47.35653" lon="-1.22614">
        <ele>-1</ele>
        <time>2014-07-06T13:06:55Z</time>
      </trkpt>
      <trkpt lat="47.3568" lon="-1.22558">
        <ele>-1</ele>
        <time>2014-07-06T13:07:19Z</time>
      </trkpt>
      <trkpt lat="47.35691" lon="-1.22539">
        <ele>-1</ele>
        <time>2014-07-06T13:07:28Z</time>
      </trkpt>
      <trkpt lat="47.35713" lon="-1.22493">
        <ele>-1</ele>
        <time>2014-07-06T13:07:48Z</time>
      </trkpt>
      <trkpt lat="47.35728" lon="-1.22466">
        <ele>-1</ele>
        <time>2014-07-06T13:08:00Z</time>
      </trkpt>
      <trkpt lat="47.35728" lon="-1.22464">
        <ele>-1</ele>
        <time>2014-07-06T13:08:01Z</time>
      </trkpt>
      <trkpt lat="47.35731" lon="-1.2246">
        <ele>-1</ele>
        <time>2014-07-06T13:08:03Z</time>
      </trkpt>
      <trkpt lat="47.35732" lon="-1.22457">
        <ele>-1</ele>
        <time>2014-07-06T13:08:04Z</time>
      </trkpt>
      <trkpt lat="47.35733" lon="-1.22453">
        <ele>-1</ele>
        <time>2014-07-06T13:08:06Z</time>
      </trkpt>
      <trkpt lat="47.35734" lon="-1.2245">
        <ele>-1</ele>
        <time>2014-07-06T13:08:07Z</time>
      </trkpt>
      <trkpt lat="47.35735" lon="-1.22449">
        <ele>-1</ele>
        <time>2014-07-06T13:08:08Z</time>
      </trkpt>
      <trkpt lat="47.35741" lon="-1.22433">
        <ele>-1</ele>
        <time>2014-07-06T13:08:15Z</time>
      </trkpt>
      <trkpt lat="47.35741" lon="-1.22416">
        <ele>-1</ele>
        <time>2014-07-06T13:08:24Z</time>
      </trkpt>
      <trkpt lat="47.35731" lon="-1.22401">
        <ele>-1</ele>
        <time>2014-07-06T13:08:34Z</time>
      </trkpt>
      <trkpt lat="47.35719" lon="-1.22389">
        <ele>-1</ele>
        <time>2014-07-06T13:08:42Z</time>
      </trkpt>
      <trkpt lat="47.35713" lon="-1.2238">
        <ele>-1</ele>
        <time>2014-07-06T13:08:46Z</time>
      </trkpt>
      <trkpt lat="47.35712" lon="-1.22378">
        <ele>-1</ele>
        <time>2014-07-06T13:08:47Z</time>
      </trkpt>
      <trkpt lat="47.35708" lon="-1.22354">
        <ele>-1</ele>
        <time>2014-07-06T13:08:56Z</time>
      </trkpt>
      <trkpt lat="47.35711" lon="-1.2232">
        <ele>-1</ele>
        <time>2014-07-06T13:09:08Z</time>
      </trkpt>
      <trkpt lat="47.35715" lon="-1.22284">
        <ele>-1</ele>
        <time>2014-07-06T13:09:21Z</time>
      </trkpt>
      <trkpt lat="47.35717" lon="-1.22257">
        <ele>-1</ele>
        <time>2014-07-06T13:09:31Z</time>
      </trkpt>
      <trkpt lat="47.35722" lon="-1.22225">
        <ele>-1</ele>
        <time>2014-07-06T13:09:43Z</time>
      </trkpt>
      <trkpt lat="47.35722" lon="-1.22216">
        <ele>-1</ele>
        <time>2014-07-06T13:09:46Z</time>
      </trkpt>
      <trkpt lat="47.35722" lon="-1.22213">
        <ele>-1</ele>
        <time>2014-07-06T13:09:47Z</time>
      </trkpt>
      <trkpt lat="47.35722" lon="-1.22208">
        <ele>-1</ele>
        <time>2014-07-06T13:09:49Z</time>
      </trkpt>
      <trkpt lat="47.35724" lon="-1.22197">
        <ele>-1</ele>
        <time>2014-07-06T13:09:53Z</time>
      </trkpt>
      <trkpt lat="47.3573" lon="-1.22144">
        <ele>-1</ele>
        <time>2014-07-06T13:10:13Z</time>
      </trkpt>
      <trkpt lat="47.35732" lon="-1.22131">
        <ele>-1</ele>
        <time>2014-07-06T13:10:18Z</time>
      </trkpt>
      <trkpt lat="47.35734" lon="-1.22115">
        <ele>-1</ele>
        <time>2014-07-06T13:10:24Z</time>
      </trkpt>
      <trkpt lat="47.35738" lon="-1.22086">
        <ele>-1</ele>
        <time>2014-07-06T13:10:35Z</time>
      </trkpt>
      <trkpt lat="47.35742" lon="-1.22056">
        <ele>-1</ele>
        <time>2014-07-06T13:10:46Z</time>
      </trkpt>
      <trkpt lat="47.35744" lon="-1.22029">
        <ele>-1</ele>
        <time>2014-07-06T13:10:57Z</time>
      </trkpt>
      <trkpt lat="47.35748" lon="-1.22001">
        <ele>-1</ele>
        <time>2014-07-06T13:11:07Z</time>
      </trkpt>
      <trkpt lat="47.35751" lon="-1.21973">
        <ele>-1</ele>
        <time>2014-07-06T13:11:18Z</time>
      </trkpt>
      <trkpt lat="47.35758" lon="-1.21918">
        <ele>-1</ele>
        <time>2014-07-06T13:11:38Z</time>
      </trkpt>
      <trkpt lat="47.3576" lon="-1.2189">
        <ele>-1</ele>
        <time>2014-07-06T13:11:49Z</time>
      </trkpt>
      <trkpt lat="47.35765" lon="-1.2186">
        <ele>-1</ele>
        <time>2014-07-06T13:12:00Z</time>
      </trkpt>
      <trkpt lat="47.35769" lon="-1.2183">
        <ele>-1</ele>
        <time>2014-07-06T13:12:11Z</time>
      </trkpt>
      <trkpt lat="47.35771" lon="-1.21818">
        <ele>-1</ele>
        <time>2014-07-06T13:12:16Z</time>
      </trkpt>
      <trkpt lat="47.35771" lon="-1.21815">
        <ele>-1</ele>
        <time>2014-07-06T13:12:17Z</time>
      </trkpt>
      <trkpt lat="47.35772" lon="-1.21813">
        <ele>-1</ele>
        <time>2014-07-06T13:12:18Z</time>
      </trkpt>
      <trkpt lat="47.35773" lon="-1.21808">
        <ele>-1</ele>
        <time>2014-07-06T13:12:20Z</time>
      </trkpt>
      <trkpt lat="47.35775" lon="-1.21797">
        <ele>-1</ele>
        <time>2014-07-06T13:12:24Z</time>
      </trkpt>
      <trkpt lat="47.35777" lon="-1.2179">
        <ele>-1</ele>
        <time>2014-07-06T13:12:27Z</time>
      </trkpt>
      <trkpt lat="47.35778" lon="-1.21787">
        <ele>-1</ele>
        <time>2014-07-06T13:12:28Z</time>
      </trkpt>
      <trkpt lat="47.3578" lon="-1.2178">
        <ele>-1</ele>
        <time>2014-07-06T13:12:31Z</time>
      </trkpt>
      <trkpt lat="47.3578" lon="-1.21778">
        <ele>-1</ele>
        <time>2014-07-06T13:12:32Z</time>
      </trkpt>
      <trkpt lat="47.35781" lon="-1.21767">
        <ele>-1</ele>
        <time>2014-07-06T13:12:36Z</time>
      </trkpt>
      <trkpt lat="47.35782" lon="-1.21762">
        <ele>-1</ele>
        <time>2014-07-06T13:12:38Z</time>
      </trkpt>
      <trkpt lat="47.35782" lon="-1.21757">
        <ele>-1</ele>
        <time>2014-07-06T13:12:40Z</time>
      </trkpt>
      <trkpt lat="47.35783" lon="-1.21752">
        <ele>-1</ele>
        <time>2014-07-06T13:12:42Z</time>
      </trkpt>
      <trkpt lat="47.35782" lon="-1.2175">
        <ele>-1</ele>
        <time>2014-07-06T13:12:43Z</time>
      </trkpt>
      <trkpt lat="47.35783" lon="-1.21747">
        <ele>-1</ele>
        <time>2014-07-06T13:12:44Z</time>
      </trkpt>
      <trkpt lat="47.35785" lon="-1.21737">
        <ele>-1</ele>
        <time>2014-07-06T13:12:48Z</time>
      </trkpt>
      <trkpt lat="47.35786" lon="-1.21732">
        <ele>-1</ele>
        <time>2014-07-06T13:12:50Z</time>
      </trkpt>
      <trkpt lat="47.35786" lon="-1.2173">
        <ele>-1</ele>
        <time>2014-07-06T13:12:51Z</time>
      </trkpt>
      <trkpt lat="47.35789" lon="-1.21712">
        <ele>-1</ele>
        <time>2014-07-06T13:12:58Z</time>
      </trkpt>
      <trkpt lat="47.3579" lon="-1.2171">
        <ele>-1</ele>
        <time>2014-07-06T13:12:59Z</time>
      </trkpt>
      <trkpt lat="47.35791" lon="-1.21698">
        <ele>-1</ele>
        <time>2014-07-06T13:13:03Z</time>
      </trkpt>
      <trkpt lat="47.35791" lon="-1.21696">
        <ele>-1</ele>
        <time>2014-07-06T13:13:04Z</time>
      </trkpt>
      <trkpt lat="47.35792" lon="-1.21689">
        <ele>-1</ele>
        <time>2014-07-06T13:13:07Z</time>
      </trkpt>
      <trkpt lat="47.358" lon="-1.21661">
        <ele>-1</ele>
        <time>2014-07-06T13:13:17Z</time>
      </trkpt>
      <trkpt lat="47.35806" lon="-1.21643">
        <ele>-1</ele>
        <time>2014-07-06T13:13:24Z</time>
      </trkpt>
      <trkpt lat="47.35805" lon="-1.2164">
        <ele>-1</ele>
        <time>2014-07-06T13:13:25Z</time>
      </trkpt>
      <trkpt lat="47.35807" lon="-1.21607">
        <ele>-1</ele>
        <time>2014-07-06T13:13:37Z</time>
      </trkpt>
      <trkpt lat="47.35808" lon="-1.21602">
        <ele>-1</ele>
        <time>2014-07-06T13:13:39Z</time>
      </trkpt>
      <trkpt lat="47.35809" lon="-1.21599">
        <ele>-1</ele>
        <time>2014-07-06T13:13:40Z</time>
      </trkpt>
      <trkpt lat="47.3581" lon="-1.21594">
        <ele>-1</ele>
        <time>2014-07-06T13:13:42Z</time>
      </trkpt>
      <trkpt lat="47.35812" lon="-1.2158">
        <ele>-1</ele>
        <time>2014-07-06T13:13:47Z</time>
      </trkpt>
      <trkpt lat="47.35815" lon="-1.21575">
        <ele>-1</ele>
        <time>2014-07-06T13:13:49Z</time>
      </trkpt>
      <trkpt lat="47.35815" lon="-1.21573">
        <ele>-1</ele>
        <time>2014-07-06T13:13:50Z</time>
      </trkpt>
      <trkpt lat="47.35816" lon="-1.21571">
        <ele>-1</ele>
        <time>2014-07-06T13:13:51Z</time>
      </trkpt>
      <trkpt lat="47.35816" lon="-1.21566">
        <ele>-1</ele>
        <time>2014-07-06T13:13:53Z</time>
      </trkpt>
      <trkpt lat="47.35815" lon="-1.21564">
        <ele>-1</ele>
        <time>2014-07-06T13:13:54Z</time>
      </trkpt>
      <trkpt lat="47.35815" lon="-1.21562">
        <ele>-1</ele>
        <time>2014-07-06T13:13:55Z</time>
      </trkpt>
      <trkpt lat="47.35817" lon="-1.21557">
        <ele>-1</ele>
        <time>2014-07-06T13:13:57Z</time>
      </trkpt>
      <trkpt lat="47.35818" lon="-1.2155">
        <ele>-1</ele>
        <time>2014-07-06T13:14:00Z</time>
      </trkpt>
      <trkpt lat="47.35819" lon="-1.21547">
        <ele>-1</ele>
        <time>2014-07-06T13:14:01Z</time>
      </trkpt>
      <trkpt lat="47.35822" lon="-1.21542">
        <ele>-1</ele>
        <time>2014-07-06T13:14:03Z</time>
      </trkpt>
      <trkpt lat="47.35824" lon="-1.2154">
        <ele>-1</ele>
        <time>2014-07-06T13:14:04Z</time>
      </trkpt>
      <trkpt lat="47.35826" lon="-1.21532">
        <ele>-1</ele>
        <time>2014-07-06T13:14:07Z</time>
      </trkpt>
      <trkpt lat="47.35826" lon="-1.2153">
        <ele>-1</ele>
        <time>2014-07-06T13:14:08Z</time>
      </trkpt>
      <trkpt lat="47.35826" lon="-1.21527">
        <ele>-1</ele>
        <time>2014-07-06T13:14:09Z</time>
      </trkpt>
      <trkpt lat="47.35827" lon="-1.21525">
        <ele>-1</ele>
        <time>2014-07-06T13:14:10Z</time>
      </trkpt>
      <trkpt lat="47.35827" lon="-1.21519">
        <ele>-1</ele>
        <time>2014-07-06T13:14:12Z</time>
      </trkpt>
      <trkpt lat="47.35829" lon="-1.21512">
        <ele>-1</ele>
        <time>2014-07-06T13:14:15Z</time>
      </trkpt>
      <trkpt lat="47.3583" lon="-1.21509">
        <ele>-1</ele>
        <time>2014-07-06T13:14:16Z</time>
      </trkpt>
      <trkpt lat="47.3583" lon="-1.21507">
        <ele>-1</ele>
        <time>2014-07-06T13:14:17Z</time>
      </trkpt>
      <trkpt lat="47.35834" lon="-1.21478">
        <ele>-1</ele>
        <time>2014-07-06T13:14:28Z</time>
      </trkpt>
      <trkpt lat="47.35837" lon="-1.21468">
        <ele>-1</ele>
        <time>2014-07-06T13:14:32Z</time>
      </trkpt>
      <trkpt lat="47.35838" lon="-1.21466">
        <ele>-1</ele>
        <time>2014-07-06T13:14:33Z</time>
      </trkpt>
      <trkpt lat="47.35847" lon="-1.21437">
        <ele>-1</ele>
        <time>2014-07-06T13:14:46Z</time>
      </trkpt>
      <trkpt lat="47.35853" lon="-1.21414">
        <ele>-1</ele>
        <time>2014-07-06T13:14:57Z</time>
      </trkpt>
      <trkpt lat="47.35853" lon="-1.21412">
        <ele>-1</ele>
        <time>2014-07-06T13:14:58Z</time>
      </trkpt>
      <trkpt lat="47.35854" lon="-1.21411">
        <ele>-1</ele>
        <time>2014-07-06T13:14:59Z</time>
      </trkpt>
      <trkpt lat="47.35856" lon="-1.21406">
        <ele>-1</ele>
        <time>2014-07-06T13:15:01Z</time>
      </trkpt>
      <trkpt lat="47.35856" lon="-1.21403">
        <ele>-1</ele>
        <time>2014-07-06T13:15:02Z</time>
      </trkpt>
      <trkpt lat="47.35856" lon="-1.21399">
        <ele>-1</ele>
        <time>2014-07-06T13:15:03Z</time>
      </trkpt>
      <trkpt lat="47.35861" lon="-1.21369">
        <ele>8</ele>
        <time>2014-07-06T13:15:14Z</time>
      </trkpt>
      <trkpt lat="47.35867" lon="-1.21345">
        <ele>8</ele>
        <time>2014-07-06T13:15:23Z</time>
      </trkpt>
      <trkpt lat="47.35869" lon="-1.2131">
        <ele>8</ele>
        <time>2014-07-06T13:15:36Z</time>
      </trkpt>
      <trkpt lat="47.35869" lon="-1.21299">
        <ele>8</ele>
        <time>2014-07-06T13:15:40Z</time>
      </trkpt>
      <trkpt lat="47.3587" lon="-1.21294">
        <ele>8</ele>
        <time>2014-07-06T13:15:43Z</time>
      </trkpt>
      <trkpt lat="47.3587" lon="-1.21291">
        <ele>8</ele>
        <time>2014-07-06T13:15:44Z</time>
      </trkpt>
      <trkpt lat="47.35872" lon="-1.21287">
        <ele>8</ele>
        <time>2014-07-06T13:15:46Z</time>
      </trkpt>
      <trkpt lat="47.35875" lon="-1.21271">
        <ele>8</ele>
        <time>2014-07-06T13:15:53Z</time>
      </trkpt>
      <trkpt lat="47.35874" lon="-1.21268">
        <ele>8</ele>
        <time>2014-07-06T13:15:54Z</time>
      </trkpt>
      <trkpt lat="47.35876" lon="-1.21262">
        <ele>8</ele>
        <time>2014-07-06T13:15:56Z</time>
      </trkpt>
      <trkpt lat="47.35876" lon="-1.21259">
        <ele>8</ele>
        <time>2014-07-06T13:15:57Z</time>
      </trkpt>
      <trkpt lat="47.35875" lon="-1.21252">
        <ele>8</ele>
        <time>2014-07-06T13:16:02Z</time>
      </trkpt>
      <trkpt lat="47.35873" lon="-1.21248">
        <ele>8</ele>
        <time>2014-07-06T13:16:05Z</time>
      </trkpt>
      <trkpt lat="47.35866" lon="-1.21241">
        <ele>8</ele>
        <time>2014-07-06T13:16:11Z</time>
      </trkpt>
      <trkpt lat="47.35863" lon="-1.21239">
        <ele>-1</ele>
        <time>2014-07-06T13:16:13Z</time>
      </trkpt>
      <trkpt lat="47.3585" lon="-1.21228">
        <ele>-1</ele>
        <time>2014-07-06T13:16:23Z</time>
      </trkpt>
      <trkpt lat="47.35821" lon="-1.21204">
        <ele>-1</ele>
        <time>2014-07-06T13:16:41Z</time>
      </trkpt>
      <trkpt lat="47.35811" lon="-1.21199">
        <ele>-1</ele>
        <time>2014-07-06T13:16:51Z</time>
      </trkpt>
      <trkpt lat="47.35808" lon="-1.21193">
        <ele>8</ele>
        <time>2014-07-06T13:17:10Z</time>
      </trkpt>
      <trkpt lat="47.35805" lon="-1.21196">
        <ele>8</ele>
        <time>2014-07-06T13:17:26Z</time>
      </trkpt>
      <trkpt lat="47.35791" lon="-1.21182">
        <ele>1</ele>
        <time>2014-07-06T13:17:38Z</time>
      </trkpt>
      <trkpt lat="47.35772" lon="-1.21168">
        <ele>1</ele>
        <time>2014-07-06T13:17:50Z</time>
      </trkpt>
      <trkpt lat="47.35771" lon="-1.21162">
        <ele>1</ele>
        <time>2014-07-06T13:17:53Z</time>
      </trkpt>
      <trkpt lat="47.35771" lon="-1.21151">
        <ele>1</ele>
        <time>2014-07-06T13:17:57Z</time>
      </trkpt>
      <trkpt lat="47.3577" lon="-1.21147">
        <ele>1</ele>
        <time>2014-07-06T13:17:58Z</time>
      </trkpt>
      <trkpt lat="47.35772" lon="-1.2112">
        <ele>1</ele>
        <time>2014-07-06T13:18:10Z</time>
      </trkpt>
      <trkpt lat="47.35772" lon="-1.21096">
        <ele>1</ele>
        <time>2014-07-06T13:18:19Z</time>
      </trkpt>
      <trkpt lat="47.35775" lon="-1.21079">
        <ele>1</ele>
        <time>2014-07-06T13:18:26Z</time>
      </trkpt>
      <trkpt lat="47.35776" lon="-1.21067">
        <ele>1</ele>
        <time>2014-07-06T13:18:30Z</time>
      </trkpt>
      <trkpt lat="47.35775" lon="-1.2104">
        <ele>1</ele>
        <time>2014-07-06T13:18:39Z</time>
      </trkpt>
      <trkpt lat="47.35773" lon="-1.21021">
        <ele>1</ele>
        <time>2014-07-06T13:18:48Z</time>
      </trkpt>
      <trkpt lat="47.35771" lon="-1.21003">
        <ele>1</ele>
        <time>2014-07-06T13:18:56Z</time>
      </trkpt>
      <trkpt lat="47.35771" lon="-1.20969">
        <ele>1</ele>
        <time>2014-07-06T13:19:09Z</time>
      </trkpt>
      <trkpt lat="47.35771" lon="-1.20957">
        <ele>1</ele>
        <time>2014-07-06T13:19:13Z</time>
      </trkpt>
      <trkpt lat="47.35772" lon="-1.20927">
        <ele>8.8</ele>
        <time>2014-07-06T13:19:24Z</time>
      </trkpt>
      <trkpt lat="47.35774" lon="-1.20874">
        <ele>8.8</ele>
        <time>2014-07-06T13:19:47Z</time>
      </trkpt>
      <trkpt lat="47.35777" lon="-1.2084">
        <ele>8.2</ele>
        <time>2014-07-06T13:19:58Z</time>
      </trkpt>
      <trkpt lat="47.35778" lon="-1.20801">
        <ele>8</ele>
        <time>2014-07-06T13:20:08Z</time>
      </trkpt>
      <trkpt lat="47.35779" lon="-1.20798">
        <ele>8</ele>
        <time>2014-07-06T13:20:09Z</time>
      </trkpt>
      <trkpt lat="47.35783" lon="-1.20769">
        <ele>8.2</ele>
        <time>2014-07-06T13:20:20Z</time>
      </trkpt>
      <trkpt lat="47.35784" lon="-1.20753">
        <ele>8.2</ele>
        <time>2014-07-06T13:20:26Z</time>
      </trkpt>
      <trkpt lat="47.35783" lon="-1.20751">
        <ele>8.2</ele>
        <time>2014-07-06T13:20:27Z</time>
      </trkpt>
      <trkpt lat="47.35783" lon="-1.20748">
        <ele>8.2</ele>
        <time>2014-07-06T13:20:28Z</time>
      </trkpt>
      <trkpt lat="47.35784" lon="-1.20745">
        <ele>8.2</ele>
        <time>2014-07-06T13:20:29Z</time>
      </trkpt>
      <trkpt lat="47.35787" lon="-1.20726">
        <ele>8.3</ele>
        <time>2014-07-06T13:20:38Z</time>
      </trkpt>
      <trkpt lat="47.35787" lon="-1.20721">
        <ele>8.3</ele>
        <time>2014-07-06T13:20:40Z</time>
      </trkpt>
      <trkpt lat="47.35793" lon="-1.2069">
        <ele>8.6</ele>
        <time>2014-07-06T13:20:50Z</time>
      </trkpt>
      <trkpt lat="47.35798" lon="-1.20662">
        <ele>-1</ele>
        <time>2014-07-06T13:21:00Z</time>
      </trkpt>
      <trkpt lat="47.35802" lon="-1.20607">
        <ele>-1</ele>
        <time>2014-07-06T13:21:19Z</time>
      </trkpt>
      <trkpt lat="47.35803" lon="-1.20589">
        <ele>-1</ele>
        <time>2014-07-06T13:21:26Z</time>
      </trkpt>
      <trkpt lat="47.35807" lon="-1.20561">
        <ele>-1</ele>
        <time>2014-07-06T13:21:37Z</time>
      </trkpt>
      <trkpt lat="47.35807" lon="-1.20535">
        <ele>-1</ele>
        <time>2014-07-06T13:21:47Z</time>
      </trkpt>
      <trkpt lat="47.35806" lon="-1.2051">
        <ele>-1</ele>
        <time>2014-07-06T13:21:57Z</time>
      </trkpt>
      <trkpt lat="47.35803" lon="-1.20483">
        <ele>-1</ele>
        <time>2014-07-06T13:22:07Z</time>
      </trkpt>
      <trkpt lat="47.358" lon="-1.2047">
        <ele>-1</ele>
        <time>2014-07-06T13:22:15Z</time>
      </trkpt>
      <trkpt lat="47.35799" lon="-1.2047">
        <ele>-1</ele>
        <time>2014-07-06T13:22:16Z</time>
      </trkpt>
      <trkpt lat="47.35783" lon="-1.20472">
        <ele>9</ele>
        <time>2014-07-06T13:22:27Z</time>
      </trkpt>
      <trkpt lat="47.35763" lon="-1.20479">
        <ele>1</ele>
        <time>2014-07-06T13:22:39Z</time>
      </trkpt>
      <trkpt lat="47.35743" lon="-1.20483">
        <ele>1</ele>
        <time>2014-07-06T13:22:49Z</time>
      </trkpt>
      <trkpt lat="47.35737" lon="-1.20486">
        <ele>1</ele>
        <time>2014-07-06T13:22:53Z</time>
      </trkpt>
      <trkpt lat="47.35732" lon="-1.20486">
        <ele>1</ele>
        <time>2014-07-06T13:22:56Z</time>
      </trkpt>
      <trkpt lat="47.35731" lon="-1.20486">
        <ele>1</ele>
        <time>2014-07-06T13:22:57Z</time>
      </trkpt>
      <trkpt lat="47.35727" lon="-1.20488">
        <ele>1</ele>
        <time>2014-07-06T13:22:59Z</time>
      </trkpt>
      <trkpt lat="47.35723" lon="-1.20491">
        <ele>1</ele>
        <time>2014-07-06T13:23:02Z</time>
      </trkpt>
      <trkpt lat="47.35707" lon="-1.20494">
        <ele>1</ele>
        <time>2014-07-06T13:23:11Z</time>
      </trkpt>
      <trkpt lat="47.35701" lon="-1.205">
        <ele>1</ele>
        <time>2014-07-06T13:23:19Z</time>
      </trkpt>
      <trkpt lat="47.35685" lon="-1.20503">
        <ele>1</ele>
        <time>2014-07-06T13:23:29Z</time>
      </trkpt>
      <trkpt lat="47.3568" lon="-1.20505">
        <ele>1</ele>
        <time>2014-07-06T13:23:31Z</time>
      </trkpt>
      <trkpt lat="47.35677" lon="-1.20506">
        <ele>1</ele>
        <time>2014-07-06T13:23:32Z</time>
      </trkpt>
      <trkpt lat="47.35664" lon="-1.20511">
        <ele>-1</ele>
        <time>2014-07-06T13:23:38Z</time>
      </trkpt>
      <trkpt lat="47.35661" lon="-1.20511">
        <ele>-1</ele>
        <time>2014-07-06T13:23:39Z</time>
      </trkpt>
      <trkpt lat="47.35655" lon="-1.20512">
        <ele>-1</ele>
        <time>2014-07-06T13:23:42Z</time>
      </trkpt>
      <trkpt lat="47.35651" lon="-1.20512">
        <ele>-1</ele>
        <time>2014-07-06T13:23:44Z</time>
      </trkpt>
      <trkpt lat="47.35644" lon="-1.20509">
        <ele>-1</ele>
        <time>2014-07-06T13:23:50Z</time>
      </trkpt>
      <trkpt lat="47.35636" lon="-1.20483">
        <ele>-1</ele>
        <time>2014-07-06T13:24:00Z</time>
      </trkpt>
      <trkpt lat="47.35635" lon="-1.20473">
        <ele>-1</ele>
        <time>2014-07-06T13:24:03Z</time>
      </trkpt>
      <trkpt lat="47.35633" lon="-1.20466">
        <ele>1</ele>
        <time>2014-07-06T13:24:05Z</time>
      </trkpt>
      <trkpt lat="47.3563" lon="-1.20457">
        <ele>1</ele>
        <time>2014-07-06T13:24:08Z</time>
      </trkpt>
      <trkpt lat="47.35626" lon="-1.20431">
        <ele>1</ele>
        <time>2014-07-06T13:24:18Z</time>
      </trkpt>
      <trkpt lat="47.35624" lon="-1.20405">
        <ele>1</ele>
        <time>2014-07-06T13:24:27Z</time>
      </trkpt>
      <trkpt lat="47.35619" lon="-1.20379">
        <ele>1</ele>
        <time>2014-07-06T13:24:36Z</time>
      </trkpt>
      <trkpt lat="47.3561" lon="-1.2033">
        <ele>1</ele>
        <time>2014-07-06T13:24:56Z</time>
      </trkpt>
      <trkpt lat="47.35607" lon="-1.20303">
        <ele>7.4</ele>
        <time>2014-07-06T13:25:07Z</time>
      </trkpt>
      <trkpt lat="47.35606" lon="-1.20281">
        <ele>7.2</ele>
        <time>2014-07-06T13:25:16Z</time>
      </trkpt>
      <trkpt lat="47.35607" lon="-1.20257">
        <ele>8</ele>
        <time>2014-07-06T13:25:25Z</time>
      </trkpt>
      <trkpt lat="47.35611" lon="-1.20234">
        <ele>8.9</ele>
        <time>2014-07-06T13:25:35Z</time>
      </trkpt>
      <trkpt lat="47.35612" lon="-1.20223">
        <ele>9</ele>
        <time>2014-07-06T13:25:42Z</time>
      </trkpt>
      <trkpt lat="47.35611" lon="-1.20213">
        <ele>1</ele>
        <time>2014-07-06T13:25:46Z</time>
      </trkpt>
      <trkpt lat="47.35602" lon="-1.20183">
        <ele>1</ele>
        <time>2014-07-06T13:25:57Z</time>
      </trkpt>
      <trkpt lat="47.35598" lon="-1.20156">
        <ele>1</ele>
        <time>2014-07-06T13:26:08Z</time>
      </trkpt>
      <trkpt lat="47.35596" lon="-1.20136">
        <ele>1</ele>
        <time>2014-07-06T13:26:17Z</time>
      </trkpt>
      <trkpt lat="47.35597" lon="-1.20126">
        <ele>1</ele>
        <time>2014-07-06T13:26:23Z</time>
      </trkpt>
      <trkpt lat="47.35594" lon="-1.20119">
        <ele>1</ele>
        <time>2014-07-06T13:26:26Z</time>
      </trkpt>
      <trkpt lat="47.35593" lon="-1.20116">
        <ele>1</ele>
        <time>2014-07-06T13:26:27Z</time>
      </trkpt>
      <trkpt lat="47.35596" lon="-1.20088">
        <ele>1</ele>
        <time>2014-07-06T13:26:38Z</time>
      </trkpt>
      <trkpt lat="47.35596" lon="-1.20085">
        <ele>1</ele>
        <time>2014-07-06T13:26:39Z</time>
      </trkpt>
      <trkpt lat="47.35597" lon="-1.20056">
        <ele>1</ele>
        <time>2014-07-06T13:26:50Z</time>
      </trkpt>
      <trkpt lat="47.35597" lon="-1.20051">
        <ele>1</ele>
        <time>2014-07-06T13:26:52Z</time>
      </trkpt>
      <trkpt lat="47.35597" lon="-1.20049">
        <ele>1</ele>
        <time>2014-07-06T13:26:53Z</time>
      </trkpt>
      <trkpt lat="47.35599" lon="-1.20036">
        <ele>1</ele>
        <time>2014-07-06T13:26:58Z</time>
      </trkpt>
      <trkpt lat="47.356" lon="-1.20031">
        <ele>1</ele>
        <time>2014-07-06T13:27:00Z</time>
      </trkpt>
      <trkpt lat="47.35603" lon="-1.20025">
        <ele>1</ele>
        <time>2014-07-06T13:27:03Z</time>
      </trkpt>
      <trkpt lat="47.35606" lon="-1.20017">
        <ele>1</ele>
        <time>2014-07-06T13:27:06Z</time>
      </trkpt>
      <trkpt lat="47.35607" lon="-1.20015">
        <ele>1</ele>
        <time>2014-07-06T13:27:07Z</time>
      </trkpt>
      <trkpt lat="47.35607" lon="-1.20013">
        <ele>1</ele>
        <time>2014-07-06T13:27:08Z</time>
      </trkpt>
      <trkpt lat="47.35607" lon="-1.2001">
        <ele>1</ele>
        <time>2014-07-06T13:27:09Z</time>
      </trkpt>
      <trkpt lat="47.35608" lon="-1.20008">
        <ele>1</ele>
        <time>2014-07-06T13:27:10Z</time>
      </trkpt>
      <trkpt lat="47.3561" lon="-1.20001">
        <ele>1</ele>
        <time>2014-07-06T13:27:13Z</time>
      </trkpt>
      <trkpt lat="47.35611" lon="-1.19995">
        <ele>1</ele>
        <time>2014-07-06T13:27:15Z</time>
      </trkpt>
      <trkpt lat="47.35613" lon="-1.19989">
        <ele>1</ele>
        <time>2014-07-06T13:27:17Z</time>
      </trkpt>
      <trkpt lat="47.35613" lon="-1.1998">
        <ele>1</ele>
        <time>2014-07-06T13:27:20Z</time>
      </trkpt>
      <trkpt lat="47.35615" lon="-1.19952">
        <ele>1</ele>
        <time>2014-07-06T13:27:30Z</time>
      </trkpt>
      <trkpt lat="47.35619" lon="-1.1993">
        <ele>1</ele>
        <time>2014-07-06T13:27:39Z</time>
      </trkpt>
      <trkpt lat="47.3562" lon="-1.19928">
        <ele>1</ele>
        <time>2014-07-06T13:27:40Z</time>
      </trkpt>
      <trkpt lat="47.35626" lon="-1.19915">
        <ele>1</ele>
        <time>2014-07-06T13:27:47Z</time>
      </trkpt>
      <trkpt lat="47.35628" lon="-1.19911">
        <ele>1</ele>
        <time>2014-07-06T13:27:49Z</time>
      </trkpt>
      <trkpt lat="47.35632" lon="-1.19905">
        <ele>1</ele>
        <time>2014-07-06T13:27:53Z</time>
      </trkpt>
      <trkpt lat="47.35632" lon="-1.19903">
        <ele>1</ele>
        <time>2014-07-06T13:27:54Z</time>
      </trkpt>
      <trkpt lat="47.35634" lon="-1.19898">
        <ele>1</ele>
        <time>2014-07-06T13:27:56Z</time>
      </trkpt>
      <trkpt lat="47.35642" lon="-1.19869">
        <ele>1</ele>
        <time>2014-07-06T13:28:07Z</time>
      </trkpt>
      <trkpt lat="47.35654" lon="-1.19852">
        <ele>1</ele>
        <time>2014-07-06T13:28:15Z</time>
      </trkpt>
      <trkpt lat="47.35663" lon="-1.19831">
        <ele>8.9</ele>
        <time>2014-07-06T13:28:23Z</time>
      </trkpt>
      <trkpt lat="47.35674" lon="-1.19806">
        <ele>-1</ele>
        <time>2014-07-06T13:28:35Z</time>
      </trkpt>
      <trkpt lat="47.35677" lon="-1.19797">
        <ele>-1</ele>
        <time>2014-07-06T13:28:39Z</time>
      </trkpt>
      <trkpt lat="47.35679" lon="-1.19792">
        <ele>-1</ele>
        <time>2014-07-06T13:28:41Z</time>
      </trkpt>
      <trkpt lat="47.35681" lon="-1.19787">
        <ele>-1</ele>
        <time>2014-07-06T13:28:43Z</time>
      </trkpt>
      <trkpt lat="47.35682" lon="-1.19782">
        <ele>-1</ele>
        <time>2014-07-06T13:28:45Z</time>
      </trkpt>
      <trkpt lat="47.35684" lon="-1.19777">
        <ele>-1</ele>
        <time>2014-07-06T13:28:47Z</time>
      </trkpt>
      <trkpt lat="47.35684" lon="-1.19772">
        <ele>-1</ele>
        <time>2014-07-06T13:28:49Z</time>
      </trkpt>
      <trkpt lat="47.35686" lon="-1.19766">
        <ele>-1</ele>
        <time>2014-07-06T13:28:52Z</time>
      </trkpt>
      <trkpt lat="47.35686" lon="-1.19763">
        <ele>-1</ele>
        <time>2014-07-06T13:28:53Z</time>
      </trkpt>
      <trkpt lat="47.35689" lon="-1.19757">
        <ele>-1</ele>
        <time>2014-07-06T13:28:56Z</time>
      </trkpt>
      <trkpt lat="47.35695" lon="-1.19727">
        <ele>-1</ele>
        <time>2014-07-06T13:29:07Z</time>
      </trkpt>
      <trkpt lat="47.35695" lon="-1.19724">
        <ele>-1</ele>
        <time>2014-07-06T13:29:08Z</time>
      </trkpt>
      <trkpt lat="47.357" lon="-1.19706">
        <ele>-1</ele>
        <time>2014-07-06T13:29:16Z</time>
      </trkpt>
      <trkpt lat="47.35702" lon="-1.19697">
        <ele>-1</ele>
        <time>2014-07-06T13:29:19Z</time>
      </trkpt>
      <trkpt lat="47.35701" lon="-1.19695">
        <ele>-1</ele>
        <time>2014-07-06T13:29:20Z</time>
      </trkpt>
      <trkpt lat="47.35704" lon="-1.19683">
        <ele>-1</ele>
        <time>2014-07-06T13:29:26Z</time>
      </trkpt>
      <trkpt lat="47.35706" lon="-1.1968">
        <ele>-1</ele>
        <time>2014-07-06T13:29:27Z</time>
      </trkpt>
      <trkpt lat="47.35709" lon="-1.19677">
        <ele>-1</ele>
        <time>2014-07-06T13:29:28Z</time>
      </trkpt>
      <trkpt lat="47.35716" lon="-1.1966">
        <ele>-1</ele>
        <time>2014-07-06T13:29:34Z</time>
      </trkpt>
      <trkpt lat="47.35718" lon="-1.19657">
        <ele>-1</ele>
        <time>2014-07-06T13:29:36Z</time>
      </trkpt>
      <trkpt lat="47.3572" lon="-1.1965">
        <ele>1</ele>
        <time>2014-07-06T13:29:39Z</time>
      </trkpt>
      <trkpt lat="47.35729" lon="-1.19626">
        <ele>1</ele>
        <time>2014-07-06T13:29:49Z</time>
      </trkpt>
      <trkpt lat="47.35731" lon="-1.19622">
        <ele>1</ele>
        <time>2014-07-06T13:29:51Z</time>
      </trkpt>
      <trkpt lat="47.35733" lon="-1.19618">
        <ele>1</ele>
        <time>2014-07-06T13:29:53Z</time>
      </trkpt>
      <trkpt lat="47.35733" lon="-1.19616">
        <ele>1</ele>
        <time>2014-07-06T13:29:54Z</time>
      </trkpt>
      <trkpt lat="47.35736" lon="-1.19601">
        <ele>1</ele>
        <time>2014-07-06T13:30:00Z</time>
      </trkpt>
      <trkpt lat="47.35742" lon="-1.1957">
        <ele>1</ele>
        <time>2014-07-06T13:30:12Z</time>
      </trkpt>
      <trkpt lat="47.35746" lon="-1.19557">
        <ele>1</ele>
        <time>2014-07-06T13:30:18Z</time>
      </trkpt>
      <trkpt lat="47.35748" lon="-1.19555">
        <ele>1</ele>
        <time>2014-07-06T13:30:19Z</time>
      </trkpt>
      <trkpt lat="47.35759" lon="-1.19526">
        <ele>1</ele>
        <time>2014-07-06T13:30:31Z</time>
      </trkpt>
      <trkpt lat="47.35761" lon="-1.19515">
        <ele>1</ele>
        <time>2014-07-06T13:30:39Z</time>
      </trkpt>
      <trkpt lat="47.35766" lon="-1.19502">
        <ele>1</ele>
        <time>2014-07-06T13:30:49Z</time>
      </trkpt>
      <trkpt lat="47.35767" lon="-1.19496">
        <ele>1</ele>
        <time>2014-07-06T13:30:51Z</time>
      </trkpt>
      <trkpt lat="47.35769" lon="-1.19484">
        <ele>1</ele>
        <time>2014-07-06T13:30:55Z</time>
      </trkpt>
      <trkpt lat="47.35773" lon="-1.19458">
        <ele>1</ele>
        <time>2014-07-06T13:31:05Z</time>
      </trkpt>
      <trkpt lat="47.35776" lon="-1.19444">
        <ele>1</ele>
        <time>2014-07-06T13:31:10Z</time>
      </trkpt>
      <trkpt lat="47.35778" lon="-1.1944">
        <ele>1</ele>
        <time>2014-07-06T13:31:12Z</time>
      </trkpt>
      <trkpt lat="47.35779" lon="-1.19439">
        <ele>1</ele>
        <time>2014-07-06T13:31:13Z</time>
      </trkpt>
      <trkpt lat="47.35779" lon="-1.19437">
        <ele>1</ele>
        <time>2014-07-06T13:31:14Z</time>
      </trkpt>
      <trkpt lat="47.3578" lon="-1.19435">
        <ele>1</ele>
        <time>2014-07-06T13:31:15Z</time>
      </trkpt>
      <trkpt lat="47.35786" lon="-1.19413">
        <ele>1</ele>
        <time>2014-07-06T13:31:25Z</time>
      </trkpt>
      <trkpt lat="47.35795" lon="-1.1939">
        <ele>1</ele>
        <time>2014-07-06T13:31:34Z</time>
      </trkpt>
      <trkpt lat="47.35805" lon="-1.19369">
        <ele>2</ele>
        <time>2014-07-06T13:31:43Z</time>
      </trkpt>
      <trkpt lat="47.35815" lon="-1.19348">
        <ele>2</ele>
        <time>2014-07-06T13:31:53Z</time>
      </trkpt>
      <trkpt lat="47.35824" lon="-1.19332">
        <ele>8.6</ele>
        <time>2014-07-06T13:32:02Z</time>
      </trkpt>
      <trkpt lat="47.35832" lon="-1.19316">
        <ele>9.2</ele>
        <time>2014-07-06T13:32:10Z</time>
      </trkpt>
      <trkpt lat="47.35841" lon="-1.19306">
        <ele>9.3</ele>
        <time>2014-07-06T13:32:15Z</time>
      </trkpt>
      <trkpt lat="47.35843" lon="-1.19304">
        <ele>9.3</ele>
        <time>2014-07-06T13:32:16Z</time>
      </trkpt>
      <trkpt lat="47.35844" lon="-1.19303">
        <ele>9.2</ele>
        <time>2014-07-06T13:32:17Z</time>
      </trkpt>
      <trkpt lat="47.35846" lon="-1.19299">
        <ele>9.1</ele>
        <time>2014-07-06T13:32:19Z</time>
      </trkpt>
      <trkpt lat="47.35849" lon="-1.19292">
        <ele>8.9</ele>
        <time>2014-07-06T13:32:22Z</time>
      </trkpt>
      <trkpt lat="47.35849" lon="-1.19287">
        <ele>8.8</ele>
        <time>2014-07-06T13:32:24Z</time>
      </trkpt>
      <trkpt lat="47.35852" lon="-1.19283">
        <ele>8.8</ele>
        <time>2014-07-06T13:32:26Z</time>
      </trkpt>
      <trkpt lat="47.35853" lon="-1.19278">
        <ele>8.8</ele>
        <time>2014-07-06T13:32:28Z</time>
      </trkpt>
      <trkpt lat="47.35854" lon="-1.19273">
        <ele>8.9</ele>
        <time>2014-07-06T13:32:30Z</time>
      </trkpt>
      <trkpt lat="47.35854" lon="-1.1927">
        <ele>1</ele>
        <time>2014-07-06T13:32:31Z</time>
      </trkpt>
      <trkpt lat="47.35856" lon="-1.19265">
        <ele>1</ele>
        <time>2014-07-06T13:32:33Z</time>
      </trkpt>
      <trkpt lat="47.35856" lon="-1.19257">
        <ele>1</ele>
        <time>2014-07-06T13:32:36Z</time>
      </trkpt>
      <trkpt lat="47.35856" lon="-1.19255">
        <ele>1</ele>
        <time>2014-07-06T13:32:37Z</time>
      </trkpt>
      <trkpt lat="47.35858" lon="-1.1923">
        <ele>1</ele>
        <time>2014-07-06T13:32:48Z</time>
      </trkpt>
      <trkpt lat="47.35861" lon="-1.19212">
        <ele>8.8</ele>
        <time>2014-07-06T13:32:56Z</time>
      </trkpt>
      <trkpt lat="47.3586" lon="-1.19206">
        <ele>8.1</ele>
        <time>2014-07-06T13:32:58Z</time>
      </trkpt>
      <trkpt lat="47.3587" lon="-1.19181">
        <ele>7.3</ele>
        <time>2014-07-06T13:33:07Z</time>
      </trkpt>
      <trkpt lat="47.35872" lon="-1.19161">
        <ele>6.8</ele>
        <time>2014-07-06T13:33:15Z</time>
      </trkpt>
      <trkpt lat="47.35877" lon="-1.19137">
        <ele>7.4</ele>
        <time>2014-07-06T13:33:26Z</time>
      </trkpt>
      <trkpt lat="47.35882" lon="-1.1913">
        <ele>8.4</ele>
        <time>2014-07-06T13:33:28Z</time>
      </trkpt>
      <trkpt lat="47.35882" lon="-1.19124">
        <ele>8.4</ele>
        <time>2014-07-06T13:33:30Z</time>
      </trkpt>
      <trkpt lat="47.35881" lon="-1.1911">
        <ele>8</ele>
        <time>2014-07-06T13:33:35Z</time>
      </trkpt>
      <trkpt lat="47.35884" lon="-1.19095">
        <ele>8.2</ele>
        <time>2014-07-06T13:33:41Z</time>
      </trkpt>
      <trkpt lat="47.35885" lon="-1.19091">
        <ele>8.3</ele>
        <time>2014-07-06T13:33:43Z</time>
      </trkpt>
      <trkpt lat="47.35887" lon="-1.19087">
        <ele>8.7</ele>
        <time>2014-07-06T13:33:45Z</time>
      </trkpt>
      <trkpt lat="47.35887" lon="-1.19085">
        <ele>8.7</ele>
        <time>2014-07-06T13:33:46Z</time>
      </trkpt>
      <trkpt lat="47.35892" lon="-1.19071">
        <ele>7.9</ele>
        <time>2014-07-06T13:33:52Z</time>
      </trkpt>
      <trkpt lat="47.35898" lon="-1.19056">
        <ele>7.4</ele>
        <time>2014-07-06T13:33:59Z</time>
      </trkpt>
      <trkpt lat="47.35899" lon="-1.19054">
        <ele>7.3</ele>
        <time>2014-07-06T13:34:00Z</time>
      </trkpt>
      <trkpt lat="47.35901" lon="-1.19049">
        <ele>7.2</ele>
        <time>2014-07-06T13:34:02Z</time>
      </trkpt>
      <trkpt lat="47.35913" lon="-1.19028">
        <ele>8.2</ele>
        <time>2014-07-06T13:34:13Z</time>
      </trkpt>
      <trkpt lat="47.35924" lon="-1.19008">
        <ele>7.1</ele>
        <time>2014-07-06T13:34:23Z</time>
      </trkpt>
      <trkpt lat="47.35934" lon="-1.18988">
        <ele>7.2</ele>
        <time>2014-07-06T13:34:33Z</time>
      </trkpt>
      <trkpt lat="47.35948" lon="-1.1897">
        <ele>8.1</ele>
        <time>2014-07-06T13:34:43Z</time>
      </trkpt>
      <trkpt lat="47.35956" lon="-1.18957">
        <ele>7.5</ele>
        <time>2014-07-06T13:34:51Z</time>
      </trkpt>
      <trkpt lat="47.35966" lon="-1.1893">
        <ele>7.9</ele>
        <time>2014-07-06T13:35:02Z</time>
      </trkpt>
      <trkpt lat="47.35975" lon="-1.18917">
        <ele>8.2</ele>
        <time>2014-07-06T13:35:10Z</time>
      </trkpt>
      <trkpt lat="47.35981" lon="-1.18905">
        <ele>7.6</ele>
        <time>2014-07-06T13:35:16Z</time>
      </trkpt>
      <trkpt lat="47.35984" lon="-1.18898">
        <ele>7.3</ele>
        <time>2014-07-06T13:35:19Z</time>
      </trkpt>
      <trkpt lat="47.35985" lon="-1.18895">
        <ele>7.3</ele>
        <time>2014-07-06T13:35:20Z</time>
      </trkpt>
      <trkpt lat="47.35986" lon="-1.18893">
        <ele>7.3</ele>
        <time>2014-07-06T13:35:21Z</time>
      </trkpt>
      <trkpt lat="47.35989" lon="-1.18889">
        <ele>7.6</ele>
        <time>2014-07-06T13:35:23Z</time>
      </trkpt>
      <trkpt lat="47.3599" lon="-1.18886">
        <ele>7.8</ele>
        <time>2014-07-06T13:35:24Z</time>
      </trkpt>
      <trkpt lat="47.35992" lon="-1.18883">
        <ele>8.2</ele>
        <time>2014-07-06T13:35:26Z</time>
      </trkpt>
      <trkpt lat="47.35997" lon="-1.18874">
        <ele>8.8</ele>
        <time>2014-07-06T13:35:30Z</time>
      </trkpt>
      <trkpt lat="47.3601" lon="-1.1885">
        <ele>8</ele>
        <time>2014-07-06T13:35:41Z</time>
      </trkpt>
      <trkpt lat="47.3602" lon="-1.18828">
        <ele>8</ele>
        <time>2014-07-06T13:35:51Z</time>
      </trkpt>
      <trkpt lat="47.36027" lon="-1.18814">
        <ele>8.5</ele>
        <time>2014-07-06T13:35:58Z</time>
      </trkpt>
      <trkpt lat="47.36028" lon="-1.18812">
        <ele>8.5</ele>
        <time>2014-07-06T13:35:59Z</time>
      </trkpt>
      <trkpt lat="47.36038" lon="-1.1879">
        <ele>-1</ele>
        <time>2014-07-06T13:36:09Z</time>
      </trkpt>
      <trkpt lat="47.36051" lon="-1.18768">
        <ele>-1</ele>
        <time>2014-07-06T13:36:20Z</time>
      </trkpt>
      <trkpt lat="47.36059" lon="-1.18755">
        <ele>-1</ele>
        <time>2014-07-06T13:36:27Z</time>
      </trkpt>
      <trkpt lat="47.36062" lon="-1.1875">
        <ele>-1</ele>
        <time>2014-07-06T13:36:30Z</time>
      </trkpt>
      <trkpt lat="47.36064" lon="-1.18746">
        <ele>-1</ele>
        <time>2014-07-06T13:36:32Z</time>
      </trkpt>
      <trkpt lat="47.36069" lon="-1.18736">
        <ele>-1</ele>
        <time>2014-07-06T13:36:37Z</time>
      </trkpt>
      <trkpt lat="47.36072" lon="-1.18732">
        <ele>-1</ele>
        <time>2014-07-06T13:36:39Z</time>
      </trkpt>
      <trkpt lat="47.36073" lon="-1.1873">
        <ele>-1</ele>
        <time>2014-07-06T13:36:40Z</time>
      </trkpt>
      <trkpt lat="47.36074" lon="-1.18727">
        <ele>-1</ele>
        <time>2014-07-06T13:36:41Z</time>
      </trkpt>
      <trkpt lat="47.36079" lon="-1.18713">
        <ele>9</ele>
        <time>2014-07-06T13:36:46Z</time>
      </trkpt>
      <trkpt lat="47.36084" lon="-1.18703">
        <ele>9.3</ele>
        <time>2014-07-06T13:36:50Z</time>
      </trkpt>
      <trkpt lat="47.36085" lon="-1.18701">
        <ele>9.3</ele>
        <time>2014-07-06T13:36:51Z</time>
      </trkpt>
      <trkpt lat="47.36086" lon="-1.18698">
        <ele>9.2</ele>
        <time>2014-07-06T13:36:52Z</time>
      </trkpt>
      <trkpt lat="47.36086" lon="-1.18696">
        <ele>9.1</ele>
        <time>2014-07-06T13:36:53Z</time>
      </trkpt>
      <trkpt lat="47.36087" lon="-1.18694">
        <ele>9.1</ele>
        <time>2014-07-06T13:36:54Z</time>
      </trkpt>
      <trkpt lat="47.36088" lon="-1.1869">
        <ele>8.8</ele>
        <time>2014-07-06T13:36:56Z</time>
      </trkpt>
      <trkpt lat="47.3609" lon="-1.18684">
        <ele>8.4</ele>
        <time>2014-07-06T13:36:59Z</time>
      </trkpt>
      <trkpt lat="47.36091" lon="-1.18682">
        <ele>8.3</ele>
        <time>2014-07-06T13:37:00Z</time>
      </trkpt>
      <trkpt lat="47.36094" lon="-1.18679">
        <ele>8.4</ele>
        <time>2014-07-06T13:37:03Z</time>
      </trkpt>
      <trkpt lat="47.36095" lon="-1.18677">
        <ele>8.3</ele>
        <time>2014-07-06T13:37:04Z</time>
      </trkpt>
      <trkpt lat="47.36098" lon="-1.18672">
        <ele>8.4</ele>
        <time>2014-07-06T13:37:08Z</time>
      </trkpt>
      <trkpt lat="47.36104" lon="-1.18667">
        <ele>8.9</ele>
        <time>2014-07-06T13:37:13Z</time>
      </trkpt>
      <trkpt lat="47.36105" lon="-1.18664">
        <ele>9</ele>
        <time>2014-07-06T13:37:14Z</time>
      </trkpt>
      <trkpt lat="47.3611" lon="-1.18657">
        <ele>9.5</ele>
        <time>2014-07-06T13:37:17Z</time>
      </trkpt>
      <trkpt lat="47.36111" lon="-1.18655">
        <ele>9.6</ele>
        <time>2014-07-06T13:37:18Z</time>
      </trkpt>
      <trkpt lat="47.36112" lon="-1.18652">
        <ele>9.5</ele>
        <time>2014-07-06T13:37:19Z</time>
      </trkpt>
      <trkpt lat="47.36115" lon="-1.18641">
        <ele>9.5</ele>
        <time>2014-07-06T13:37:23Z</time>
      </trkpt>
      <trkpt lat="47.36121" lon="-1.18612">
        <ele>9.5</ele>
        <time>2014-07-06T13:37:32Z</time>
      </trkpt>
      <trkpt lat="47.36122" lon="-1.1859">
        <ele>9.1</ele>
        <time>2014-07-06T13:37:41Z</time>
      </trkpt>
      <trkpt lat="47.36121" lon="-1.18563">
        <ele>7.8</ele>
        <time>2014-07-06T13:37:50Z</time>
      </trkpt>
      <trkpt lat="47.3612" lon="-1.1856">
        <ele>7.5</ele>
        <time>2014-07-06T13:37:51Z</time>
      </trkpt>
      <trkpt lat="47.3612" lon="-1.18558">
        <ele>7.4</ele>
        <time>2014-07-06T13:37:52Z</time>
      </trkpt>
      <trkpt lat="47.36121" lon="-1.18555">
        <ele>7.4</ele>
        <time>2014-07-06T13:37:53Z</time>
      </trkpt>
      <trkpt lat="47.36122" lon="-1.18552">
        <ele>7.5</ele>
        <time>2014-07-06T13:37:54Z</time>
      </trkpt>
      <trkpt lat="47.36122" lon="-1.1855">
        <ele>7.4</ele>
        <time>2014-07-06T13:37:55Z</time>
      </trkpt>
      <trkpt lat="47.36128" lon="-1.18522">
        <ele>7.4</ele>
        <time>2014-07-06T13:38:06Z</time>
      </trkpt>
      <trkpt lat="47.36128" lon="-1.18502">
        <ele>-1</ele>
        <time>2014-07-06T13:38:16Z</time>
      </trkpt>
      <trkpt lat="47.36127" lon="-1.18498">
        <ele>-1</ele>
        <time>2014-07-06T13:38:18Z</time>
      </trkpt>
      <trkpt lat="47.36122" lon="-1.18482">
        <ele>-1</ele>
        <time>2014-07-06T13:38:27Z</time>
      </trkpt>
      <trkpt lat="47.36125" lon="-1.18472">
        <ele>-1</ele>
        <time>2014-07-06T13:38:32Z</time>
      </trkpt>
      <trkpt lat="47.36128" lon="-1.18467">
        <ele>-2</ele>
        <time>2014-07-06T13:38:34Z</time>
      </trkpt>
      <trkpt lat="47.36129" lon="-1.18462">
        <ele>-2</ele>
        <time>2014-07-06T13:38:36Z</time>
      </trkpt>
      <trkpt lat="47.36131" lon="-1.18455">
        <ele>-2</ele>
        <time>2014-07-06T13:38:39Z</time>
      </trkpt>
      <trkpt lat="47.36134" lon="-1.18449">
        <ele>-2</ele>
        <time>2014-07-06T13:38:41Z</time>
      </trkpt>
      <trkpt lat="47.36138" lon="-1.18444">
        <ele>-2</ele>
        <time>2014-07-06T13:38:43Z</time>
      </trkpt>
      <trkpt lat="47.36153" lon="-1.18429">
        <ele>-2</ele>
        <time>2014-07-06T13:38:49Z</time>
      </trkpt>
      <trkpt lat="47.36163" lon="-1.18411">
        <ele>-2</ele>
        <time>2014-07-06T13:39:00Z</time>
      </trkpt>
      <trkpt lat="47.36168" lon="-1.184">
        <ele>8.9</ele>
        <time>2014-07-06T13:39:05Z</time>
      </trkpt>
      <trkpt lat="47.36174" lon="-1.18383">
        <ele>8.5</ele>
        <time>2014-07-06T13:39:13Z</time>
      </trkpt>
      <trkpt lat="47.36177" lon="-1.18379">
        <ele>8.7</ele>
        <time>2014-07-06T13:39:15Z</time>
      </trkpt>
      <trkpt lat="47.3618" lon="-1.18374">
        <ele>8.9</ele>
        <time>2014-07-06T13:39:18Z</time>
      </trkpt>
      <trkpt lat="47.3618" lon="-1.18372">
        <ele>8.9</ele>
        <time>2014-07-06T13:39:19Z</time>
      </trkpt>
      <trkpt lat="47.36187" lon="-1.18355">
        <ele>9.3</ele>
        <time>2014-07-06T13:39:28Z</time>
      </trkpt>
      <trkpt lat="47.36194" lon="-1.18337">
        <ele>9.2</ele>
        <time>2014-07-06T13:39:36Z</time>
      </trkpt>
      <trkpt lat="47.36202" lon="-1.18311">
        <ele>8.4</ele>
        <time>2014-07-06T13:39:46Z</time>
      </trkpt>
      <trkpt lat="47.36204" lon="-1.18308">
        <ele>1</ele>
        <time>2014-07-06T13:39:47Z</time>
      </trkpt>
      <trkpt lat="47.36205" lon="-1.18303">
        <ele>1</ele>
        <time>2014-07-06T13:39:49Z</time>
      </trkpt>
      <trkpt lat="47.36208" lon="-1.18301">
        <ele>1</ele>
        <time>2014-07-06T13:39:50Z</time>
      </trkpt>
      <trkpt lat="47.3621" lon="-1.183">
        <ele>1</ele>
        <time>2014-07-06T13:39:51Z</time>
      </trkpt>
      <trkpt lat="47.36228" lon="-1.18283">
        <ele>1</ele>
        <time>2014-07-06T13:40:02Z</time>
      </trkpt>
      <trkpt lat="47.3623" lon="-1.1828">
        <ele>1</ele>
        <time>2014-07-06T13:40:04Z</time>
      </trkpt>
      <trkpt lat="47.36231" lon="-1.18278">
        <ele>2</ele>
        <time>2014-07-06T13:40:05Z</time>
      </trkpt>
      <trkpt lat="47.36232" lon="-1.18274">
        <ele>2</ele>
        <time>2014-07-06T13:40:07Z</time>
      </trkpt>
      <trkpt lat="47.36234" lon="-1.18269">
        <ele>2</ele>
        <time>2014-07-06T13:40:09Z</time>
      </trkpt>
      <trkpt lat="47.36235" lon="-1.18264">
        <ele>2</ele>
        <time>2014-07-06T13:40:12Z</time>
      </trkpt>
      <trkpt lat="47.36234" lon="-1.18258">
        <ele>-1</ele>
        <time>2014-07-06T13:40:16Z</time>
      </trkpt>
      <trkpt lat="47.36234" lon="-1.18255">
        <ele>-1</ele>
        <time>2014-07-06T13:40:17Z</time>
      </trkpt>
      <trkpt lat="47.36237" lon="-1.1824">
        <ele>1</ele>
        <time>2014-07-06T13:40:25Z</time>
      </trkpt>
      <trkpt lat="47.36238" lon="-1.18236">
        <ele>1</ele>
        <time>2014-07-06T13:40:27Z</time>
      </trkpt>
      <trkpt lat="47.36238" lon="-1.18232">
        <ele>1</ele>
        <time>2014-07-06T13:40:29Z</time>
      </trkpt>
      <trkpt lat="47.36238" lon="-1.1823">
        <ele>1</ele>
        <time>2014-07-06T13:40:30Z</time>
      </trkpt>
      <trkpt lat="47.36239" lon="-1.18229">
        <ele>1</ele>
        <time>2014-07-06T13:40:31Z</time>
      </trkpt>
      <trkpt lat="47.36244" lon="-1.18205">
        <ele>1</ele>
        <time>2014-07-06T13:40:41Z</time>
      </trkpt>
      <trkpt lat="47.36245" lon="-1.18198">
        <ele>1</ele>
        <time>2014-07-06T13:40:44Z</time>
      </trkpt>
      <trkpt lat="47.36246" lon="-1.18195">
        <ele>1</ele>
        <time>2014-07-06T13:40:45Z</time>
      </trkpt>
      <trkpt lat="47.3625" lon="-1.18167">
        <ele>1</ele>
        <time>2014-07-06T13:40:56Z</time>
      </trkpt>
      <trkpt lat="47.3625" lon="-1.18164">
        <ele>1</ele>
        <time>2014-07-06T13:40:57Z</time>
      </trkpt>
      <trkpt lat="47.3625" lon="-1.18162">
        <ele>1</ele>
        <time>2014-07-06T13:40:58Z</time>
      </trkpt>
      <trkpt lat="47.36252" lon="-1.18156">
        <ele>1</ele>
        <time>2014-07-06T13:41:00Z</time>
      </trkpt>
      <trkpt lat="47.36252" lon="-1.18154">
        <ele>1</ele>
        <time>2014-07-06T13:41:01Z</time>
      </trkpt>
      <trkpt lat="47.36254" lon="-1.18145">
        <ele>1</ele>
        <time>2014-07-06T13:41:04Z</time>
      </trkpt>
      <trkpt lat="47.36255" lon="-1.18136">
        <ele>1</ele>
        <time>2014-07-06T13:41:07Z</time>
      </trkpt>
      <trkpt lat="47.36255" lon="-1.18128">
        <ele>1</ele>
        <time>2014-07-06T13:41:10Z</time>
      </trkpt>
      <trkpt lat="47.36255" lon="-1.18125">
        <ele>1</ele>
        <time>2014-07-06T13:41:11Z</time>
      </trkpt>
      <trkpt lat="47.36255" lon="-1.1812">
        <ele>1</ele>
        <time>2014-07-06T13:41:13Z</time>
      </trkpt>
      <trkpt lat="47.36257" lon="-1.18116">
        <ele>1</ele>
        <time>2014-07-06T13:41:15Z</time>
      </trkpt>
      <trkpt lat="47.36257" lon="-1.18114">
        <ele>1</ele>
        <time>2014-07-06T13:41:16Z</time>
      </trkpt>
      <trkpt lat="47.36256" lon="-1.18109">
        <ele>1</ele>
        <time>2014-07-06T13:41:18Z</time>
      </trkpt>
      <trkpt lat="47.36256" lon="-1.18106">
        <ele>1</ele>
        <time>2014-07-06T13:41:19Z</time>
      </trkpt>
      <trkpt lat="47.36258" lon="-1.18101">
        <ele>1</ele>
        <time>2014-07-06T13:41:21Z</time>
      </trkpt>
      <trkpt lat="47.3626" lon="-1.18096">
        <ele>1</ele>
        <time>2014-07-06T13:41:23Z</time>
      </trkpt>
      <trkpt lat="47.36262" lon="-1.1807">
        <ele>1</ele>
        <time>2014-07-06T13:41:33Z</time>
      </trkpt>
      <trkpt lat="47.36262" lon="-1.18068">
        <ele>1</ele>
        <time>2014-07-06T13:41:34Z</time>
      </trkpt>
      <trkpt lat="47.36264" lon="-1.18037">
        <ele>1</ele>
        <time>2014-07-06T13:41:47Z</time>
      </trkpt>
      <trkpt lat="47.36267" lon="-1.18025">
        <ele>1</ele>
        <time>2014-07-06T13:41:52Z</time>
      </trkpt>
      <trkpt lat="47.36269" lon="-1.18021">
        <ele>1</ele>
        <time>2014-07-06T13:41:59Z</time>
      </trkpt>
      <trkpt lat="47.36274" lon="-1.18016">
        <ele>1</ele>
        <time>2014-07-06T13:42:08Z</time>
      </trkpt>
      <trkpt lat="47.36273" lon="-1.17996">
        <ele>1</ele>
        <time>2014-07-06T13:42:16Z</time>
      </trkpt>
      <trkpt lat="47.36272" lon="-1.17993">
        <ele>1</ele>
        <time>2014-07-06T13:42:17Z</time>
      </trkpt>
      <trkpt lat="47.36273" lon="-1.17988">
        <ele>1</ele>
        <time>2014-07-06T13:42:19Z</time>
      </trkpt>
      <trkpt lat="47.36273" lon="-1.17984">
        <ele>1</ele>
        <time>2014-07-06T13:42:21Z</time>
      </trkpt>
      <trkpt lat="47.36274" lon="-1.17982">
        <ele>1</ele>
        <time>2014-07-06T13:42:22Z</time>
      </trkpt>
      <trkpt lat="47.36275" lon="-1.17979">
        <ele>1</ele>
        <time>2014-07-06T13:42:23Z</time>
      </trkpt>
      <trkpt lat="47.36275" lon="-1.17974">
        <ele>1</ele>
        <time>2014-07-06T13:42:25Z</time>
      </trkpt>
      <trkpt lat="47.36276" lon="-1.17969">
        <ele>1</ele>
        <time>2014-07-06T13:42:27Z</time>
      </trkpt>
      <trkpt lat="47.36276" lon="-1.17967">
        <ele>1</ele>
        <time>2014-07-06T13:42:28Z</time>
      </trkpt>
      <trkpt lat="47.36278" lon="-1.17954">
        <ele>1</ele>
        <time>2014-07-06T13:42:33Z</time>
      </trkpt>
      <trkpt lat="47.36278" lon="-1.17951">
        <ele>1</ele>
        <time>2014-07-06T13:42:34Z</time>
      </trkpt>
      <trkpt lat="47.36279" lon="-1.17947">
        <ele>1</ele>
        <time>2014-07-06T13:42:36Z</time>
      </trkpt>
      <trkpt lat="47.3628" lon="-1.17937">
        <ele>1</ele>
        <time>2014-07-06T13:42:40Z</time>
      </trkpt>
      <trkpt lat="47.36281" lon="-1.17928">
        <ele>1</ele>
        <time>2014-07-06T13:42:44Z</time>
      </trkpt>
      <trkpt lat="47.3628" lon="-1.17925">
        <ele>1</ele>
        <time>2014-07-06T13:42:45Z</time>
      </trkpt>
      <trkpt lat="47.3628" lon="-1.17923">
        <ele>1</ele>
        <time>2014-07-06T13:42:46Z</time>
      </trkpt>
      <trkpt lat="47.36282" lon="-1.17918">
        <ele>1</ele>
        <time>2014-07-06T13:42:48Z</time>
      </trkpt>
      <trkpt lat="47.36284" lon="-1.17916">
        <ele>1</ele>
        <time>2014-07-06T13:42:49Z</time>
      </trkpt>
      <trkpt lat="47.36285" lon="-1.17913">
        <ele>1</ele>
        <time>2014-07-06T13:42:50Z</time>
      </trkpt>
      <trkpt lat="47.36285" lon="-1.17908">
        <ele>1</ele>
        <time>2014-07-06T13:42:52Z</time>
      </trkpt>
      <trkpt lat="47.36287" lon="-1.17902">
        <ele>1</ele>
        <time>2014-07-06T13:42:54Z</time>
      </trkpt>
      <trkpt lat="47.36287" lon="-1.179">
        <ele>1</ele>
        <time>2014-07-06T13:42:55Z</time>
      </trkpt>
      <trkpt lat="47.36288" lon="-1.17897">
        <ele>1</ele>
        <time>2014-07-06T13:42:56Z</time>
      </trkpt>
      <trkpt lat="47.36288" lon="-1.17895">
        <ele>1</ele>
        <time>2014-07-06T13:42:57Z</time>
      </trkpt>
      <trkpt lat="47.36288" lon="-1.17892">
        <ele>1</ele>
        <time>2014-07-06T13:42:58Z</time>
      </trkpt>
      <trkpt lat="47.36288" lon="-1.1789">
        <ele>1</ele>
        <time>2014-07-06T13:42:59Z</time>
      </trkpt>
      <trkpt lat="47.36294" lon="-1.17872">
        <ele>1</ele>
        <time>2014-07-06T13:43:09Z</time>
      </trkpt>
      <trkpt lat="47.36299" lon="-1.17873">
        <ele>3</ele>
        <time>2014-07-06T13:43:19Z</time>
      </trkpt>
      <trkpt lat="47.36303" lon="-1.17872">
        <ele>3</ele>
        <time>2014-07-06T13:43:26Z</time>
      </trkpt>
      <trkpt lat="47.36311" lon="-1.17866">
        <ele>3</ele>
        <time>2014-07-06T13:43:32Z</time>
      </trkpt>
      <trkpt lat="47.36319" lon="-1.17847">
        <ele>3</ele>
        <time>2014-07-06T13:43:41Z</time>
      </trkpt>
      <trkpt lat="47.36328" lon="-1.17814">
        <ele>3</ele>
        <time>2014-07-06T13:43:55Z</time>
      </trkpt>
      <trkpt lat="47.36332" lon="-1.17807">
        <ele>3</ele>
        <time>2014-07-06T13:43:59Z</time>
      </trkpt>
      <trkpt lat="47.36336" lon="-1.17803">
        <ele>3</ele>
        <time>2014-07-06T13:44:02Z</time>
      </trkpt>
      <trkpt lat="47.36338" lon="-1.17793">
        <ele>4</ele>
        <time>2014-07-06T13:44:08Z</time>
      </trkpt>
      <trkpt lat="47.36341" lon="-1.17779">
        <ele>4</ele>
        <time>2014-07-06T13:44:13Z</time>
      </trkpt>
      <trkpt lat="47.36349" lon="-1.17759">
        <ele>5</ele>
        <time>2014-07-06T13:44:24Z</time>
      </trkpt>
      <trkpt lat="47.36348" lon="-1.17755">
        <ele>5</ele>
        <time>2014-07-06T13:44:27Z</time>
      </trkpt>
      <trkpt lat="47.36346" lon="-1.17751">
        <ele>5</ele>
        <time>2014-07-06T13:44:32Z</time>
      </trkpt>
      <trkpt lat="47.36353" lon="-1.17749">
        <ele>5</ele>
        <time>2014-07-06T13:44:44Z</time>
      </trkpt>
      <trkpt lat="47.36357" lon="-1.17741">
        <ele>6</ele>
        <time>2014-07-06T13:44:50Z</time>
      </trkpt>
      <trkpt lat="47.36358" lon="-1.17734">
        <ele>6</ele>
        <time>2014-07-06T13:44:57Z</time>
      </trkpt>
      <trkpt lat="47.36363" lon="-1.17727">
        <ele>6</ele>
        <time>2014-07-06T13:45:04Z</time>
      </trkpt>
      <trkpt lat="47.3636" lon="-1.1771">
        <ele>6</ele>
        <time>2014-07-06T13:45:11Z</time>
      </trkpt>
      <trkpt lat="47.36357" lon="-1.17711">
        <ele>6</ele>
        <time>2014-07-06T13:45:17Z</time>
      </trkpt>
      <trkpt lat="47.36344" lon="-1.17708">
        <ele>6</ele>
        <time>2014-07-06T13:45:27Z</time>
      </trkpt>
      <trkpt lat="47.36319" lon="-1.17696">
        <ele>6</ele>
        <time>2014-07-06T13:45:44Z</time>
      </trkpt>
      <trkpt lat="47.36302" lon="-1.17686">
        <ele>6</ele>
        <time>2014-07-06T13:45:55Z</time>
      </trkpt>
      <trkpt lat="47.36298" lon="-1.17684">
        <ele>6</ele>
        <time>2014-07-06T13:45:58Z</time>
      </trkpt>
      <trkpt lat="47.3628" lon="-1.17671">
        <ele>6</ele>
        <time>2014-07-06T13:46:08Z</time>
      </trkpt>
      <trkpt lat="47.36243" lon="-1.17656">
        <ele>7</ele>
        <time>2014-07-06T13:46:30Z</time>
      </trkpt>
      <trkpt lat="47.36224" lon="-1.17647">
        <ele>7</ele>
        <time>2014-07-06T13:46:41Z</time>
      </trkpt>
      <trkpt lat="47.36207" lon="-1.17637">
        <ele>7</ele>
        <time>2014-07-06T13:46:52Z</time>
      </trkpt>
      <trkpt lat="47.36187" lon="-1.17627">
        <ele>7</ele>
        <time>2014-07-06T13:47:04Z</time>
      </trkpt>
      <trkpt lat="47.36184" lon="-1.17625">
        <ele>7</ele>
        <time>2014-07-06T13:47:07Z</time>
      </trkpt>
      <trkpt lat="47.36176" lon="-1.17622">
        <ele>7</ele>
        <time>2014-07-06T13:47:12Z</time>
      </trkpt>
      <trkpt lat="47.36162" lon="-1.17617">
        <ele>7</ele>
        <time>2014-07-06T13:47:21Z</time>
      </trkpt>
      <trkpt lat="47.36148" lon="-1.1761">
        <ele>7</ele>
        <time>2014-07-06T13:47:30Z</time>
      </trkpt>
      <trkpt lat="47.36114" lon="-1.1759">
        <ele>6</ele>
        <time>2014-07-06T13:47:55Z</time>
      </trkpt>
      <trkpt lat="47.36093" lon="-1.1758">
        <ele>6</ele>
        <time>2014-07-06T13:48:07Z</time>
      </trkpt>
      <trkpt lat="47.36076" lon="-1.17569">
        <ele>6</ele>
        <time>2014-07-06T13:48:16Z</time>
      </trkpt>
      <trkpt lat="47.36041" lon="-1.17553">
        <ele>6</ele>
        <time>2014-07-06T13:48:36Z</time>
      </trkpt>
      <trkpt lat="47.36013" lon="-1.17538">
        <ele>6</ele>
        <time>2014-07-06T13:48:54Z</time>
      </trkpt>
      <trkpt lat="47.35996" lon="-1.17524">
        <ele>5</ele>
        <time>2014-07-06T13:49:04Z</time>
      </trkpt>
      <trkpt lat="47.35979" lon="-1.17514">
        <ele>4</ele>
        <time>2014-07-06T13:49:15Z</time>
      </trkpt>
      <trkpt lat="47.35963" lon="-1.17507">
        <ele>5</ele>
        <time>2014-07-06T13:49:25Z</time>
      </trkpt>
      <trkpt lat="47.35945" lon="-1.17502">
        <ele>4</ele>
        <time>2014-07-06T13:49:35Z</time>
      </trkpt>
      <trkpt lat="47.35933" lon="-1.17501">
        <ele>4</ele>
        <time>2014-07-06T13:49:43Z</time>
      </trkpt>
      <trkpt lat="47.35933" lon="-1.17508">
        <ele>4</ele>
        <time>2014-07-06T13:49:46Z</time>
      </trkpt>
      <trkpt lat="47.35934" lon="-1.17512">
        <ele>4</ele>
        <time>2014-07-06T13:49:48Z</time>
      </trkpt>
      <trkpt lat="47.3595" lon="-1.17525">
        <ele>5</ele>
        <time>2014-07-06T13:49:59Z</time>
      </trkpt>
      <trkpt lat="47.35962" lon="-1.1754">
        <ele>5</ele>
        <time>2014-07-06T13:50:10Z</time>
      </trkpt>
      <trkpt lat="47.35974" lon="-1.17564">
        <ele>5</ele>
        <time>2014-07-06T13:50:22Z</time>
      </trkpt>
      <trkpt lat="47.35979" lon="-1.17577">
        <ele>4</ele>
        <time>2014-07-06T13:50:27Z</time>
      </trkpt>
      <trkpt lat="47.35981" lon="-1.17602">
        <ele>3</ele>
        <time>2014-07-06T13:50:37Z</time>
      </trkpt>
      <trkpt lat="47.35982" lon="-1.1762">
        <ele>3</ele>
        <time>2014-07-06T13:50:44Z</time>
      </trkpt>
      <trkpt lat="47.3598" lon="-1.17644">
        <ele>3</ele>
        <time>2014-07-06T13:50:54Z</time>
      </trkpt>
      <trkpt lat="47.35977" lon="-1.17676">
        <ele>3</ele>
        <time>2014-07-06T13:51:06Z</time>
      </trkpt>
      <trkpt lat="47.35971" lon="-1.17705">
        <ele>3</ele>
        <time>2014-07-06T13:51:16Z</time>
      </trkpt>
      <trkpt lat="47.35962" lon="-1.17737">
        <ele>3</ele>
        <time>2014-07-06T13:51:28Z</time>
      </trkpt>
      <trkpt lat="47.35958" lon="-1.17748">
        <ele>3</ele>
        <time>2014-07-06T13:51:33Z</time>
      </trkpt>
      <trkpt lat="47.35949" lon="-1.17772">
        <ele>3</ele>
        <time>2014-07-06T13:51:43Z</time>
      </trkpt>
      <trkpt lat="47.35942" lon="-1.17793">
        <ele>3</ele>
        <time>2014-07-06T13:51:53Z</time>
      </trkpt>
      <trkpt lat="47.35929" lon="-1.17811">
        <ele>3</ele>
        <time>2014-07-06T13:52:03Z</time>
      </trkpt>
      <trkpt lat="47.35919" lon="-1.17823">
        <ele>4</ele>
        <time>2014-07-06T13:52:15Z</time>
      </trkpt>
      <trkpt lat="47.35918" lon="-1.17823">
        <ele>4</ele>
        <time>2014-07-06T13:52:18Z</time>
      </trkpt>
    </trkseg>
  </trk>
</gpx>